[[{"header":{"parameterUnit":"m.s-1","parameterCategory":1,"la1":30.6,"la2":28.766,"lo1":-90.7593,"lo2":-88.6598,"dy":0.0162,"dx":0.0183,"nx":116,"ny":114,"refTime":"2023-06-28T06:00:00:Z","depth":0,"parameterNumber":2,"parameterNumberName":"U-component_of_WINDS"},"data":[0.0,0.0,0.0,0.0,0.0,0.0,0.0,0.0,0.0,0.0,0.0,0.0,0.0,0.0,0.0,0.0,0.0,0.0,0.0,0.0,0.0,0.0,0.0,0.0,0.0,0.0,0.0,0.0,0.0,0.0,0.0,0.0,0.0,0.0,0.0,0.0,0.0,0.0,0.0,0.0,0.0,0.0,0.0,0.0,0.0,0.0,0.0,0.0,0.0,0.0,0.0,0.0,0.0,0.0,0.0,0.0,0.0,0.0,0.0,0.0,0.0,0.0,0.0,0.0,0.0,0.0,0.0,0.0,0.0,0.0,0.0,0.0,0.0,0.0,0.0,0.0,0.0,0.0,0.0,0.0,0.0,0.0,0.0,0.0,0.0,0.0,0.0,0.0,0.0,0.0,0.0,0.0,0.0,0.0,0.0,0.0,0.0,0.0,0.0,0.0,0.0,0.0,0.0,0.0,0.0,0.0,0.0,0.0,0.0,0.0,0.0,0.0,0.0,0.0,0.0,0.0,0.0,0.0,0.0,0.0,0.0,0.0,0.0,0.0,0.0,0.0,0.0,0.0,0.0,0.0,0.0,0.0,0.0,0.0,0.0,0.0,0.0,0.0,0.0,0.0,0.0,0.0,0.0,0.0,0.0,0.0,0.0,0.0,0.0,0.0,0.0,0.0,0.0,0.0,0.0,0.0,0.0,0.0,0.0,0.0,0.0,0.0,0.0,0.0,0.0,0.0,0.0,0.0,0.0,0.0,0.0,0.0,0.0,0.0,0.0,0.0,0.0,0.0,0.0,0.0,0.0,0.0,0.0,0.0,0.0,0.0,0.0,0.0,0.0,0.0,0.0,0.0,0.0,0.0,0.0,0.0,0.0,0.0,0.0,0.0,0.0,0.0,0.0,0.0,0.0,0.0,0.0,0.0,0.0,0.0,0.0,0.0,0.0,0.0,0.0,0.0,0.0,0.0,0.0,0.0,0.0,0.0,0.0,0.0,0.0,0.0,0.0,0.0,0.0,0.0,0.0,0.0,0.0,0.0,0.0,0.0,0.0,0.0,0.0,0.0,0.0,0.0,0.0,0.0,0.0,0.0,0.0,0.0,0.0,0.0,0.0,0.0,0.0,0.0,0.0,0.0,0.0,0.0,0.0,0.0,0.0,0.0,0.0,0.0,0.0,0.0,0.0,0.0,0.0,0.0,0.0,0.0,0.0,0.0,0.0,0.0,0.0,0.0,0.0,0.0,0.0,0.0,0.0,0.0,0.0,0.0,0.0,0.0,0.0,0.0,0.0,0.0,0.0,0.0,0.0,0.0,0.0,0.0,0.0,0.0,0.0,0.0,0.0,0.0,0.0,0.0,0.0,0.0,0.0,0.0,0.0,0.0,0.0,0.0,0.0,0.0,0.0,0.0,0.0,0.0,0.0,0.0,0.0,0.0,0.0,0.0,0.0,0.0,0.0,0.0,0.0,0.0,0.0,0.0,0.0,0.0,0.0,0.0,0.0,0.0,0.0,0.0,0.0,0.0,0.0,0.0,0.0,0.0,0.0,0.0,0.0,0.0,0.0,0.0,0.0,0.0,0.0,0.0,0.0,0.0,0.0,0.0,0.0,0.0,0.0,0.0,0.0,0.0,0.0,0.0,0.0,0.0,0.0,0.0,0.0,0.0,0.0,0.0,0.0,0.0,0.0,0.0,0.0,0.0,0.0,0.0,0.0,0.0,0.0,0.0,0.0,0.0,0.0,0.0,0.0,0.0,0.0,0.0,0.0,0.0,0.0,0.0,0.0,0.0,0.0,0.0,0.0,0.0,0.0,0.0,0.0,0.0,0.0,0.0,0.0,0.0,0.0,0.0,0.0,0.0,0.0,0.0,0.0,0.0,0.0,0.0,0.0,0.0,0.0,0.0,0.0,0.0,0.0,0.0,0.0,0.0,0.0,0.0,0.0,0.0,0.0,0.0,0.0,0.0,0.0,0.0,0.0,0.0,0.0,0.0,0.0,0.0,0.0,0.0,0.0,0.0,0.0,0.0,0.0,0.0,0.0,0.0,0.0,0.0,0.0,0.0,0.0,0.0,0.0,0.0,0.0,0.0,0.0,0.0,0.0,0.0,0.0,0.0,0.0,0.0,0.0,0.0,0.0,0.0,0.0,0.0,0.0,0.0,0.0,0.0,0.0,0.0,0.0,0.0,0.0,0.0,0.0,0.0,0.0,0.0,0.0,0.0,0.0,0.0,0.0,0.0,0.0,0.0,0.0,0.0,0.0,0.0,0.0,0.0,0.0,0.0,0.0,0.0,0.0,0.0,0.0,0.0,0.0,0.0,0.0,0.0,0.0,0.0,0.0,0.0,0.0,0.0,0.0,0.0,0.0,0.0,0.0,0.0,0.0,0.0,0.0,0.0,0.0,0.0,0.0,0.0,0.0,0.0,0.0,0.0,0.0,0.0,0.0,0.0,0.0,0.0,0.0,0.0,0.0,0.0,0.0,0.0,0.0,0.0,0.0,0.0,0.0,0.0,0.0,0.0,0.0,0.0,0.0,0.0,0.0,0.0,0.0,0.0,0.0,0.0,0.0,0.0,0.0,0.0,0.0,0.0,0.0,0.0,0.0,0.0,0.0,0.0,0.0,0.0,0.0,0.0,0.0,0.0,0.0,0.0,0.0,0.0,0.0,0.0,0.0,0.0,0.0,0.0,0.0,0.0,0.0,0.0,0.0,0.0,0.0,0.0,0.0,0.0,0.0,0.0,0.0,0.0,0.0,0.0,0.0,0.0,0.0,0.0,0.0,0.0,0.0,0.0,0.0,0.0,0.0,0.0,0.0,0.0,0.0,0.0,0.0,0.0,0.0,0.0,0.0,0.0,0.0,0.0,0.0,0.0,0.0,0.0,0.0,0.0,0.0,0.0,0.0,0.0,0.0,0.0,0.0,0.0,0.0,0.0,0.0,0.0,0.0,0.0,0.0,0.0,0.0,0.0,0.0,0.0,0.0,0.0,0.0,0.0,0.0,0.0,0.0,0.0,0.0,0.0,0.0,0.0,0.0,0.0,0.0,0.0,0.0,0.0,0.0,0.0,0.0,0.0,0.0,0.0,0.0,0.0,0.0,0.0,0.0,0.0,0.0,0.0,0.0,0.0,0.0,0.0,0.0,0.0,0.0,0.0,0.0,0.0,0.0,0.0,0.0,0.0,0.0,0.0,0.0,0.0,0.0,0.0,0.0,0.0,0.0,0.0,0.0,0.0,0.0,0.0,0.0,0.0,0.0,0.0,0.0,0.0,0.0,0.0,0.0,0.0,0.0,0.0,0.0,0.0,0.0,0.0,0.0,0.0,0.0,0.0,0.0,0.0,0.0,0.0,0.0,0.0,0.0,0.0,0.0,0.0,0.0,0.0,0.0,0.0,0.0,0.0,0.0,0.0,0.0,0.0,0.0,0.0,0.0,0.0,0.0,0.0,0.0,0.0,0.0,0.0,0.0,0.0,0.0,0.0,0.0,0.0,0.0,0.0,0.0,0.0,0.0,0.0,0.0,0.0,0.0,0.0,0.0,0.0,0.0,0.0,0.0,0.0,0.0,0.0,0.0,0.0,0.0,0.0,0.0,0.0,0.0,0.0,0.0,0.0,0.0,0.0,0.0,0.0,0.0,0.0,0.0,0.0,0.0,0.0,0.0,0.0,0.0,0.0,0.0,0.0,0.0,0.0,0.0,0.0,0.0,0.0,0.0,0.0,0.0,0.0,0.0,0.0,0.0,0.0,0.0,0.0,0.0,0.0,0.0,0.0,0.0,0.0,0.0,0.0,0.0,0.0,0.0,0.0,0.0,0.0,0.0,0.0,0.0,0.0,0.0,0.0,0.0,0.0,0.0,0.0,0.0,0.0,0.0,0.0,0.0,0.0,0.0,0.0,0.0,0.0,0.0,0.0,0.0,0.0,0.0,0.0,0.0,0.0,0.0,0.0,0.0,0.0,0.0,0.0,0.0,0.0,0.0,0.0,0.0,0.0,0.0,0.0,0.0,0.0,0.0,0.0,0.0,0.0,0.0,0.0,0.0,0.0,0.0,0.0,0.0,0.0,0.0,0.0,0.0,0.0,0.0,0.0,0.0,0.0,0.0,0.0,0.0,0.0,0.0,0.0,0.0,0.0,0.0,0.0,0.0,0.0,0.0,0.0,0.0,0.0,0.0,0.0,0.0,0.0,0.0,0.0,0.0,0.0,0.0,0.0,0.0,0.0,0.0,0.0,0.0,0.0,0.0,0.0,0.0,0.0,0.0,0.0,0.0,0.0,0.0,0.0,0.0,0.0,0.0,0.0,0.0,0.0,0.0,0.0,0.0,0.0,0.0,0.0,0.0,0.0,0.0,0.0,0.0,0.0,0.0,0.0,0.0,0.0,0.0,0.0,0.0,0.0,0.0,0.0,0.0,0.0,0.0,0.0,0.0,0.0,0.0,0.0,0.0,0.0,0.0,0.0,0.0,0.0,0.0,0.0,0.0,0.0,0.0,0.0,0.0,0.0,0.0,0.0,0.0,0.0,0.0,0.0,0.0,0.0,0.0,0.0,0.0,0.0,0.0,0.0,0.0,0.0,0.0,0.0,0.0,0.0,0.0,0.0,0.0,0.0,0.0,0.0,0.0,0.0,0.0,0.0,0.0,0.0,0.0,0.0,0.0,0.0,0.0,0.0,0.0,0.0,0.0,0.0,0.0,0.0,0.0,0.0,0.0,0.0,0.0,0.0,0.0,0.0,0.0,0.0,0.0,0.0,0.0,0.0,0.0,0.0,0.0,0.0,0.0,0.0,0.0,0.0,0.0,0.0,0.0,0.0,0.0,0.0,0.0,0.0,0.0,0.0,0.0,0.0,0.0,0.0,0.0,0.0,0.0,0.0,0.0,0.0,0.0,0.0,0.0,0.0,0.0,0.0,0.0,0.0,0.0,0.0,0.0,0.0,0.0,0.0,0.0,0.0,0.0,0.0,0.0,0.0,0.0,0.0,0.0,0.0,0.0,0.0,0.0,0.0,0.0,0.0,0.0,0.0,0.0,0.0,0.0,0.0,0.0,0.0,0.0,0.0,0.0,0.0,0.0,0.0,0.0,0.0,0.0,0.0,0.0,0.0,0.0,0.0,0.0,0.0,0.0,0.0,0.0,0.0,0.0,0.0,0.0,0.0,0.0,0.0,0.0,0.0,0.0,0.0,0.0,0.0,0.0,0.0,0.0,0.0,0.0,0.0,0.0,0.0,0.0,0.0,0.0,0.0,0.0,0.0,0.0,0.0,0.0,0.0,0.0,0.0,0.0,0.0,0.0,0.0,0.0,0.0,0.0,0.0,0.0,0.0,0.0,0.0,0.0,0.0,0.0,0.0,0.0,0.0,0.0,0.0,0.0,0.0,0.0,0.0,0.0,0.0,0.0,0.0,0.0,0.0,0.0,0.0,0.0,0.0,0.0,0.0,0.0,0.0,0.0,0.0,0.0,0.0,0.0,0.0,0.0,0.0,0.0,0.0,0.0,0.0,0.0,0.0,0.0,0.0,0.0,0.0,0.0,0.0,0.0,0.0,0.0,0.0,0.0,0.0,0.0,0.0,0.0,0.0,0.0,0.0,0.0,0.0,0.0,0.0,0.0,0.0,0.0,0.0,0.0,0.0,0.0,0.0,0.0,0.0,0.0,0.0,0.0,0.0,0.0,0.0,0.0,0.0,0.0,0.0,0.0,0.0,0.0,0.0,0.0,0.0,0.0,0.0,0.0,0.0,0.0,0.0,0.0,0.0,0.0,0.0,0.0,0.0,0.0,0.0,0.0,0.0,0.0,0.0,0.0,0.0,0.0,0.0,0.0,0.0,0.0,0.0,0.0,0.0,0.0,0.0,0.0,0.0,0.0,0.0,0.0,0.0,0.0,0.0,0.0,0.0,0.0,0.0,0.0,0.0,0.0,0.0,0.0,0.0,0.0,0.0,0.0,0.0,0.0,0.0,0.0,0.0,0.0,0.0,0.0,0.0,0.0,0.0,0.0,0.0,0.0,0.0,0.0,0.0,0.0,0.0,0.0,0.0,0.0,0.0,0.0,0.0,0.0,0.0,0.0,0.0,0.0,0.0,0.0,0.0,-2.2197,-2.0964,0.0,0.0,0.0,0.0,0.0,0.0,0.0,0.0,0.0,0.0,0.0,0.0,0.0,0.0,0.0,0.0,0.0,0.0,0.0,0.0,0.0,0.0,0.0,0.0,0.0,0.0,0.0,0.0,0.0,0.0,0.0,0.0,0.0,0.0,0.0,0.0,0.0,0.0,0.0,0.0,0.0,0.0,0.0,0.0,0.0,0.0,0.0,0.0,0.0,0.0,0.0,0.0,0.0,0.0,0.0,0.0,0.0,0.0,0.0,0.0,0.0,0.0,0.0,0.0,0.0,0.0,0.0,0.0,0.0,0.0,0.0,0.0,0.0,0.0,0.0,0.0,0.0,0.0,0.0,0.0,0.0,0.0,0.0,0.0,0.0,0.0,0.0,0.0,0.0,0.0,0.0,0.0,0.0,0.0,0.0,0.0,0.0,0.0,0.0,0.0,0.0,0.0,0.0,0.0,0.0,0.0,0.0,0.0,0.0,0.0,0.0,0.0,0.0,0.0,-2.2548,-2.2147,0.0,0.0,0.0,0.0,0.0,0.0,0.0,0.0,0.0,0.0,0.0,0.0,0.0,0.0,0.0,0.0,0.0,0.0,0.0,0.0,0.0,0.0,0.0,0.0,0.0,0.0,0.0,0.0,0.0,0.0,0.0,0.0,0.0,0.0,0.0,0.0,0.0,0.0,0.0,0.0,0.0,0.0,0.0,0.0,0.0,0.0,0.0,0.0,0.0,0.0,0.0,0.0,0.0,0.0,0.0,0.0,0.0,0.0,0.0,0.0,0.0,0.0,0.0,0.0,0.0,0.0,0.0,0.0,0.0,0.0,0.0,0.0,0.0,0.0,0.0,0.0,0.0,0.0,0.0,0.0,0.0,0.0,0.0,0.0,0.0,0.0,0.0,0.0,0.0,0.0,0.0,0.0,0.0,0.0,0.0,0.0,0.0,0.0,0.0,0.0,0.0,0.0,0.0,0.0,0.0,0.0,0.0,0.0,-2.2327,-2.2351,-2.2793,-2.2953,-2.3288,-2.3641,-2.2662,-2.3194,-2.4637,-2.2723,0.0,0.0,0.0,0.0,0.0,0.0,0.0,0.0,0.0,0.0,0.0,0.0,0.0,0.0,0.0,0.0,0.0,0.0,0.0,0.0,0.0,0.0,-1.5125,-1.5634,-1.5754,-1.5799,0.0,0.0,0.0,0.0,0.0,0.0,0.0,0.0,0.0,0.0,0.0,0.0,-2.1167,-2.123,-2.1154,-2.0903,-1.9761,0.0,0.0,0.0,0.0,0.0,0.0,0.0,0.0,0.0,0.0,0.0,0.0,0.0,0.0,0.0,0.0,0.0,0.0,0.0,0.0,0.0,0.0,0.0,0.0,0.0,0.0,0.0,0.0,0.0,0.0,0.0,0.0,0.0,0.0,0.0,0.0,0.0,0.0,0.0,0.0,0.0,0.0,0.0,-2.0012,-2.1129,0.0,0.0,0.0,0.0,0.0,0.0,0.0,0.0,0.0,0.0,0.0,0.0,0.0,-2.3358,-2.455,-2.4466,-2.4941,-2.5911,-2.5836,-2.5849,-2.5911,-2.5937,-2.5984,-2.5996,-2.4878,0.0,-2.4725,-2.3991,0.0,0.0,0.0,0.0,0.0,0.0,0.0,0.0,0.0,0.0,0.0,0.0,0.0,0.0,0.0,0.0,0.0,0.0,0.0,0.0,0.0,-1.5441,-1.6144,-1.6817,-1.7243,-1.7213,-1.6579,0.0,0.0,0.0,0.0,0.0,0.0,0.0,0.0,0.0,-2.0402,-2.1568,-2.241,-2.241,-2.241,-2.2397,-2.1866,-2.0688,-1.9108,-1.9108,0.0,0.0,0.0,0.0,0.0,0.0,0.0,0.0,0.0,0.0,0.0,0.0,0.0,0.0,0.0,0.0,0.0,0.0,0.0,0.0,0.0,0.0,0.0,0.0,0.0,0.0,0.0,0.0,0.0,0.0,0.0,0.0,0.0,0.0,0.0,0.0,0.0,0.0,0.0,-1.9899,-2.1167,-2.2284,-2.2133,-2.1669,0.0,0.0,0.0,0.0,0.0,0.0,0.0,0.0,0.0,-2.401,-2.4368,-2.5059,-2.6189,-2.6515,-2.6904,-2.7381,-2.7381,-2.7381,-2.7381,-2.7381,-2.7381,-2.7356,-2.6879,-2.6666,-2.6553,-2.5071,-2.428,-2.3853,0.0,0.0,0.0,0.0,-2.0413,-2.0514,0.0,0.0,0.0,0.0,0.0,0.0,0.0,0.0,0.0,0.0,0.0,0.0,-1.5005,-1.6338,-1.7425,-1.7946,-1.8626,-1.8407,-1.6938,0.0,0.0,0.0,0.0,0.0,0.0,0.0,0.0,-2.0905,-2.1568,-2.241,-2.3333,-2.3333,-2.3396,-2.3534,-2.3534,-2.2293,-2.0225,-2.0225,-1.9371,0.0,0.0,0.0,0.0,0.0,0.0,0.0,0.0,0.0,0.0,0.0,0.0,0.0,0.0,0.0,0.0,0.0,0.0,0.0,0.0,0.0,0.0,0.0,0.0,0.0,0.0,0.0,0.0,0.0,0.0,0.0,0.0,0.0,0.0,0.0,0.0,0.0,0.0,-2.1117,-2.2322,-2.3409,-2.3452,-2.3213,0.0,0.0,0.0,0.0,0.0,0.0,-2.3684,-2.3376,-2.3916,-2.5611,-2.6038,-2.6703,-2.7695,-2.8109,-2.8386,-2.8536,-2.8536,-2.8536,-2.8536,-2.8536,-2.8536,-2.8536,-2.8536,-2.8536,-2.8386,-2.6452,-2.5423,-2.5008,-2.4582,-2.364,-2.2535,-2.2535,-2.2535,-2.2598,0.0,0.0,0.0,0.0,0.0,0.0,0.0,0.0,0.0,0.0,0.0,-1.5709,-1.5754,-1.7445,-1.864,-1.8735,-1.9284,-1.8665,-1.6308,-1.6697,-1.583,0.0,0.0,0.0,0.0,0.0,0.0,-2.1443,-2.2493,-2.3333,-2.3954,-2.3954,-2.4243,-2.47,-2.47,-2.3502,-2.1405,-2.1405,-2.074,-1.9597,0.0,0.0,0.0,0.0,0.0,0.0,0.0,0.0,0.0,0.0,0.0,0.0,0.0,0.0,0.0,0.0,0.0,0.0,0.0,0.0,0.0,0.0,0.0,0.0,0.0,0.0,0.0,0.0,0.0,0.0,0.0,0.0,0.0,0.0,0.0,0.0,0.0,0.0,0.0,-2.4575,-2.5636,0.0,0.0,0.0,0.0,-2.2347,-2.2297,-2.3238,-2.536,-2.5448,-2.6201,-2.7883,-2.7959,-2.826,-2.88,-2.8838,-2.9164,-2.9704,-2.9704,-2.9704,-2.9704,-2.9704,-2.9704,-2.9704,-2.9704,-2.9704,-2.9616,-2.8423,-2.7921,-2.7745,-2.6138,-2.546,-2.5385,-2.5385,-2.5385,-2.5624,0.0,0.0,0.0,0.0,0.0,0.0,0.0,0.0,0.0,-1.3241,-1.4317,-1.547,-1.6293,-1.8536,-2.0329,-2.1222,-2.1117,-2.0323,-1.8768,-1.7114,-1.5747,0.0,0.0,0.0,0.0,0.0,-2.1619,-2.31,-2.3502,-2.3979,-2.4519,-2.4519,-2.4632,-2.4788,-2.4788,-2.4349,-2.3615,-2.3251,-2.2246,-2.0828,-2.0113,-1.8844,0.0,0.0,0.0,0.0,0.0,0.0,0.0,0.0,0.0,0.0,0.0,0.0,0.0,0.0,0.0,0.0,0.0,0.0,0.0,0.0,0.0,0.0,0.0,0.0,0.0,0.0,0.0,0.0,0.0,0.0,0.0,0.0,0.0,0.0,0.0,0.0,0.0,-2.465,-2.5172,0.0,-2.4582,-2.4833,-2.4858,-2.4456,-2.5423,-2.6389,-2.7168,-2.7544,-2.8009,-2.8612,-2.934,-2.9817,-3.0005,-3.0344,-3.062,-3.0821,-3.0821,-3.0821,-3.0821,-3.0821,-3.0821,-3.0821,-3.0821,-3.0821,-3.0796,-3.0382,-2.9817,-2.9126,-2.8536,-2.8298,-2.8298,-2.8298,-2.8059,-2.7797,0.0,0.0,0.0,0.0,0.0,0.0,0.0,0.0,0.0,-1.3493,-1.4826,-1.6263,-1.7579,-2.0075,-2.1862,-2.233,-2.2173,-2.1148,-1.9025,-1.7259,-1.5796,0.0,-1.4231,0.0,0.0,-2.1016,-2.2498,-2.4004,-2.4192,-2.4556,-2.5084,-2.5084,-2.5184,-2.5372,-2.5372,-2.5372,-2.5335,-2.4782,-2.3791,-2.2548,-2.1794,-2.0314,-1.8454,0.0,0.0,0.0,0.0,0.0,0.0,0.0,0.0,0.0,0.0,0.0,0.0,0.0,0.0,0.0,0.0,0.0,0.0,0.0,0.0,0.0,0.0,0.0,0.0,0.0,0.0,0.0,0.0,0.0,0.0,0.0,0.0,0.0,0.0,0.0,-2.401,-2.4971,-2.5423,-2.5724,-2.5912,-2.6239,-2.6527,-2.6703,-2.7745,-2.8549,-2.8938,-2.9302,-2.954,-2.9754,-3.0482,-3.0972,-3.116,-3.1499,-3.1763,-3.1951,-3.1951,-3.1951,-3.1951,-3.1951,-3.1951,-3.1951,-3.1951,-3.1951,-3.1951,-3.1951,-3.1537,-3.0859,-3.0482,-3.0331,-3.0331,-3.0331,-3.0093,-2.9754,0.0,0.0,0.0,0.0,0.0,0.0,0.0,0.0,-1.4006,-1.4691,-1.6473,-1.8207,-1.9558,-2.2024,-2.3106,-2.1838,-2.23,-2.0932,-1.6849,-1.7136,-1.5983,0.0,0.0,0.0,-2.0679,-2.1794,-2.2924,-2.4054,-2.4582,-2.5109,-2.5624,-2.5624,-2.5925,-2.6499,-2.6499,-2.6499,-2.6461,-2.5862,-2.5335,-2.4738,-2.3609,-2.2209,-2.0591,0.0,0.0,0.0,0.0,0.0,0.0,0.0,0.0,0.0,0.0,0.0,0.0,0.0,0.0,0.0,0.0,0.0,0.0,0.0,0.0,0.0,0.0,0.0,0.0,0.0,0.0,0.0,0.0,0.0,0.0,0.0,0.0,0.0,-2.3032,-2.4123,-2.5059,-2.5611,-2.6653,-2.7544,-2.8084,-2.816,-2.8398,-2.89,-2.8963,-2.9452,-3.0583,-3.0658,-3.0896,-3.1399,-3.1449,-3.1725,-3.2265,-3.2277,-3.2566,-3.3174,-3.3174,-3.3174,-3.3174,-3.3174,-3.3174,-3.3174,-3.3174,-3.3174,-3.3174,-3.3174,-3.3174,-3.3061,-3.1888,-3.1436,-3.1436,-3.1436,-3.1436,-3.1411,0.0,0.0,0.0,0.0,0.0,0.0,0.0,-1.3887,-1.3328,-1.3989,-1.6189,-1.8207,-1.9558,-2.2024,-2.3275,-2.2483,-2.2146,-2.0946,-1.8547,-1.7372,0.0,0.0,0.0,0.0,-2.1832,-2.2962,-2.4067,-2.5159,-2.531,-2.5674,-2.626,-2.626,-2.6336,-2.6499,-2.6499,-2.6499,-2.6487,-2.6323,-2.6172,-2.5946,-2.4808,-2.3559,-2.238,0.0,0.0,0.0,0.0,0.0,0.0,0.0,0.0,0.0,0.0,0.0,0.0,0.0,0.0,0.0,0.0,0.0,0.0,0.0,0.0,0.0,0.0,0.0,0.0,0.0,0.0,0.0,0.0,0.0,0.0,0.0,0.0,-2.4142,-2.482,-2.5184,-2.5887,-2.7256,-2.8047,-2.8536,-2.865,-2.944,-2.9993,-3.0104,-3.0507,-3.0846,-3.116,-3.1549,-3.1838,-3.1989,-3.278,-3.3282,-3.3432,-3.3834,-3.411,-3.4274,-3.4274,-3.4274,-3.4274,-3.4274,-3.4274,-3.4274,-3.4274,-3.4274,-3.4274,-3.4274,-3.4274,-3.4161,-3.3043,-3.2616,-3.2616,-3.2616,-3.2353,-3.1926,0.0,0.0,0.0,0.0,0.0,0.0,0.0,-1.3659,-1.3238,-1.4481,-1.6428,-1.8416,-2.0318,-2.2368,-2.3253,-2.2369,-2.1508,-2.0075,-1.7813,-1.6527,0.0,0.0,0.0,-2.1732,-2.2987,-2.3891,-2.4757,-2.5598,-2.5837,-2.6172,-2.6499,-2.6499,-2.6499,-2.6499,-2.6499,-2.6499,-2.6499,-2.6499,-2.6499,-2.6436,-2.5762,-2.4845,-2.3785,-2.3559,-2.2598,-2.1358,-2.1119,-2.0893,-2.0591,-1.9936,0.0,0.0,0.0,0.0,0.0,0.0,0.0,0.0,0.0,0.0,0.0,0.0,0.0,0.0,0.0,0.0,0.0,0.0,0.0,0.0,0.0,0.0,0.0,0.0,-2.3853,-2.5661,-2.7143,-2.7143,-2.7444,-2.8674,-2.9302,-2.9678,-2.9942,-3.0557,-3.1035,-3.126,-3.1562,-3.1838,-3.2077,-3.2616,-3.2918,-3.2918,-3.3784,-3.4248,-3.4248,-3.4517,-3.468,-3.468,-3.468,-3.468,-3.468,-3.468,-3.468,-3.468,-3.468,-3.468,-3.468,-3.468,-3.468,-3.4663,0.0,0.0,0.0,0.0,-3.3206,-3.2842,0.0,0.0,0.0,0.0,0.0,0.0,0.0,-1.367,-1.3569,-1.5529,-1.6907,-1.8715,-2.141,-2.2832,-2.3091,-2.1815,-2.0754,-1.8971,-1.6147,0.0,0.0,-1.9773,-2.0654,-2.2024,-2.4054,-2.4632,-2.5172,-2.5686,-2.6248,-2.6499,-2.6499,-2.6499,-2.6499,-2.6499,-2.6499,-2.6499,-2.6499,-2.6499,-2.6499,-2.6499,-2.6499,-2.5908,-2.4958,-2.4456,-2.3653,-2.2711,-2.2221,-2.176,-2.1333,-2.1207,0.0,0.0,0.0,0.0,0.0,0.0,0.0,0.0,0.0,0.0,0.0,0.0,0.0,0.0,0.0,0.0,0.0,0.0,0.0,0.0,0.0,0.0,0.0,0.0,-2.4946,-2.6967,-2.9528,-2.9541,-2.9465,-2.9917,-3.0457,-3.0972,-3.1436,-3.1537,-3.1788,-3.2277,-3.2303,-3.2566,-3.3144,0.0,0.0,0.0,0.0,-3.4768,-3.4768,-3.4876,-3.4901,-3.4901,-3.4901,-3.4901,-3.4901,-3.4901,-3.4901,-3.4901,-3.4901,-3.4901,-3.4901,-3.4901,-3.4901,-3.4901,-3.4731,-3.468,-3.4618,-3.4173,-3.3985,-3.3909,0.0,0.0,0.0,0.0,0.0,0.0,0.0,-1.3715,-1.3832,-1.5571,-1.6907,-1.8715,-2.141,-2.2832,-2.3091,-2.1815,-2.1006,-1.9705,0.0,0.0,-1.9334,-2.0478,-2.2363,-2.3766,-2.4644,-2.5172,-2.5724,-2.6336,-2.6436,-2.6499,-2.6499,-2.6499,-2.6499,-2.6499,-2.6499,-2.6499,-2.6499,-2.6499,-2.6499,-2.6499,-2.6499,-2.6361,-2.6172,-2.6059,-2.5883,-2.5682,-2.5569,-2.5468,-2.5242,-2.4318,-2.3941,-2.364,-2.2385,0.0,0.0,0.0,0.0,0.0,0.0,0.0,0.0,0.0,0.0,0.0,0.0,0.0,0.0,0.0,0.0,0.0,0.0,0.0,0.0,-2.5632,-2.7595,-2.9327,-3.0319,-3.111,-3.1449,-3.1122,-3.1562,-3.1938,-3.2051,-3.2478,-3.2792,-3.2905,-3.2918,-3.3156,-3.3709,-3.3847,-3.411,-3.455,-3.5056,-3.5345,-3.5345,-3.583,-3.6091,-3.6091,-3.6091,0.0,-3.6091,-3.6091,-3.6091,-3.6091,-3.6091,-3.6091,-3.6091,-3.6091,-3.6091,-3.6003,-3.5064,-3.468,-3.4713,-3.46,-3.4562,-3.4487,0.0,0.0,0.0,0.0,0.0,0.0,0.0,-1.3594,-1.3469,-1.4658,-1.565,-1.7116,-1.9447,-2.0572,-2.0906,-2.0309,-1.919,0.0,0.0,-1.8732,-1.9911,-2.1056,-2.2949,-2.4255,-2.4775,-2.5335,-2.5921,-2.6499,-2.6499,-2.6499,-2.6499,-2.6499,-2.6499,-2.6499,-2.6499,-2.6499,-2.6499,-2.6499,-2.6499,-2.6499,-2.6499,-2.6499,-2.6499,-2.6499,-2.6499,-2.6499,-2.6499,-2.6499,-2.6411,-2.5824,-2.5636,-2.5498,-2.4657,-2.347,-2.2058,0.0,0.0,0.0,0.0,0.0,0.0,0.0,0.0,0.0,0.0,0.0,0.0,0.0,0.0,-2.2159,0.0,0.0,-2.6,-2.7105,-2.8925,-3.0482,-3.1298,-3.1876,-3.2114,-3.1838,-3.2303,-3.2641,-3.2641,-3.2905,-3.3194,-3.347,-3.3483,-3.3721,-3.4274,-3.4575,-3.4806,-3.5082,-3.5667,-3.5956,-3.5956,-3.6267,-3.6405,-3.6405,-3.6405,-3.6405,-3.6405,-3.6405,-3.6405,-3.6405,-3.6405,-3.6405,-3.6405,-3.6405,-3.6405,-3.6355,-3.5755,-3.5542,-3.5504,-3.5182,-3.5094,-3.5006,0.0,0.0,0.0,0.0,0.0,0.0,0.0,0.0,0.0,-1.3927,-1.4453,-1.5545,-1.7489,-1.8296,-1.8675,-1.8588,0.0,0.0,0.0,-1.868,-2.0104,-2.1458,-2.31,-2.4255,-2.4775,-2.5435,-2.6021,-2.6499,-2.6499,-2.6499,-2.6499,-2.6499,-2.6499,-2.6499,-2.6499,-2.6499,-2.6499,-2.6499,-2.6499,-2.6499,-2.6499,-2.6499,-2.6499,-2.6499,-2.6499,-2.6499,-2.6499,-2.6361,-2.621,-2.6424,-2.6348,-2.621,-2.6424,-2.5431,-2.3866,-2.241,-2.182,0.0,0.0,0.0,0.0,0.0,0.0,0.0,0.0,0.0,-2.2385,-2.3251,-2.3439,-2.3791,-2.4921,-2.6248,-2.7542,-2.8712,-3.0043,-3.126,-3.224,-3.2378,-3.2378,-3.2378,-3.2792,-3.3124,-3.3124,-3.3124,-3.3307,-3.3859,-3.3897,-3.4186,-3.4806,-3.5257,-3.5545,-3.5658,-3.6132,-3.6405,-3.6405,-3.6405,-3.6405,-3.6405,-3.6405,-3.6405,-3.6405,-3.6405,-3.6405,-3.6405,-3.6405,-3.6405,-3.6405,-3.6405,-3.6405,-3.6405,-3.6405,-3.6405,-3.6355,-3.5868,-3.5658,-3.5583,0.0,0.0,0.0,0.0,0.0,0.0,0.0,0.0,0.0,-1.4641,-1.4751,-1.5545,-1.7489,-1.8296,-1.8459,0.0,0.0,0.0,-1.7814,-1.9972,-2.1366,-2.1483,-2.31,-2.4255,-2.4775,-2.5871,-2.6424,-2.6499,-2.6499,-2.6499,-2.6499,-2.6499,-2.6499,-2.6499,-2.6499,-2.6499,-2.6499,-2.6499,-2.6499,-2.6499,-2.6499,-2.6499,-2.6499,-2.6499,-2.6499,-2.6499,-2.6499,-2.5871,-2.5159,-2.6172,-2.5812,-2.5172,-2.6185,-2.5695,-2.4562,-2.3916,0.0,-2.1744,-1.9584,-1.9146,-1.9384,-1.9874,-2.0652,-2.197,0.0,0.0,-2.5021,-2.7042,-2.7457,-2.7808,-2.8938,-2.9302,-2.993,-3.1499,-3.1913,-3.2252,-3.2893,-3.298,-3.298,-3.298,-3.3074,-3.3124,-3.3124,-3.3124,-3.3307,-3.3859,-3.3897,-3.4349,-3.5357,-3.547,-3.5768,-3.6304,-3.6367,-3.6405,-3.6405,-3.6405,-3.6405,-3.6405,-3.6405,-3.6405,-3.6405,-3.6405,-3.6405,-3.6405,-3.6405,-3.6405,-3.6405,-3.6405,-3.6405,-3.6405,-3.6405,-3.6405,-3.6405,-3.6329,-3.6317,-3.6194,0.0,0.0,0.0,0.0,0.0,0.0,0.0,0.0,0.0,0.0,-1.3154,-1.351,-1.4722,-1.58,-1.6458,0.0,0.0,0.0,-1.8417,-2.0399,-2.1721,-2.201,-2.2968,-2.3766,-2.433,-2.5398,-2.5996,-2.5996,-2.6336,-2.6499,-2.6499,-2.6499,-2.6499,-2.6499,-2.6499,-2.6499,-2.6499,-2.6499,-2.6499,-2.6499,-2.6499,-2.6499,-2.6499,-2.6499,-2.6499,-2.6361,-2.5405,-2.4732,0.0,0.0,-2.472,-2.4594,-2.6047,-2.5485,-2.4293,-2.4067,-2.3201,0.0,-2.2355,-2.1653,0.0,0.0,-2.4017,-2.4431,-2.6578,-2.6892,-2.718,-2.8762,-2.9089,-2.9428,-3.052,-3.0984,-3.1424,0.0,-3.2491,-3.2805,-3.3043,-3.3124,-3.3124,-3.3124,-3.3124,-3.3124,-3.3124,-3.337,-3.3784,-3.4336,-3.4675,-3.5203,-3.5981,-3.6019,-3.6119,-3.6405,-3.6405,-3.6405,-3.6405,-3.6405,-3.6405,-3.6405,-3.6405,-3.6405,-3.6405,-3.6405,-3.6405,-3.6405,-3.6405,-3.6405,-3.6405,-3.6405,-3.6405,-3.6405,-3.6405,-3.6405,-3.6405,-3.6405,-3.6405,-3.6367,0.0,0.0,0.0,0.0,0.0,0.0,0.0,0.0,0.0,0.0,0.0,0.0,0.0,0.0,0.0,0.0,0.0,0.0,0.0,-2.0405,-2.1614,-2.2141,-2.2801,-2.3343,-2.3753,-2.482,-2.5385,-2.5385,-2.5984,-2.6248,-2.626,-2.6411,-2.6499,-2.6499,-2.6499,-2.6499,-2.6499,-2.6499,-2.6499,-2.6499,-2.6499,-2.6499,-2.6499,-2.6499,-2.621,-2.5657,-2.4431,-2.3803,0.0,-2.352,-2.3327,-2.3339,-2.4862,-2.4619,-2.3727,-2.356,-2.2616,-2.1992,-2.3658,0.0,0.0,-2.6063,-2.6553,-2.6691,-2.8222,-2.8574,-2.8888,-3.0005,-3.0231,-3.052,-3.1449,-3.1938,-3.2265,-3.2428,-3.2805,-3.3124,-3.3124,-3.3124,-3.3124,-3.3124,-3.3206,-3.3307,-3.3307,-3.3671,-3.4186,-3.4856,-3.527,-3.578,-3.638,-3.6405,-3.6405,-3.6405,-3.6405,-3.6405,-3.6405,-3.6405,-3.6405,-3.6405,-3.6405,-3.6405,-3.6405,-3.6405,-3.6405,-3.6405,-3.6405,-3.6405,-3.6405,-3.6405,-3.6405,-3.6405,-3.6405,-3.6405,-3.6405,-3.6405,-3.6405,-3.6405,0.0,0.0,0.0,0.0,0.0,0.0,0.0,0.0,0.0,0.0,0.0,0.0,0.0,0.0,0.0,0.0,0.0,0.0,0.0,-2.001,-2.0988,-2.1588,-2.2692,-2.3243,-2.312,-2.4236,-2.4813,-2.4813,-2.536,-2.5624,-2.5636,-2.6235,-2.6499,-2.6499,-2.6499,-2.6499,-2.6499,-2.6499,-2.6499,-2.6499,-2.6499,-2.6499,-2.6499,-2.6499,-2.5493,-2.4067,-2.4017,0.0,-2.2358,-2.2349,-2.1629,-2.0899,-2.2059,-2.275,0.0,-2.2495,-2.1172,-2.0238,0.0,0.0,-2.2849,-2.5084,-2.6854,-2.8335,-2.9478,-2.9741,-3.0043,-3.1122,-3.1336,-3.1512,-3.2077,-3.2202,-3.239,-3.2998,-3.3111,-3.3124,-3.3124,-3.3124,-3.3124,-3.3124,-3.3545,-3.3872,0.0,-3.3884,-3.4349,-3.5395,-3.5495,-3.578,-3.638,-3.6405,-3.6405,-3.6405,-3.6405,-3.6405,-3.6405,-3.6405,-3.6405,-3.6405,-3.6405,-3.6405,-3.6405,-3.6405,-3.6405,-3.6405,-3.6405,-3.6405,-3.6405,-3.6405,-3.6405,-3.6405,-3.6405,-3.6405,-3.6405,-3.6405,-3.6405,-3.6405,0.0,0.0,0.0,0.0,0.0,0.0,0.0,0.0,0.0,0.0,0.0,0.0,0.0,0.0,0.0,0.0,0.0,0.0,0.0,-1.971,-2.0767,-2.0924,-2.1716,-2.23,-2.2573,-2.3283,-2.386,-2.428,-2.482,-2.5084,-2.5084,-2.5285,-2.5372,-2.5372,-2.5372,-2.5372,-2.5372,-2.5372,-2.5372,-2.5398,-2.5749,-2.5493,-2.4833,-2.4833,-2.4017,-2.2715,0.0,0.0,-2.023,-2.0924,-2.0667,-2.0407,-2.2245,-2.218,-2.1536,-2.1931,-2.2004,-2.2627,0.0,0.0,-2.5453,-2.9386,-2.9819,-2.9694,-3.1513,-3.1578,-3.128,-3.1385,-3.0739,-3.0236,-3.055,-2.9993,-2.9917,-3.1235,-3.1738,-3.2215,-3.3011,-3.3124,-3.3219,-3.3583,-3.3784,0.0,0.0,0.0,0.0,-3.547,-3.5881,-3.6169,-3.6405,-3.6405,-3.6405,-3.6405,-3.6405,-3.6405,-3.6405,-3.6405,-3.6405,-3.6405,-3.6405,-3.6405,-3.6405,-3.6405,-3.6405,-3.6405,-3.6405,-3.6405,-3.6405,-3.6405,-3.6405,-3.6405,-3.6405,-3.6405,-3.6405,-3.6405,-3.6405,-3.6405,0.0,0.0,0.0,0.0,0.0,0.0,0.0,0.0,0.0,0.0,0.0,0.0,0.0,0.0,0.0,0.0,0.0,0.0,0.0,0.0,-1.9715,-1.9954,-2.0543,-2.0949,-2.1059,-2.1576,-2.2062,-2.2498,-2.3452,-2.3898,-2.391,-2.4512,-2.4788,-2.482,-2.5084,-2.5186,-2.5186,-2.5186,-2.5198,-2.5249,-2.5326,-2.4948,-2.4313,-2.4132,-2.3215,0.0,0.0,0.0,-1.8796,-1.9699,-1.9751,-1.9858,-2.199,-2.1921,-2.1312,-2.2574,-2.2987,-2.373,-2.6936,-2.7546,-2.8139,-3.1694,-3.1757,-3.141,-3.31,-3.2889,-3.2057,-3.1189,-3.0394,-2.9643,-2.9065,-2.8178,-2.8195,-3.0291,-3.0741,-3.1348,-3.291,-3.3124,-3.3282,-3.3834,-3.4073,-3.455,0.0,0.0,0.0,-3.583,-3.6157,-3.6405,-3.6405,-3.6405,-3.6405,-3.6405,-3.6405,-3.6405,-3.6405,-3.6405,-3.6405,-3.6405,-3.6405,-3.6405,-3.6405,-3.6405,-3.6405,-3.6405,-3.6405,-3.6405,-3.6405,-3.6405,-3.6405,-3.6405,-3.6405,-3.6405,-3.6405,-3.6405,-3.6405,-3.6405,0.0,0.0,0.0,0.0,0.0,0.0,0.0,0.0,0.0,0.0,0.0,0.0,0.0,0.0,0.0,0.0,0.0,0.0,0.0,0.0,0.0,-1.8679,-1.9253,-1.9308,-1.8806,-1.9334,-1.9664,-1.9838,-2.1463,-2.227,-2.2295,-2.3847,-2.4588,-2.4652,-2.533,-2.5643,-2.5673,-2.5673,-2.5705,-2.5719,-2.5031,-2.476,-2.4708,-2.4177,0.0,0.0,0.0,0.0,0.0,0.0,0.0,0.0,0.0,-2.2091,-2.2468,-2.4461,-2.4176,-2.3822,-2.6607,-2.8876,-3.0793,-3.2172,-3.2784,-3.3325,-3.4293,-3.3614,-3.23,-3.0685,-3.0205,-2.9521,0.0,0.0,-2.7329,-3.0025,-3.0164,-3.0662,-3.2772,-3.3056,-3.3294,0.0,0.0,0.0,0.0,0.0,0.0,-3.6405,0.0,-3.6405,-3.6405,-3.6405,-3.6405,-3.6405,-3.6405,-3.6405,-3.6405,-3.6405,-3.6405,-3.6405,-3.6405,-3.6405,-3.6405,-3.6405,-3.6405,-3.6405,-3.6405,-3.6405,-3.6405,-3.6405,-3.6405,-3.6405,-3.6405,-3.6405,-3.6405,-3.6405,-3.6405,-3.6405,0.0,0.0,0.0,0.0,0.0,0.0,0.0,0.0,0.0,0.0,0.0,0.0,0.0,0.0,0.0,0.0,0.0,0.0,0.0,0.0,0.0,0.0,0.0,0.0,0.0,0.0,0.0,-2.0253,-2.1194,-2.1633,-2.1647,-2.1668,-2.1876,-2.226,-2.2049,-2.2168,-2.2545,-2.2545,-2.2567,-2.2586,0.0,-2.2459,-2.1762,0.0,0.0,0.0,0.0,0.0,0.0,0.0,0.0,0.0,0.0,-2.4669,-2.5144,-2.7635,-2.7983,-2.8368,-3.2242,-3.3038,-3.3416,-3.6129,-3.5421,-3.4413,-3.5849,-3.4094,-3.1666,-3.0059,-2.7812,-2.5744,0.0,0.0,0.0,-2.728,-2.9718,0.0,-3.2353,-3.2805,0.0,-3.4399,0.0,-3.5102,-3.6056,-3.6329,0.0,0.0,-3.6405,-3.6405,-3.6405,-3.6405,-3.6405,-3.6405,-3.6405,-3.6405,-3.6405,-3.6405,-3.6405,-3.6405,-3.6405,-3.6405,-3.6405,-3.6405,-3.6405,-3.6405,-3.6405,-3.6405,-3.6405,-3.6405,-3.6405,-3.6405,-3.6405,-3.6405,-3.6405,-3.6405,-3.6405,-3.6405,0.0,0.0,0.0,0.0,0.0,0.0,0.0,0.0,0.0,0.0,0.0,0.0,0.0,0.0,0.0,0.0,0.0,0.0,0.0,0.0,0.0,0.0,0.0,0.0,0.0,0.0,0.0,0.0,0.0,0.0,-2.0702,-2.0861,-2.1115,-2.1393,-2.1417,-2.1609,-2.187,-2.187,0.0,0.0,0.0,0.0,0.0,0.0,0.0,0.0,0.0,0.0,0.0,0.0,0.0,-2.5929,-2.6692,-2.7126,-2.7814,-3.0178,0.0,-3.085,-3.3997,-3.5063,-3.5647,-3.7336,-3.6627,-3.5518,-3.5732,-3.331,-3.0259,-2.7519,-2.506,0.0,0.0,0.0,0.0,0.0,0.0,0.0,-3.3435,-3.3703,-3.4379,0.0,-3.5763,0.0,-3.7047,-3.715,-3.693,0.0,-3.6405,-3.6405,-3.6405,-3.6405,-3.6405,-3.6405,-3.6405,-3.6405,-3.6405,-3.6405,-3.6405,-3.6405,-3.6405,-3.6405,-3.6405,-3.6405,-3.6405,-3.6405,-3.6405,-3.6405,-3.6405,-3.6405,-3.6405,-3.6405,-3.6405,-3.6405,-3.6405,-3.6405,-3.6405,-3.6405,0.0,0.0,0.0,0.0,0.0,0.0,0.0,0.0,0.0,0.0,0.0,0.0,0.0,0.0,0.0,0.0,0.0,0.0,0.0,0.0,0.0,0.0,0.0,0.0,0.0,0.0,0.0,0.0,0.0,0.0,0.0,0.0,0.0,0.0,0.0,0.0,0.0,0.0,0.0,0.0,0.0,0.0,0.0,0.0,0.0,0.0,0.0,0.0,0.0,0.0,-2.7769,-2.8757,-2.8936,-2.9445,-3.0328,-3.2123,-3.2333,-3.2407,-3.402,-3.5977,-3.7501,-3.7237,-3.7026,-3.6387,-3.452,-3.1776,-2.8426,-2.4283,0.0,-2.1766,-2.3302,0.0,-2.4765,-3.0694,0.0,-3.2688,-3.4886,-3.4927,-3.5546,-3.7621,-3.7169,-3.712,-3.8108,-3.8294,-3.7939,-3.6943,-3.6849,-3.6722,-3.6405,-3.6534,-3.6628,-3.6628,-3.6628,-3.6534,-3.6405,-3.6405,-3.6499,-3.6628,-3.6628,-3.6722,-3.6849,-3.6849,-3.6849,-3.6849,-3.6849,-3.6849,-3.6849,-3.6675,-3.6628,-3.6628,-3.6452,-3.6405,-3.6405,-3.6405,-3.6405,-3.6405,0.0,0.0,0.0,0.0,0.0,0.0,0.0,0.0,0.0,0.0,0.0,0.0,0.0,0.0,0.0,0.0,0.0,0.0,0.0,0.0,0.0,0.0,0.0,0.0,0.0,0.0,0.0,0.0,0.0,0.0,0.0,0.0,0.0,0.0,0.0,0.0,0.0,0.0,0.0,0.0,0.0,0.0,0.0,0.0,0.0,0.0,0.0,0.0,0.0,0.0,-2.922,-2.9609,-3.0658,-3.1451,-3.2183,-3.3066,-3.4038,-3.5113,-3.6439,-3.751,-3.8207,-3.8171,-3.7714,-3.638,-3.2826,-2.992,0.0,0.0,0.0,-1.9975,-2.2423,-2.3199,0.0,-2.9646,0.0,0.0,0.0,0.0,-3.5713,0.0,0.0,0.0,0.0,0.0,0.0,0.0,-3.9285,-3.8437,-3.6499,-3.7276,-3.7802,-3.7802,-3.7802,-3.7368,-3.6405,-3.6405,-3.6896,-3.7802,-3.7802,-3.8347,-3.9285,-3.9285,-3.9285,-3.9285,-3.9285,-3.9285,-3.9241,-3.8211,-3.7802,-3.7723,-3.6756,-3.6405,-3.6405,-3.6405,-3.6405,-3.6405,0.0,0.0,0.0,0.0,0.0,0.0,0.0,0.0,0.0,0.0,0.0,0.0,0.0,0.0,0.0,0.0,0.0,0.0,0.0,0.0,0.0,0.0,0.0,0.0,0.0,0.0,0.0,0.0,0.0,0.0,0.0,0.0,0.0,0.0,0.0,0.0,0.0,0.0,0.0,0.0,0.0,0.0,0.0,0.0,0.0,0.0,0.0,0.0,0.0,0.0,-2.7679,-2.8918,-3.0868,-3.1959,-3.2482,-3.2482,-3.3664,-3.5175,-3.6148,-3.6896,-3.7554,-3.8227,-3.7659,-3.5714,-3.1061,0.0,0.0,0.0,0.0,-1.821,-2.1565,0.0,0.0,0.0,0.0,0.0,0.0,0.0,0.0,0.0,0.0,0.0,0.0,0.0,0.0,0.0,-3.9899,-3.9417,-3.827,-3.8738,-3.905,-3.905,-3.905,-3.8783,-3.8225,-3.8225,-3.8482,-3.905,-3.905,-3.9316,-3.9899,-3.9899,-3.9899,-3.9899,-3.9899,-3.9899,-3.9855,-3.9271,-3.905,-3.8961,-3.8437,-3.8225,-3.8225,-3.8225,-3.8225,-3.8225,0.0,0.0,0.0,0.0,0.0,0.0,0.0,0.0,0.0,0.0,0.0,0.0,0.0,0.0,0.0,0.0,0.0,0.0,0.0,0.0,0.0,0.0,0.0,0.0,0.0,0.0,0.0,0.0,0.0,0.0,0.0,0.0,0.0,0.0,0.0,0.0,0.0,0.0,0.0,0.0,0.0,0.0,0.0,0.0,0.0,0.0,0.0,0.0,0.0,0.0,-2.563,-2.754,-2.9582,-3.0883,-3.16,-3.1361,-3.2721,-3.4442,-3.528,-3.6088,-3.6896,-3.7764,-3.712,-3.4816,-2.9235,-2.6632,0.0,0.0,-1.6503,-1.6952,-2.0782,0.0,0.0,0.0,0.0,0.0,0.0,0.0,0.0,0.0,0.0,0.0,0.0,0.0,0.0,0.0,-4.0632,-4.0504,-4.0275,-4.0275,-4.0275,-4.0275,-4.0275,-4.0159,-3.9899,-3.9899,-4.0029,-4.0275,-4.0275,-4.0375,-4.0632,-4.0632,-4.0632,-4.0632,-4.0632,-4.0632,-4.0632,-4.0361,-4.0275,-4.0232,-3.9986,-3.9899,-3.9899,-3.9899,-3.9899,-3.9899,0.0,0.0,0.0,0.0,0.0,0.0,0.0,0.0,0.0,0.0,0.0,0.0,0.0,0.0,0.0,0.0,0.0,0.0,0.0,0.0,0.0,0.0,0.0,0.0,0.0,0.0,0.0,0.0,0.0,0.0,0.0,0.0,0.0,0.0,0.0,0.0,0.0,0.0,0.0,0.0,0.0,0.0,0.0,0.0,0.0,0.0,0.0,0.0,0.0,0.0,0.0,-2.5839,-2.6078,-2.7455,-2.9175,-3.0268,0.0,0.0,-3.516,-3.6402,-3.721,-3.6776,-3.6133,-3.3888,-2.7365,0.0,0.0,-1.7177,-1.5888,-1.6817,-2.0165,-1.9809,0.0,0.0,0.0,0.0,0.0,0.0,0.0,0.0,0.0,0.0,0.0,0.0,0.0,0.0,-4.2996,-4.2548,-4.1504,-4.142,-4.142,-4.142,-4.142,-4.0958,-3.9899,-3.9899,-4.0404,-4.142,-4.142,-4.1988,-4.2996,-4.2996,-4.2996,-4.2996,-4.2996,-4.2996,-4.29,-4.185,-4.142,-4.1337,-4.0318,-3.9899,-3.9899,-3.9899,-3.9899,-3.9899,0.0,0.0,0.0,0.0,0.0,0.0,0.0,0.0,0.0,0.0,0.0,0.0,0.0,0.0,0.0,0.0,0.0,0.0,0.0,0.0,0.0,0.0,0.0,0.0,0.0,0.0,0.0,0.0,0.0,0.0,0.0,0.0,0.0,0.0,0.0,0.0,0.0,0.0,0.0,0.0,0.0,0.0,0.0,0.0,0.0,0.0,0.0,0.0,0.0,0.0,0.0,0.0,-2.2787,-2.349,0.0,0.0,-2.9265,-3.133,-3.2243,-3.3739,-3.5085,-3.5267,-3.4786,-3.2662,-2.6413,0.0,0.0,-1.7012,-1.5799,-1.6308,-1.7966,-1.8192,-1.9044,0.0,0.0,0.0,0.0,0.0,0.0,0.0,0.0,0.0,0.0,0.0,0.0,0.0,-4.329,-4.3115,-4.2644,-4.2629,-4.2629,-4.2629,-4.2629,-4.2426,-4.1961,-4.1961,-4.2167,-4.2629,-4.2629,-4.286,-4.329,-4.329,-4.329,-4.329,-4.329,-4.329,-4.325,-4.2805,-4.2629,-4.2589,-4.2126,-4.1961,-4.1961,-4.1961,-4.1961,-4.1961,0.0,0.0,0.0,0.0,0.0,0.0,0.0,0.0,0.0,0.0,0.0,0.0,0.0,0.0,0.0,0.0,0.0,0.0,0.0,0.0,0.0,0.0,0.0,0.0,0.0,0.0,0.0,0.0,0.0,0.0,0.0,0.0,0.0,0.0,0.0,0.0,0.0,0.0,0.0,0.0,0.0,0.0,0.0,0.0,0.0,0.0,0.0,0.0,0.0,0.0,0.0,0.0,0.0,0.0,0.0,0.0,-2.6632,-2.8667,-2.9894,-3.1539,-3.3125,-3.3978,-3.326,-3.0986,0.0,0.0,-2.1989,-1.6863,-1.5799,-1.5919,-1.6368,-1.713,-1.8012,-1.8957,0.0,-2.3999,0.0,0.0,0.0,0.0,0.0,0.0,0.0,0.0,0.0,-4.326,-4.329,-4.329,-4.329,-4.329,-4.329,-4.329,-4.329,-4.329,-4.329,-4.329,-4.329,-4.329,-4.329,-4.329,-4.329,-4.329,-4.329,-4.329,-4.329,-4.329,-4.329,-4.329,-4.329,-4.329,-4.329,-4.329,-4.329,-4.329,-4.329,-4.329,0.0,0.0,0.0,0.0,0.0,0.0,0.0,0.0,0.0,0.0,0.0,0.0,0.0,0.0,0.0,0.0,0.0,0.0,0.0,0.0,0.0,0.0,0.0,0.0,0.0,0.0,0.0,0.0,0.0,0.0,0.0,0.0,0.0,0.0,0.0,0.0,0.0,0.0,0.0,0.0,0.0,0.0,0.0,0.0,0.0,0.0,0.0,0.0,0.0,0.0,0.0,0.0,0.0,0.0,0.0,0.0,-2.4582,-2.6228,-2.8903,-3.0552,-3.1839,-3.3185,-3.1554,-2.8742,0.0,0.0,-1.9809,-1.6473,-1.5799,-1.5799,-1.5814,-1.6847,-1.7713,-1.7728,-1.9418,0.0,0.0,0.0,0.0,0.0,0.0,0.0,0.0,0.0,0.0,-4.329,-4.329,0.0,-4.329,-4.329,-4.329,-4.329,-4.329,-4.329,-4.329,-4.329,-4.329,-4.329,-4.329,-4.329,-4.329,-4.329,-4.329,-4.329,-4.329,-4.329,-4.329,-4.329,-4.329,-4.329,-4.329,-4.329,-4.329,-4.329,-4.329,-4.329,0.0,0.0,0.0,0.0,0.0,0.0,0.0,0.0,0.0,0.0,0.0,0.0,0.0,0.0,0.0,0.0,0.0,0.0,0.0,0.0,0.0,0.0,0.0,0.0,0.0,0.0,0.0,0.0,0.0,0.0,0.0,0.0,0.0,0.0,0.0,0.0,0.0,0.0,0.0,0.0,0.0,0.0,0.0,0.0,0.0,0.0,0.0,0.0,0.0,0.0,0.0,0.0,0.0,0.0,0.0,-2.0401,0.0,0.0,-2.465,-2.5809,-2.6787,-2.6752,-2.6467,-2.5307,-2.2009,-2.0976,-1.9779,-1.6488,-1.5799,-1.5799,-1.5799,-1.6473,-1.7309,-1.8237,-1.9301,0.0,0.0,0.0,0.0,0.0,0.0,0.0,0.0,0.0,-4.329,-4.329,-4.329,-4.329,-4.329,-4.329,-4.329,-4.329,-4.329,-4.329,-4.329,-4.329,-4.329,-4.329,-4.329,-4.329,-4.329,-4.329,-4.329,-4.329,-4.329,-4.329,-4.329,-4.329,-4.329,-4.329,-4.329,-4.329,-4.329,-4.329,-4.329,-4.329,0.0,0.0,0.0,0.0,0.0,0.0,0.0,0.0,0.0,0.0,0.0,0.0,0.0,0.0,0.0,0.0,0.0,0.0,0.0,0.0,0.0,0.0,0.0,0.0,0.0,0.0,0.0,0.0,0.0,0.0,0.0,0.0,0.0,0.0,0.0,0.0,0.0,0.0,0.0,0.0,0.0,0.0,-2.1181,0.0,0.0,0.0,0.0,0.0,0.0,0.0,0.0,0.0,0.0,0.0,0.0,0.0,-2.0476,0.0,0.0,-2.2712,-2.3513,-2.358,-2.3349,0.0,0.0,-1.945,-1.8551,-1.6263,-1.5799,-1.5799,-1.5799,-1.6278,-1.7055,-1.8147,-1.9091,0.0,0.0,0.0,0.0,0.0,0.0,0.0,0.0,0.0,-4.329,-4.329,-4.329,-4.329,-4.329,-4.329,-4.329,-4.329,-4.329,-4.329,-4.329,-4.329,-4.329,-4.329,-4.329,-4.329,-4.329,-4.329,-4.329,-4.329,-4.329,-4.329,0.0,-4.329,-4.329,-4.329,-4.329,-4.329,-4.329,-4.329,-4.329,-4.329,0.0,0.0,0.0,0.0,0.0,0.0,0.0,0.0,0.0,0.0,0.0,0.0,0.0,0.0,0.0,0.0,0.0,0.0,0.0,0.0,0.0,0.0,0.0,0.0,0.0,0.0,0.0,-1.5977,-1.6488,-1.6787,-1.6907,0.0,0.0,0.0,0.0,0.0,0.0,-1.7785,-1.9157,-2.0465,-2.081,-2.1242,0.0,0.0,0.0,0.0,0.0,0.0,0.0,0.0,0.0,0.0,0.0,0.0,0.0,0.0,0.0,0.0,0.0,0.0,0.0,0.0,0.0,0.0,0.0,-1.8012,0.0,-1.5919,-1.5799,-1.5814,-1.5858,-1.6278,-1.6906,-1.7697,0.0,0.0,0.0,0.0,0.0,0.0,0.0,0.0,0.0,-4.1474,-4.329,-4.329,-4.329,-4.329,-4.329,-4.329,-4.329,-4.329,-4.329,-4.329,-4.329,-4.329,-4.329,-4.329,-4.329,-4.329,-4.329,-4.329,-4.329,-4.329,-4.329,-4.329,-4.329,-4.329,-4.329,-4.329,-4.329,-4.329,-4.329,-4.329,-4.329,-4.329,0.0,0.0,0.0,0.0,0.0,0.0,0.0,0.0,0.0,0.0,0.0,0.0,0.0,0.0,0.0,0.0,0.0,0.0,0.0,0.0,0.0,0.0,0.0,0.0,0.0,0.0,0.0,-1.7791,-1.7361,-1.7715,-1.8731,-1.7513,0.0,0.0,0.0,-1.6495,-1.6736,-1.7579,-1.8651,-1.9794,-2.0375,-2.1222,0.0,0.0,0.0,0.0,-1.9848,-1.9194,0.0,0.0,0.0,0.0,0.0,0.0,0.0,0.0,-1.8476,-1.8049,-1.7497,0.0,-1.7848,-1.7671,-1.764,0.0,0.0,0.0,0.0,0.0,0.0,0.0,0.0,0.0,0.0,0.0,0.0,0.0,0.0,0.0,0.0,0.0,0.0,0.0,0.0,-4.2282,-4.329,-4.329,-4.329,-4.329,-4.329,-4.329,-4.329,-4.329,-4.329,-4.329,-4.329,-4.329,-4.329,-4.329,-4.329,-4.329,-4.329,-4.329,-4.329,-4.329,-4.329,-4.329,-4.329,-4.329,-4.329,-4.329,-4.329,-4.329,-4.329,-4.329,-4.329,-4.329,0.0,0.0,0.0,0.0,0.0,0.0,0.0,0.0,0.0,0.0,0.0,0.0,0.0,0.0,0.0,0.0,0.0,0.0,0.0,0.0,0.0,0.0,0.0,0.0,0.0,0.0,0.0,0.0,0.0,-1.7544,0.0,0.0,0.0,0.0,0.0,-1.6863,-1.7075,-1.7776,-1.8733,-1.9803,-2.0541,0.0,0.0,0.0,0.0,0.0,-1.9528,-1.8842,0.0,-1.7718,-1.7526,-1.7592,0.0,0.0,0.0,0.0,-1.7864,-1.7449,-1.6908,-1.7001,-1.7085,-1.6383,-1.6741,-1.7069,0.0,0.0,0.0,0.0,0.0,0.0,0.0,0.0,0.0,0.0,0.0,0.0,0.0,0.0,0.0,0.0,0.0,0.0,0.0,-4.2566,-4.329,-4.329,-4.329,-4.329,-4.329,-4.329,-4.329,-4.329,-4.329,-4.329,-4.329,-4.329,-4.329,-4.329,-4.329,-4.329,-4.329,-4.329,-4.329,-4.329,-4.329,-4.329,-4.329,-4.329,-4.329,-4.329,-4.329,-4.329,-4.329,-4.329,-4.329,-4.329,0.0,0.0,0.0,0.0,0.0,0.0,0.0,0.0,0.0,0.0,0.0,0.0,0.0,0.0,0.0,0.0,0.0,0.0,0.0,0.0,0.0,0.0,0.0,0.0,0.0,0.0,0.0,0.0,0.0,0.0,0.0,0.0,-1.7668,0.0,0.0,-1.738,-1.7429,-1.8029,-1.8956,-2.0052,-2.0737,0.0,0.0,0.0,0.0,0.0,0.0,0.0,0.0,-1.78,-1.78,-1.7783,-1.7665,0.0,0.0,0.0,0.0,0.0,-1.7419,-1.7849,-1.7976,-1.6967,-1.7315,-1.767,0.0,0.0,0.0,0.0,0.0,0.0,0.0,0.0,0.0,0.0,0.0,0.0,0.0,0.0,0.0,0.0,0.0,0.0,-4.1422,-4.2566,-4.329,-4.329,-4.329,-4.329,-4.329,-4.329,-4.329,-4.329,-4.329,-4.329,-4.329,-4.329,-4.329,-4.329,-4.329,-4.329,-4.329,-4.329,-4.329,-4.329,-4.329,-4.329,-4.329,-4.329,-4.329,-4.329,-4.329,-4.329,-4.329,-4.329,-4.329,-4.329,0.0,0.0,0.0,0.0,0.0,0.0,0.0,0.0,0.0,0.0,0.0,0.0,0.0,0.0,0.0,0.0,0.0,0.0,0.0,0.0,0.0,0.0,0.0,0.0,0.0,0.0,0.0,0.0,0.0,0.0,-1.8212,-1.7352,-1.71,-1.74,-1.7611,-1.7715,-1.7732,-1.7833,-1.8699,-2.0002,-2.012,0.0,0.0,0.0,0.0,0.0,0.0,0.0,0.0,-1.78,-1.78,-1.7681,-1.7077,0.0,0.0,0.0,0.0,0.0,-1.7963,-1.8942,-1.9205,-1.7263,-1.734,-1.7625,-1.6608,0.0,0.0,0.0,0.0,0.0,0.0,0.0,0.0,0.0,0.0,0.0,0.0,0.0,0.0,0.0,0.0,-4.1422,-4.1422,-4.2566,-4.329,-4.329,-4.329,-4.329,-4.329,-4.329,-4.329,-4.329,-4.329,-4.329,-4.329,-4.329,-4.329,-4.329,-4.329,-4.329,-4.329,-4.329,-4.329,-4.329,-4.329,-4.329,-4.329,-4.329,-4.329,-4.329,-4.329,-4.329,-4.329,-4.329,-4.329,-4.3215,0.0,0.0,0.0,0.0,0.0,0.0,0.0,0.0,0.0,0.0,0.0,0.0,0.0,0.0,0.0,0.0,0.0,0.0,0.0,0.0,0.0,0.0,0.0,0.0,0.0,0.0,0.0,0.0,0.0,-1.7645,-1.779,-1.7297,-1.7248,-1.7572,-1.7726,-1.78,-1.7834,-1.8234,-1.9017,-2.0002,0.0,0.0,0.0,0.0,0.0,0.0,0.0,0.0,0.0,0.0,-1.78,-1.7597,-1.6458,0.0,0.0,0.0,0.0,0.0,-1.7713,-1.8723,-1.9462,-1.9714,-1.9534,-1.9121,-1.8446,0.0,0.0,0.0,0.0,0.0,0.0,0.0,0.0,0.0,0.0,0.0,0.0,0.0,0.0,0.0,0.0,-4.0995,-4.1339,-4.2252,-4.2955,-4.3275,-4.329,-4.329,-4.329,-4.329,-4.329,-4.329,-4.329,-4.329,-4.329,-4.329,-4.329,-4.329,-4.329,-4.329,-4.329,-4.329,-4.329,-4.329,-4.329,-4.329,-4.329,-4.329,-4.329,-4.329,-4.329,-4.329,-4.3245,-4.294,-4.2806,-4.2656,0.0,0.0,0.0,0.0,0.0,0.0,0.0,0.0,0.0,0.0,0.0,0.0,0.0,0.0,0.0,0.0,0.0,0.0,0.0,0.0,0.0,0.0,0.0,0.0,0.0,0.0,-1.7633,-1.8065,-1.7884,-1.767,-1.7415,-1.7415,-1.7549,0.0,-1.7969,-1.8065,-1.8104,-1.8843,-1.9473,-2.0002,0.0,0.0,0.0,0.0,0.0,0.0,0.0,0.0,0.0,0.0,0.0,0.0,0.0,0.0,0.0,-1.5595,-1.5714,-1.617,-1.7659,-1.8471,-1.935,-2.1282,-2.1463,-2.1242,-2.1419,0.0,0.0,0.0,0.0,0.0,0.0,0.0,0.0,0.0,0.0,0.0,0.0,0.0,-3.9388,-3.9388,-3.9993,-4.0591,-4.11,-4.1916,-4.2605,-4.306,-4.32,-4.329,-4.329,-4.329,-4.329,-4.329,-4.329,-4.329,-4.329,-4.329,-4.329,-4.329,-4.329,-4.329,-4.329,-4.329,-4.329,-4.329,-4.329,-4.329,-4.329,-4.329,-4.329,-4.329,-4.329,-4.32,-4.303,-4.241,-4.2066,-4.1796,0.0,0.0,0.0,0.0,0.0,0.0,0.0,0.0,0.0,0.0,0.0,0.0,0.0,0.0,0.0,0.0,0.0,0.0,0.0,0.0,0.0,0.0,0.0,0.0,0.0,-1.8503,-1.8109,-1.8826,-1.8149,-1.7789,-1.7749,-1.7749,-1.7789,-1.7834,-1.8521,-1.8826,-1.886,-1.9608,-1.9951,-2.0002,-2.0002,0.0,0.0,0.0,0.0,0.0,0.0,0.0,0.0,0.0,0.0,0.0,0.0,0.0,-1.5595,-1.5595,-1.6079,-1.6942,-1.8432,-1.886,-1.9096,-1.9963,-2.1691,0.0,-2.5362,-2.569,0.0,0.0,0.0,0.0,0.0,0.0,0.0,0.0,0.0,0.0,0.0,0.0,-3.9388,-3.9388,-3.9993,-4.0427,-4.0472,-4.1647,-4.2425,-4.247,-4.2985,-4.329,-4.329,-4.329,-4.329,-4.329,-4.329,-4.329,-4.329,-4.329,-4.329,-4.329,-4.329,-4.329,-4.329,-4.329,-4.329,-4.329,-4.329,-4.329,-4.329,-4.329,-4.329,-4.329,-4.329,-4.297,-4.2396,-4.1737,-4.107,-4.0531,0.0,0.0,0.0,0.0,0.0,0.0,0.0,0.0,0.0,0.0,0.0,0.0,0.0,0.0,0.0,0.0,0.0,0.0,0.0,0.0,0.0,0.0,0.0,-1.856,-1.9287,-1.8775,-1.8403,-1.8217,-1.7946,-1.78,-1.78,-1.78,0.0,0.0,-1.8775,-1.9147,-1.9608,-1.9879,-2.0002,-1.9951,-1.949,-1.9147,0.0,0.0,0.0,0.0,0.0,0.0,0.0,0.0,-1.6925,-1.6485,-1.5291,-1.524,-1.5595,-1.5595,-1.6113,-1.6908,-1.7946,-1.9587,-2.1532,-2.3646,0.0,0.0,0.0,0.0,0.0,0.0,0.0,0.0,0.0,0.0,0.0,0.0,0.0,0.0,0.0,-3.926,-3.9388,-3.9388,-3.9634,-3.9948,-4.0367,-4.0846,-4.1347,-4.1767,-4.2396,-4.2731,-4.2731,-4.312,-4.329,-4.329,-4.329,-4.329,-4.329,-4.329,-4.3135,-4.2731,-4.3135,-4.329,-4.329,-4.291,-4.2731,-4.2701,-4.2297,-4.2117,-4.2117,-4.2117,-4.2117,-4.2117,-4.2117,-4.1968,-4.1707,-4.101,-4.0606,-4.0337,0.0,0.0,0.0,0.0,0.0,0.0,0.0,0.0,0.0,0.0,0.0,0.0,0.0,0.0,0.0,0.0,0.0,0.0,0.0,0.0,0.0,0.0,0.0,-1.8268,-1.8555,-1.8775,-1.8538,-1.78,-1.78,-1.7918,-1.8149,0.0,0.0,0.0,0.0,0.0,0.0,-2.0369,-2.0234,-1.9934,-1.9198,-1.8758,0.0,0.0,0.0,0.0,0.0,0.0,0.0,0.0,-1.6384,-1.5842,0.0,-1.502,-1.5595,-1.5595,-1.6451,-1.7501,-1.8014,-2.0348,-2.3139,0.0,0.0,0.0,0.0,0.0,0.0,0.0,0.0,0.0,0.0,0.0,0.0,0.0,0.0,-3.9815,-4.0163,-3.999,-3.9793,-3.9793,-4.006,-4.0278,-4.0465,-4.0671,-4.0988,-4.1442,-4.2108,-4.247,-4.247,-4.3145,-4.3373,-4.3113,-4.3098,-4.2973,-4.2716,-4.2716,-4.2491,-4.2096,-4.2506,-4.2716,-4.2701,-4.2252,-4.2096,-4.2066,-4.1617,-4.1422,-4.1422,-4.1422,-4.1422,-4.1392,-4.1145,-4.107,-4.0995,-4.0337,-4.0083,-4.0023,0.0,0.0,0.0,0.0,0.0,0.0,0.0,0.0,0.0,0.0,0.0,0.0,0.0,0.0,0.0,0.0,0.0,0.0,0.0,0.0,0.0,0.0,0.0,-1.8555,-1.7817,-1.8521,-1.8538,-1.78,-1.78,-1.8172,-1.8894,-1.8922,0.0,0.0,0.0,0.0,0.0,-2.119,-2.072,-1.993,-1.9198,-1.8454,-1.78,0.0,0.0,0.0,0.0,0.0,0.0,0.0,-1.5697,-1.4504,-1.4504,0.0,-1.5595,-1.5612,-1.7185,-1.8927,-1.8927,-2.1173,0.0,0.0,0.0,0.0,0.0,0.0,0.0,0.0,0.0,0.0,-3.6847,0.0,0.0,-3.8854,-3.9322,-4.0264,-4.1805,-4.1247,-4.0709,-4.0709,-4.1478,-4.1674,-4.0792,-4.1326,-4.1693,-4.1693,-4.2328,-4.2715,-4.2715,-4.3513,-4.3598,-4.2731,-4.2695,-4.2276,-4.1422,-4.1422,-4.1422,-4.1407,-4.1407,-4.1369,-4.1422,-4.1407,-4.1407,-4.1407,-4.1369,-4.1392,-4.1392,-4.1392,-4.1392,-4.1294,-4.0651,-4.0382,-4.0307,-3.9627,-3.9388,-3.9388,0.0,0.0,0.0,0.0,0.0,0.0,0.0,0.0,0.0,0.0,0.0,0.0,0.0,0.0,0.0,0.0,0.0,0.0,0.0,0.0,0.0,0.0,0.0,0.0,0.0,0.0,-1.802,-1.78,-1.8318,-1.8691,0.0,0.0,0.0,-2.0839,0.0,0.0,0.0,0.0,-1.9913,-1.9164,-1.8408,-1.8003,-1.78,0.0,0.0,0.0,0.0,0.0,0.0,0.0,0.0,0.0,-1.4504,0.0,-1.5697,-1.6214,-1.8707,-2.1282,-2.1282,-2.5017,0.0,0.0,0.0,0.0,0.0,0.0,0.0,0.0,0.0,0.0,-3.8556,0.0,0.0,-4.1309,-4.1771,-4.2184,-4.2029,-4.1772,-4.1593,-4.1593,-4.1836,-4.1901,-4.1642,-4.1799,-4.1926,-4.1926,-4.2542,-4.2889,-4.2889,-4.3035,-4.2965,-4.2695,-4.2108,-4.1656,-4.1422,-4.1422,-4.1145,-4.0696,-4.0696,-4.0935,-4.1369,-4.0905,-4.0696,-4.0666,-4.0202,-3.9993,-3.9993,-3.9993,-3.9993,-3.9978,-3.9783,-3.9709,-3.9694,-3.9448,-3.9388,-3.9388,0.0,0.0,0.0,0.0,0.0,0.0,0.0,0.0,0.0,0.0,0.0,0.0,0.0,0.0,0.0,0.0,0.0,0.0,0.0,0.0,0.0,0.0,0.0,0.0,0.0,-1.8087,-1.8251,0.0,0.0,0.0,0.0,0.0,0.0,-2.1634,0.0,-2.1478,0.0,0.0,-1.9575,-1.8838,-1.8099,-1.78,-1.78,0.0,0.0,0.0,0.0,0.0,0.0,0.0,0.0,0.0,0.0,0.0,0.0,-1.6925,-1.9807,-2.2801,-2.3088,0.0,0.0,0.0,0.0,0.0,0.0,0.0,0.0,0.0,0.0,0.0,-4.0409,-4.2016,0.0,-4.3184,-4.3234,-4.3246,-4.3061,-4.2738,-4.252,-4.252,-4.2831,-4.2909,-4.2552,-4.252,-4.252,-4.252,-4.2877,-4.312,-4.312,-4.3331,-4.331,-4.2944,-4.2451,-4.184,-4.1134,-4.1119,-4.077,-4.0008,-4.0008,-4.0217,-4.0591,-4.0187,-4.0008,-3.9993,-3.9589,-3.9388,-3.9388,-3.9388,-3.9388,-3.9388,-3.9388,-3.9388,-3.9388,-3.9388,-3.9388,-3.9388,0.0,0.0,0.0,0.0,0.0,0.0,0.0,0.0,0.0,0.0,0.0,0.0,0.0,0.0,0.0,0.0,0.0,0.0,0.0,0.0,0.0,0.0,0.0,0.0,0.0,0.0,0.0,0.0,0.0,0.0,0.0,0.0,-2.1651,-2.2296,0.0,-2.1786,0.0,0.0,-1.9473,-1.8741,-1.807,-1.7749,-1.7698,-1.7766,0.0,0.0,0.0,0.0,0.0,0.0,0.0,0.0,-1.4673,-1.5612,-1.6841,-1.7591,-2.0467,-2.3579,0.0,0.0,0.0,0.0,0.0,0.0,0.0,0.0,0.0,0.0,0.0,0.0,-4.1999,-4.2878,-4.3758,-4.4496,-4.3948,-4.3697,-4.4485,-4.3919,-4.3413,-4.3413,-4.4121,-4.4281,-4.3502,-4.3413,-4.3413,-4.3413,-4.3413,-4.3413,-4.3413,-4.4093,-4.4121,-4.3336,-4.3216,-4.2426,-4.0844,-4.0826,-4.0413,-3.9646,-3.9538,-3.9517,-3.9517,-3.946,-3.9388,-3.9388,-3.9388,-3.9388,-3.9388,-3.9388,-3.9388,-3.9388,-3.9388,-3.9388,-3.9388,-3.9388,-3.9388,-3.9388,0.0,0.0,0.0,0.0,0.0,0.0,0.0,0.0,0.0,0.0,0.0,0.0,0.0,0.0,0.0,0.0,0.0,0.0,0.0,0.0,0.0,0.0,0.0,0.0,0.0,0.0,0.0,0.0,0.0,0.0,0.0,0.0,0.0,-2.2262,0.0,-2.0991,0.0,-1.9469,-1.8707,-1.802,-1.785,-1.7456,-1.6993,-1.7591,-1.7337,0.0,0.0,0.0,0.0,0.0,0.0,0.0,-1.6045,-1.6434,-1.6841,-1.7591,-2.0467,-2.3799,0.0,0.0,0.0,0.0,0.0,0.0,0.0,0.0,0.0,0.0,0.0,0.0,-4.0773,-4.2651,-4.4412,-4.4581,-4.444,-4.4384,-4.457,-4.4457,-4.4327,-4.4327,-4.4485,-4.4514,-4.4355,-4.4327,-4.4327,-4.4327,-4.4327,-4.4327,-4.4327,-4.3844,-4.3502,-4.3306,-4.2645,-4.2093,-4.1723,-4.1739,-4.1642,-4.1412,-4.0758,-4.0432,-4.0397,-3.9702,-3.9388,-3.9388,-3.9388,-3.9388,-3.9388,-3.9388,-3.9388,-3.9388,-3.9388,-3.9388,-3.9388,-3.9388,-3.9388,-3.9388,0.0,0.0,0.0,0.0,0.0,0.0,0.0,0.0,0.0,0.0,0.0,0.0,0.0,0.0,0.0,0.0,0.0,0.0,0.0,0.0,0.0,0.0,0.0,0.0,0.0,0.0,0.0,0.0,0.0,0.0,0.0,0.0,0.0,-2.2691,0.0,-2.0901,0.0,-1.9883,-1.9213,-1.8523,-1.855,-1.8239,-1.7754,-1.7794,-1.7337,-1.6699,-1.6699,0.0,0.0,0.0,0.0,0.0,0.0,0.0,-1.7371,-1.8115,-2.0483,-2.3511,0.0,0.0,0.0,0.0,0.0,0.0,0.0,0.0,0.0,0.0,0.0,0.0,-4.0764,-4.2489,-4.4028,-4.4028,-4.4361,-4.4615,-4.4615,-4.4615,-4.4615,-4.4615,-4.4615,-4.4615,-4.4615,-4.4615,-4.4615,-4.4615,-4.4615,-4.4615,-4.4615,-4.4167,-4.3902,-4.3902,-4.3486,-4.3031,-4.2614,-4.2614,-4.2426,-4.1997,-4.1543,-4.1313,-4.128,-4.0005,-3.9388,-3.9388,-3.9388,-3.9388,-3.9388,-3.9388,-3.9388,-3.9388,-3.9388,-3.9388,-3.9388,-3.9388,-3.9388,-3.9388,0.0,0.0,0.0,0.0,0.0,0.0,0.0,0.0,0.0,0.0,0.0,0.0,0.0,0.0,0.0,0.0,0.0,0.0,0.0,0.0,0.0,0.0,0.0,0.0,0.0,0.0,0.0,0.0,0.0,0.0,0.0,0.0,0.0,-2.2935,0.0,0.0,0.0,-2.0536,-2.0031,-1.9525,-1.9628,-1.936,-1.8838,-1.8342,-1.7622,-1.6902,-1.6938,-1.6543,-1.5984,-1.5984,0.0,0.0,0.0,0.0,-1.7918,-1.8538,-2.0145,-2.2482,0.0,0.0,0.0,0.0,0.0,0.0,0.0,0.0,0.0,0.0,0.0,-4.1204,-4.1204,-4.232,-4.3189,-4.3189,-4.3876,-4.4384,-4.4384,-4.4513,-4.4615,-4.4615,-4.4615,-4.4615,-4.4615,-4.4615,-4.4615,-4.4615,-4.4615,-4.4615,-4.4615,-4.4615,-4.4615,-4.4615,-4.4615,-4.4253,-4.3532,-4.3532,-4.3169,-4.2442,-4.2284,-4.2157,-4.1965,-4.0516,-3.9844,-3.9844,-3.9844,-3.9844,-3.9844,-3.9681,-3.961,-3.961,-3.9445,-3.9388,-3.9388,-3.9388,-3.9388,-3.9388,0.0,0.0,0.0,0.0,0.0,0.0,0.0,0.0,0.0,0.0,0.0,0.0,0.0,0.0,0.0,0.0,0.0,0.0,-1.8198,0.0,0.0,-1.949,-1.9664,-2.0374,0.0,0.0,0.0,0.0,0.0,0.0,0.0,0.0,0.0,-2.2117,0.0,0.0,0.0,0.0,0.0,-2.0367,-2.0671,-2.0022,-1.8948,-1.9374,-1.8753,-1.7681,-1.7924,-1.7781,-1.7512,-1.7512,-1.7563,0.0,0.0,0.0,-1.7817,-1.7918,-1.8606,0.0,0.0,0.0,0.0,0.0,0.0,0.0,0.0,0.0,0.0,0.0,0.0,-4.1204,-4.1204,-4.188,-4.2439,-4.2439,-4.3081,-4.3572,-4.3572,-4.4147,-4.4615,-4.4615,-4.4615,-4.4615,-4.4615,-4.4615,-4.4615,-4.4615,-4.4615,-4.4615,-4.4615,-4.4615,-4.4615,-4.4615,-4.4615,-4.4542,-4.4412,-4.4412,-4.4384,-4.4253,-4.3486,-4.2724,-4.1997,-4.1772,-4.1642,-4.1642,-4.1642,-4.1642,-4.1576,-4.086,-4.0535,-4.0466,-3.9702,-3.9388,-3.9388,-3.9388,-3.9388,-3.9388,0.0,0.0,0.0,0.0,0.0,0.0,0.0,0.0,0.0,0.0,0.0,0.0,0.0,0.0,0.0,-1.8659,-1.8508,-1.8615,-1.9074,-1.9527,-1.9987,-2.0456,-2.1062,-2.1678,-2.2367,0.0,0.0,0.0,0.0,0.0,0.0,-2.3363,-2.3138,0.0,0.0,0.0,0.0,0.0,0.0,-2.1636,-2.1816,-2.1412,-2.0662,-2.0322,-1.9834,-1.9241,-1.8773,-1.8523,-1.8352,-1.7935,-1.78,-1.78,-1.78,0.0,0.0,0.0,0.0,0.0,0.0,0.0,0.0,0.0,0.0,0.0,0.0,0.0,0.0,0.0,-4.0054,-4.0578,-4.0578,-4.1187,-4.1677,-4.1677,-4.2303,-4.2777,-4.2777,-4.3081,-4.3328,-4.3328,-4.3673,-4.3927,-4.3927,-4.4333,-4.4615,-4.4615,-4.4615,-4.4615,-4.4615,-4.4615,-4.4615,-4.4615,-4.4615,-4.4615,-4.4615,-4.4615,-4.4615,-4.4615,-4.4196,-4.3844,-4.3456,-4.3456,-4.2923,-4.1997,-4.1997,-4.1997,-4.1933,-4.1046,-4.069,-4.0622,-3.9737,-3.9388,-3.9388,-3.9388,-3.9388,-3.9388,0.0,0.0,0.0,0.0,0.0,0.0,0.0,0.0,0.0,0.0,0.0,0.0,0.0,0.0,0.0,0.0,-1.9317,-1.9473,-1.9885,-2.0458,-2.0908,-2.1193,-2.2172,-2.2805,-2.2996,0.0,0.0,0.0,0.0,0.0,-2.4171,-2.3373,-2.3428,0.0,-2.2891,0.0,0.0,0.0,0.0,0.0,0.0,0.0,0.0,-2.1445,-2.1042,-2.079,-1.9877,-1.9499,-1.9327,-1.855,-1.831,-1.8275,-1.8065,-1.8134,0.0,0.0,0.0,0.0,0.0,0.0,0.0,0.0,0.0,0.0,0.0,0.0,0.0,0.0,-3.9292,-3.9825,-3.9825,-4.0409,-4.0916,-4.0916,-4.1542,-4.2016,-4.2016,-4.2168,-4.2286,-4.2286,-4.2794,-4.3132,-4.3132,-4.3656,-4.4107,-4.4265,-4.4282,-4.4395,-4.4598,-4.4615,-4.4615,-4.4615,-4.4615,-4.4615,-4.4615,-4.4615,-4.4615,-4.4615,-4.4615,-4.4615,-4.4615,-4.4615,-4.3902,-4.2676,-4.2676,-4.2676,-4.2583,-4.1462,-4.1046,-4.0912,-3.9829,-3.9388,-3.9388,-3.9388,-3.9388,-3.9388,0.0,0.0,0.0,0.0,0.0,0.0,0.0,0.0,0.0,0.0,0.0,0.0,-1.901,-1.9668,-2.0129,-2.0138,-2.0815,-2.0942,-2.0237,-2.0219,-2.0699,-2.1723,-2.2529,0.0,-2.4107,-2.4171,0.0,0.0,0.0,0.0,-2.4171,-2.3373,-2.3428,-2.4153,-2.3336,-2.2969,-2.3006,0.0,0.0,0.0,0.0,0.0,0.0,0.0,0.0,0.0,0.0,-2.1109,-2.0773,-1.997,-1.9694,-1.956,-1.8796,0.0,0.0,0.0,0.0,0.0,0.0,0.0,0.0,0.0,0.0,0.0,0.0,0.0,0.0,0.0,-3.8531,-3.9056,-3.9056,-3.9673,-4.0163,-4.0163,-4.0781,-4.1271,-4.1271,-4.1863,-4.2286,-4.2286,-4.232,-4.2354,-4.2354,-4.2388,-4.2709,-4.3392,-4.3443,-4.3809,-4.4564,-4.4615,-4.4615,-4.4615,-4.4615,-4.4615,-4.4615,-4.4615,-4.4615,-4.4615,-4.4615,-4.4615,-4.4615,-4.4615,-4.4542,-4.4468,-4.4468,-4.4468,-4.431,-4.2645,-4.1933,-4.1772,-4.006,-3.9388,-3.9388,-3.9388,-3.9388,-3.9388,0.0,0.0,0.0,0.0,0.0,0.0,0.0,0.0,0.0,0.0,0.0,0.0,0.0,-2.0721,-2.0995,-2.0439,-2.0658,-2.0695,-2.0421,-2.0922,-2.1404,-2.1776,-2.2575,-2.2887,-2.2657,-2.3162,0.0,0.0,0.0,-2.1813,-2.341,-2.2611,-2.2923,-2.4208,-2.4438,-2.4245,-2.3768,-2.3768,0.0,0.0,0.0,0.0,0.0,0.0,0.0,0.0,0.0,0.0,0.0,0.0,0.0,0.0,0.0,0.0,0.0,0.0,0.0,0.0,0.0,0.0,0.0,0.0,0.0,0.0,0.0,0.0,0.0,0.0,-3.6772,-3.8447,-3.8903,-3.9605,-4.0096,-4.0096,-4.0333,-4.0476,-4.0476,-4.0722,-4.0891,-4.0891,-4.1305,-4.1593,-4.1593,-4.2016,-4.2405,-4.2675,-4.2692,-4.2811,-4.3098,-4.3115,-4.3335,-4.3809,-4.3826,-4.4079,-4.4598,-4.4615,-4.4615,-4.4615,-4.4615,-4.4615,-4.4615,-4.4615,-4.4615,-4.4615,-4.4615,-4.4615,-4.4514,-4.332,-4.2847,-4.2724,-4.1511,-4.1062,-4.1062,-4.1062,-4.1062,-4.1062,0.0,0.0,0.0,0.0,0.0,0.0,0.0,0.0,0.0,0.0,0.0,0.0,0.0,0.0,-2.1969,-2.1391,-2.0814,-2.0503,-2.0503,-2.1051,-2.1363,-2.1363,-2.2152,-2.2354,-2.1812,-2.2042,0.0,0.0,0.0,0.0,0.0,-2.2721,-2.3189,-2.4245,-2.5044,-2.4952,0.0,0.0,0.0,-2.4226,0.0,0.0,-2.428,0.0,0.0,0.0,0.0,0.0,0.0,0.0,0.0,0.0,0.0,0.0,0.0,0.0,0.0,0.0,0.0,0.0,0.0,0.0,0.0,0.0,0.0,0.0,0.0,0.0,-3.5436,-3.7686,-3.8159,-3.8853,-3.9512,-4.0028,-4.0096,-4.0096,-4.0096,-4.0096,-4.0096,-4.0096,-4.0527,-4.0832,-4.0832,-4.1255,-4.1644,-4.1914,-4.1931,-4.2033,-4.2286,-4.2286,-4.2523,-4.3031,-4.3257,-4.3673,-4.4181,-4.4479,-4.4615,-4.4615,-4.4615,-4.4615,-4.4615,-4.4615,-4.4615,-4.4615,-4.4615,-4.4615,-4.4542,-4.3651,-4.3306,-4.3199,-4.2332,-4.1997,-4.1997,-4.1997,-4.1997,-4.1997,0.0,0.0,0.0,0.0,0.0,0.0,0.0,0.0,0.0,-2.0548,0.0,0.0,0.0,0.0,0.0,-2.2951,-2.1428,-2.0448,-2.0448,-2.0448,-2.0448,-2.0448,-2.129,-2.1757,-2.1721,-2.096,0.0,0.0,0.0,0.0,0.0,0.0,-2.4171,-2.4226,-2.5026,-2.4934,-2.419,0.0,-2.419,-2.4263,0.0,-2.5007,-2.4649,0.0,0.0,0.0,-3.0662,-3.1525,0.0,-3.0705,0.0,0.0,0.0,0.0,0.0,0.0,0.0,0.0,0.0,0.0,0.0,0.0,0.0,0.0,0.0,0.0,0.0,-3.236,-3.4651,-3.6694,-3.6778,-3.7381,-3.8345,-3.9808,-4.0045,-4.0079,-4.0079,-4.0096,-4.0096,-4.0096,-4.0096,-4.0096,-4.0096,-4.0096,-4.0417,-4.1119,-4.117,-4.1474,-4.2185,-4.2252,-4.2252,-4.2252,-4.2997,-4.3358,-4.3358,-4.4147,-4.4564,-4.4564,-4.4598,-4.4615,-4.4615,-4.4615,-4.4615,-4.4615,-4.4615,-4.4615,-4.4542,-4.368,-4.3336,-4.3246,-4.2426,-4.2093,-4.2093,-4.2093,-4.2093,-4.2093,0.0,0.0,0.0,0.0,0.0,0.0,0.0,0.0,-2.1445,0.0,0.0,0.0,-2.2666,-2.2354,-2.2125,-2.2125,-2.0592,-1.962,-1.962,-1.962,-1.962,-1.962,-2.0427,-2.0592,-1.9995,-2.0949,0.0,0.0,0.0,0.0,0.0,0.0,0.0,0.0,-2.4428,-2.442,-2.419,-2.419,0.0,0.0,-2.6347,-2.7008,0.0,0.0,0.0,0.0,0.0,-3.4412,-3.5092,0.0,-3.355,-2.942,0.0,0.0,0.0,0.0,0.0,0.0,-2.3883,0.0,0.0,0.0,0.0,0.0,0.0,0.0,0.0,-3.2198,-3.3242,-3.4206,-3.6406,-3.6981,-3.7398,-3.8362,-3.8954,-3.9292,-3.9292,-3.9774,-4.0096,-4.0096,-4.0096,-4.0096,-4.0096,-4.0096,-4.018,-4.04,-4.0417,-4.0502,-4.0705,-4.1204,-4.1508,-4.1508,-4.2219,-4.2591,-4.2591,-4.3352,-4.3741,-4.3741,-4.4316,-4.4615,-4.4615,-4.4615,-4.4615,-4.4615,-4.4615,-4.4615,-4.457,-4.4355,-4.4224,-4.4224,-4.396,-4.3885,-4.3885,-4.3885,-4.3885,-4.3885,0.0,0.0,0.0,0.0,0.0,0.0,0.0,0.0,0.0,0.0,0.0,0.0,-2.3043,-2.2575,-2.218,-2.1831,-2.0913,-2.0344,-2.0344,-2.0344,-2.0344,-2.0344,-2.0794,-2.0813,-2.0344,-2.0941,0.0,0.0,0.0,0.0,0.0,0.0,0.0,0.0,0.0,0.0,0.0,0.0,0.0,0.0,-2.6869,0.0,0.0,-3.1347,-3.2485,0.0,0.0,0.0,-3.7441,-3.8377,-3.6119,0.0,0.0,0.0,0.0,0.0,0.0,0.0,0.0,0.0,0.0,0.0,0.0,0.0,-2.5448,-2.6142,-2.7511,0.0,-3.1457,-3.1939,-3.4732,-3.4559,-3.4336,-3.5385,-3.6434,-3.7449,-3.8413,-3.9174,-3.9656,-3.9656,-3.991,-4.0096,-4.0096,-4.0096,-4.0096,-4.0096,-4.0096,-4.0096,-4.0096,-4.0493,-4.073,-4.073,-4.1457,-4.183,-4.183,-4.2574,-4.3115,-4.3392,-4.3876,-4.4265,-4.4615,-4.4615,-4.4615,-4.4615,-4.4615,-4.4615,-4.4615,-4.4615,-4.4615,-4.4615,-4.4615,-4.4615,-4.4615,-4.4615,-4.4615,-4.4615,0.0,0.0,0.0,0.0,0.0,0.0,0.0,0.0,0.0,0.0,-2.3768,-2.3933,-2.3208,-2.3043,-2.2712,-2.1996,-2.1849,-2.1794,-2.1794,-2.1794,-2.1794,-2.1794,-2.1794,-2.1794,-2.1794,-2.1143,-2.1153,0.0,0.0,0.0,0.0,0.0,0.0,0.0,0.0,0.0,0.0,0.0,0.0,-2.7879,-2.7346,-2.8143,0.0,0.0,-3.3899,-3.3757,-3.7404,-3.8707,-3.8634,-3.8193,-3.6674,0.0,0.0,0.0,0.0,0.0,-2.4465,0.0,0.0,0.0,0.0,0.0,0.0,0.0,-2.4153,-2.5439,-2.7325,-2.9757,-2.9626,-2.9834,-3.228,-3.1275,-3.051,-3.182,-3.3307,-3.5108,-3.7449,-3.8413,-3.887,-3.887,-3.9469,-3.9859,-3.9859,-3.9859,-3.9859,-3.9859,-3.9943,-4.0011,-4.0096,-4.0096,-4.0096,-4.0096,-4.073,-4.1085,-4.1085,-4.1813,-4.2506,-4.3156,-4.3308,-4.3775,-4.4479,-4.4564,-4.4615,-4.4615,-4.4615,-4.4615,-4.4615,-4.4615,-4.4615,-4.4615,-4.4615,-4.4615,-4.4615,-4.4615,-4.4615,-4.4615,-2.222,0.0,0.0,0.0,0.0,0.0,0.0,0.0,0.0,-2.3998,-2.4098,-2.4135,-2.3988,-2.3391,-2.2933,-2.2767,-2.2171,-2.1794,-2.1794,-2.1794,-2.1794,-2.1794,-2.1794,-2.1794,-2.1794,-2.2281,-2.2602,0.0,0.0,0.0,0.0,0.0,0.0,0.0,0.0,0.0,0.0,0.0,0.0,-2.8877,-3.0008,0.0,-3.4124,-3.6729,-3.7661,-3.7624,-3.8414,-3.8707,-3.8212,-3.4894,-3.4325,-3.4215,0.0,0.0,0.0,-2.742,0.0,0.0,0.0,0.0,0.0,0.0,0.0,0.0,-2.6567,-2.5612,-2.5535,0.0,-2.8758,-2.7835,-3.0114,-3.0207,-3.0036,-3.0315,-3.1922,-3.4032,-3.6632,-3.7652,-3.8125,-3.8125,-3.8244,-3.8328,-3.8328,-3.8328,-3.8328,-3.8328,-3.887,-3.9462,-4.0079,-4.0096,-4.0096,-4.0096,-4.0248,-4.0316,-4.0316,-4.1052,-4.1491,-4.1644,-4.2817,-4.3477,-4.3673,-4.4282,-4.4615,-4.4615,-4.4615,-4.4615,-4.4615,-4.4615,-4.4615,-4.4615,-4.4615,-4.4615,-4.4615,-4.4615,-4.4615,-4.4615,-2.2797,0.0,0.0,0.0,0.0,0.0,0.0,0.0,0.0,-2.4761,-2.4805,-2.4493,-2.3694,-2.3602,-2.3428,-2.3043,-2.2997,-2.3006,-2.3006,-2.3006,-2.3006,-2.3006,-2.3006,-2.3006,-2.3006,-2.3382,-2.3602,0.0,0.0,0.0,0.0,0.0,0.0,0.0,0.0,0.0,0.0,0.0,-2.7622,-3.021,-3.021,0.0,-3.4619,-3.6707,-3.7496,-3.7606,-3.8414,-3.8707,-3.8267,-3.5422,-3.4692,0.0,-3.1684,-2.9977,-2.884,0.0,-2.666,-2.5209,0.0,0.0,0.0,-2.419,0.0,0.0,0.0,-2.4933,-2.4964,-2.8506,-2.707,-2.587,-2.819,-2.778,-2.7358,-2.8137,-2.9716,-3.1445,-3.3122,-3.5662,-3.7347,-3.7347,-3.7686,-3.7905,-3.7905,-3.7905,-3.7905,-3.7905,-3.8244,-3.8768,-3.952,-3.9554,-3.9723,-4.0096,-4.0096,-4.0096,-4.0096,-4.0485,-4.0832,-4.1221,-4.1965,-4.2506,-4.2878,-4.3656,-4.3995,-4.4012,-4.4445,-4.4615,-4.4615,-4.4615,-4.4615,-4.4615,-4.4615,-4.4615,-4.4615,-4.4615,-4.4615,-4.4615,-2.3254,0.0,0.0,0.0,0.0,0.0,0.0,0.0,0.0,-2.5179,-2.5331,-2.5026,-2.4033,0.0,0.0,0.0,-2.4465,-2.4593,-2.4428,-2.4428,-2.4355,-2.4208,-2.4237,-2.4266,-2.4266,-2.4294,-2.4321,-2.4321,0.0,0.0,0.0,0.0,0.0,0.0,0.0,0.0,0.0,0.0,0.0,-3.1531,0.0,-3.1702,-3.4229,-3.6064,-3.6468,-3.6285,-3.8065,-3.8799,-3.867,-3.689,-3.6046,-3.5353,-3.3261,-3.1372,0.0,0.0,0.0,0.0,0.0,0.0,0.0,0.0,0.0,-2.419,0.0,0.0,0.0,-2.6704,0.0,0.0,0.0,0.0,0.0,0.0,0.0,0.0,0.0,-3.2886,0.0,-3.5382,-3.6158,-3.6746,-3.6806,-3.7212,-3.7533,-3.7686,-3.7702,-3.8007,-3.8751,-3.892,-3.9259,-3.9876,-4.0028,-4.0096,-4.0096,-4.0096,-4.0417,-4.0984,-4.1136,-4.1508,-4.21,-4.2861,-4.3284,-4.3426,-4.4079,-4.4479,-4.4615,-4.4615,-4.4615,-4.4615,-4.4615,-4.4615,-4.4615,-4.4615,-4.4615,-4.4615,-2.4885,-2.4936,0.0,0.0,0.0,0.0,0.0,0.0,0.0,-2.4632,-2.5078,0.0,0.0,0.0,0.0,0.0,0.0,0.0,-2.5301,0.0,-2.4952,-2.4226,-2.4366,-2.4461,-2.4461,-2.4639,-2.4731,-2.4731,0.0,0.0,0.0,0.0,0.0,0.0,-2.4989,0.0,0.0,0.0,-3.0253,0.0,-3.383,-3.4546,0.0,-3.7518,-3.7059,-3.5463,-3.7848,-3.9166,-3.9405,0.0,-3.7184,-3.7624,0.0,-3.2894,-3.254,-2.887,0.0,0.0,0.0,0.0,0.0,0.0,-2.419,0.0,0.0,0.0,-2.4281,-2.4538,0.0,0.0,0.0,0.0,0.0,0.0,0.0,0.0,-2.7316,-2.9266,-3.0577,-3.0263,-3.1571,-3.2608,-3.291,-3.4709,-3.6163,-3.688,-3.6931,-3.7246,-3.799,-3.8633,-3.9039,-3.9106,-3.9757,-4.0096,-4.0096,-4.0096,-4.0146,-4.0231,-4.0882,-4.1238,-4.1356,-4.2083,-4.2777,-4.3392,-4.3494,-4.3944,-4.4615,-4.4615,-4.4615,-4.4615,-4.4615,-4.4615,-4.4615,-4.4615,-4.4615,-4.4615,-2.462,-2.4903,0.0,0.0,0.0,0.0,0.0,0.0,0.0,0.0,0.0,0.0,0.0,0.0,0.0,0.0,0.0,-2.803,0.0,0.0,0.0,-2.8342,-2.5885,-2.5165,-2.6563,-2.5418,-2.4804,-2.4804,-2.4591,0.0,0.0,0.0,0.0,0.0,-2.6237,0.0,-2.8675,0.0,-3.2252,0.0,0.0,0.0,0.0,-3.7221,-3.834,-3.8046,-3.9536,-4.001,-3.9751,-3.8726,-3.7569,0.0,0.0,0.0,0.0,0.0,0.0,0.0,0.0,0.0,0.0,0.0,0.0,0.0,-2.452,0.0,-2.419,0.0,0.0,0.0,0.0,0.0,0.0,0.0,-2.5239,0.0,0.0,0.0,-2.8419,-2.9544,-3.0297,-3.1202,-3.2464,-3.265,-3.3284,-3.4714,-3.4443,-3.4714,-3.5859,-3.706,-3.7905,-3.8345,-3.9073,-3.9469,-3.9469,-3.9893,-4.0096,-4.0096,-4.0417,-4.0544,-4.0578,-4.1322,-4.183,-4.2168,-4.2591,-4.32,-4.391,-4.391,-4.4181,-4.4615,-4.4615,-4.4615,-4.4615,-4.4615,-4.4615,-4.4615,-2.4202,0.0,0.0,0.0,0.0,0.0,0.0,0.0,0.0,0.0,0.0,0.0,-2.8644,-2.7316,0.0,0.0,-3.1294,-3.0725,0.0,0.0,-2.9597,0.0,0.0,0.0,0.0,-2.6764,-2.5645,-2.4948,0.0,0.0,0.0,0.0,0.0,0.0,0.0,-2.8161,-2.9943,0.0,0.0,-3.3605,-3.5991,-3.5661,-3.4059,-3.6945,-3.8946,-4.0304,-4.0875,-4.0873,-4.0487,-4.0047,-3.8322,-3.649,-3.7389,-3.4601,-3.1054,0.0,0.0,0.0,-2.8532,0.0,0.0,0.0,0.0,0.0,0.0,0.0,0.0,0.0,-2.4383,0.0,0.0,0.0,-2.419,-2.419,0.0,-2.4879,0.0,-2.5217,0.0,0.0,-2.8675,-2.9627,-3.1253,-3.0803,-3.1007,-3.2488,-3.2111,-3.2513,-3.41,-3.5458,-3.6626,-3.7567,-3.8497,-3.8988,-3.8988,-3.974,-4.0096,-4.0096,-4.0096,-4.0096,-4.013,-4.0646,-4.1018,-4.1238,-4.1762,-4.2422,-4.3115,-4.3115,-4.3572,-4.4265,-4.4265,-4.4429,-4.4615,-4.4615,-4.4615,-4.4615,-2.411,-2.4755,0.0,0.0,0.0,0.0,0.0,0.0,0.0,0.0,0.0,0.0,0.0,0.0,0.0,0.0,0.0,-3.4292,-3.3601,0.0,-3.0509,0.0,0.0,-2.8699,0.0,0.0,-2.7745,-2.5274,0.0,0.0,0.0,0.0,0.0,0.0,0.0,-2.7947,-3.1651,-3.2372,-3.4912,-3.8487,-3.8579,-3.9019,-3.9402,0.0,-3.834,-4.1058,-4.1095,-4.1572,-4.1992,-4.0432,-3.9827,-3.9203,-3.6105,-3.5555,-3.544,0.0,0.0,0.0,-3.1476,-3.0155,-2.9335,-3.0889,-2.8349,-2.5852,-2.7357,-2.6476,-2.5136,0.0,0.0,-2.5117,-2.4337,-2.419,-2.419,-2.419,-2.4226,0.0,0.0,0.0,0.0,0.0,0.0,0.0,-2.7801,-2.9109,-3.0104,-3.0575,-3.0574,-3.1405,-3.3343,-3.415,-3.5267,-3.6795,-3.8251,-3.8988,-3.8988,-3.974,-4.0096,-4.0096,-4.0096,-4.0096,-4.0096,-4.013,-4.051,-4.1204,-4.1238,-4.1644,-4.2337,-4.2337,-4.2777,-4.3426,-4.3426,-4.391,-4.4615,-4.4615,-4.4615,-4.4615,0.0,0.0,0.0,0.0,0.0,0.0,0.0,-2.5141,0.0,0.0,0.0,0.0,0.0,-3.4415,-3.5616,0.0,0.0,-3.8146,-3.9461,-3.6708,0.0,0.0,0.0,-3.1283,0.0,0.0,0.0,0.0,0.0,0.0,0.0,0.0,0.0,0.0,0.0,-2.9072,0.0,0.0,0.0,0.0,0.0,-3.6927,-3.6857,-3.8762,-4.0487,-4.1974,-4.2506,-4.2525,-4.2213,-4.1662,-4.0781,-3.9698,-3.8597,-3.6964,-3.5224,-3.4105,-3.2852,-3.21,-3.3408,-3.339,-3.3096,-3.3647,-3.1549,-2.9102,-2.8037,-2.6568,-2.5319,-2.5044,-2.5209,-2.5485,-2.575,-2.5346,-2.5172,-2.5695,-2.5786,-2.5786,0.0,0.0,0.0,0.0,0.0,0.0,0.0,-2.7083,-2.7554,-2.8937,-2.8853,-2.9792,-3.2276,-3.3274,-3.461,-3.6479,-3.7183,-3.777,-3.8278,-3.8988,-3.9622,-4.0096,-4.0096,-4.0096,-4.0096,-4.0096,-4.0248,-4.046,-4.046,-4.0882,-4.1576,-4.1576,-4.2303,-4.3392,-4.3392,-4.3893,-4.4615,-4.4615,-4.4615,-4.4615,-2.5308,0.0,0.0,0.0,0.0,0.0,0.0,0.0,0.0,0.0,-3.0279,0.0,-3.6483,0.0,-3.8268,0.0,-4.1302,-4.1126,-4.269,-3.994,0.0,-4.1582,-3.7071,0.0,0.0,0.0,0.0,0.0,0.0,-2.5105,0.0,0.0,0.0,0.0,0.0,-2.8592,-3.1081,0.0,-3.4629,0.0,0.0,-3.669,0.0,-3.9583,-4.1001,-4.1625,-4.3002,-4.3167,-4.2671,-4.2396,-4.1607,-4.0689,-4.0414,-3.8689,-3.6729,-3.6729,-3.544,-3.4339,-3.5885,-3.5903,-3.5591,-3.6178,-3.4064,-3.1568,-3.0577,-2.9108,-2.789,-2.7596,-2.7302,-2.7181,-2.7409,-2.6557,-2.5988,-2.6521,-2.6602,-2.6602,0.0,-2.6153,0.0,-2.5126,0.0,0.0,0.0,-2.5841,-2.615,-2.7792,-2.7448,-2.8615,-3.1934,-3.2722,-3.4207,-3.6594,-3.6922,-3.7399,-3.8127,-3.8696,-3.9385,-4.0096,-4.0096,-4.0096,-4.0096,-4.0096,-4.0096,-4.0096,-4.0096,-4.0383,-4.0798,-4.0798,-4.1677,-4.3014,-4.3014,-4.3656,-4.4615,-4.4615,-4.4615,-4.4615,0.0,0.0,0.0,0.0,-2.5308,0.0,0.0,0.0,-2.8838,0.0,-3.1801,-3.4969,-3.6533,-3.8487,-4.0543,-4.2688,-4.3156,-4.3335,-4.3297,-4.0969,0.0,0.0,-4.0008,-3.8161,-3.8007,0.0,0.0,0.0,0.0,0.0,0.0,0.0,0.0,0.0,-2.5099,0.0,-2.971,-3.1036,-3.3606,-3.6845,-3.774,-3.8508,-3.9166,-3.9853,-4.0058,-4.0281,-4.2652,-4.3515,-4.3386,-4.2616,-4.2323,-4.2176,-4.1389,-4.0616,-3.9955,-3.9955,-3.9423,-3.8817,-3.8781,-3.7643,-3.6835,-3.834,-3.5697,-3.3115,-3.4656,-3.3757,-3.2381,-3.1623,-3.0852,-3.0081,-2.9262,-2.7831,-2.6778,-2.673,-2.6712,-2.6693,-2.6657,0.0,-2.6638,-2.6602,-2.5962,0.0,0.0,-2.5474,-2.5961,-2.7115,-2.6513,-2.7946,0.0,-3.2482,-3.3916,-3.7034,-3.7368,-3.7854,-3.8633,-3.8897,-3.9408,-4.0146,-4.0146,-4.0121,-4.0096,-4.0121,-4.0146,-4.0146,-4.0171,-4.0171,-4.0146,-4.0146,-4.1002,-4.2286,-4.2286,-4.3244,-4.4615,-4.4615,-4.4615,-4.4615,-2.5308,-2.5308,-2.5308,0.0,-2.5308,-2.5308,0.0,0.0,0.0,0.0,-3.4776,-3.835,-4.1857,-4.3859,-4.5425,-4.6589,-4.6761,0.0,0.0,0.0,0.0,-4.3989,-4.2585,-4.0604,-3.8065,-3.5276,0.0,-2.9107,0.0,0.0,-2.5308,0.0,0.0,0.0,0.0,0.0,-2.9848,-3.0198,-3.3278,-3.8066,-4.0177,-4.0772,-4.0597,-4.2302,-4.2207,-4.1379,-4.2953,-4.3515,-4.3478,-4.3259,-4.2782,-4.2268,-4.2066,-4.1442,-4.0799,-4.0799,-4.0653,-4.0359,-3.9753,-3.9276,-3.8927,-3.8744,-3.6509,-3.4491,-3.4912,-3.3757,-3.2546,-3.2326,-3.2124,-3.1751,-3.0925,-2.9953,-2.909,-2.8473,-2.8381,0.0,0.0,0.0,0.0,-2.6657,0.0,0.0,-2.6355,-2.6552,-2.6868,-2.7193,-2.7334,-2.8548,-3.1164,-3.2058,-3.3571,-3.5855,-3.6821,-3.7932,-3.925,-3.9336,-3.9821,-4.0703,-4.0703,-4.0497,-4.0121,-4.0504,-4.0703,-4.0726,-4.1173,-4.1105,-4.0703,-4.0703,-4.1338,-4.2286,-4.2286,-4.3244,-4.4615,-4.4615,-4.4615,-4.4615,-2.5308,0.0,0.0,-2.5865,0.0,0.0,-2.7462,-2.9635,0.0,-3.5295,-3.8969,0.0,-4.4605,-4.6394,-4.7605,-4.8067,-4.8105,0.0,-4.7451,0.0,0.0,-4.547,-4.4278,-4.272,-4.0796,-3.7546,0.0,-3.1339,0.0,0.0,-2.5308,0.0,0.0,0.0,0.0,-2.6621,0.0,-3.1226,-3.4203,-3.7654,-4.0206,-4.1176,0.0,-4.2615,-4.3057,-4.3025,-4.3715,-4.3775,-4.3515,-4.3515,-4.3185,-4.2818,-4.2818,-4.2268,-4.1625,-4.1625,-4.137,-4.1003,-4.0561,-4.0414,-4.0322,-3.9863,-3.845,-3.7147,-3.7147,-3.616,-3.5261,-3.5261,-3.4706,-3.4082,-3.3623,-3.199,-3.0356,0.0,0.0,0.0,0.0,0.0,0.0,0.0,-2.8051,-2.8154,-2.7684,-2.7538,-2.7452,-2.7452,-2.7718,-2.9127,-3.2006,-3.2072,-3.3199,-3.5763,-3.6229,-3.6684,-3.7183,-3.872,-3.9573,-3.9717,-4.0779,-4.115,-4.0861,-4.1173,-4.1273,-4.1313,-4.1643,-4.1599,-4.1273,-4.1273,-4.1992,-4.3153,-4.3834,-4.4604,-4.5346,-4.5089,-4.4841,-4.4615,-2.5635,0.0,0.0,0.0,0.0,0.0,0.0,-3.4038,0.0,-3.913,0.0,-4.5691,-4.5902,-4.7336,-4.8317,-4.8432,0.0,-4.8394,-4.8279,-4.7625,-4.7135,-4.6904,-4.5451,-4.4528,-4.4297,-4.0373,-3.6969,0.0,0.0,0.0,0.0,0.0,0.0,0.0,0.0,0.0,0.0,-3.3203,-3.5908,-3.7076,-3.9623,-4.1141,-4.1922,-4.2329,-4.3403,-4.4657,-4.4624,-4.415,-4.3582,-4.3582,-4.3531,-4.3515,-4.3515,-4.302,-4.2451,-4.2451,-4.1974,-4.1389,-4.1279,-4.126,-4.1224,-4.1132,-4.0579,-4.0065,-4.0065,-3.9423,-3.8854,-3.8854,-3.7661,-3.6541,-3.634,-3.3618,-3.0944,0.0,-2.9133,0.0,0.0,0.0,0.0,0.0,0.0,0.0,-2.8877,-2.8209,-2.7842,-2.7952,-2.7871,-2.9365,-3.2981,-3.2045,-3.2719,-3.5569,-3.5617,-3.5275,-3.4634,-3.8024,-3.9347,-3.8658,-4.0864,-4.1874,-4.1793,-4.1874,-4.1916,-4.1916,-4.2,-4.1979,-4.1916,-4.1916,-4.2778,-4.4248,-4.5805,-4.6407,-4.6336,-4.5808,-4.5284,-4.4814,0.0,0.0,0.0,0.0,0.0,-3.3179,-3.8923,-3.7923,-3.7411,-3.9958,-4.3382,-4.6133,-4.7509,-4.8567,-4.9452,-5.0183,-5.025,0.0,0.0,0.0,0.0,-4.6962,-4.6605,-4.5778,-4.4335,-4.1516,-3.8149,0.0,0.0,0.0,0.0,0.0,0.0,0.0,0.0,0.0,-3.0189,-3.4555,0.0,-3.9999,-4.2535,-4.4072,-4.4833,-4.4643,-4.4763,-4.4985,-4.4695,-4.4308,-4.3909,-4.3909,-4.3726,-4.3515,-4.3515,-4.3387,-4.3277,-4.3277,-4.3185,-4.2928,-4.2268,-4.2084,-4.1937,-4.126,-4.0985,-4.0875,-4.0875,-4.0267,-3.968,-3.968,-3.8946,-3.7863,-3.6541,-3.3618,-3.1323,-3.1017,-2.9879,-2.9005,0.0,0.0,0.0,0.0,0.0,-3.0191,-2.8191,-2.789,-2.8081,-2.873,-2.8172,-2.8393,-2.9776,-3.0834,-3.1672,-3.2241,-3.4802,-3.6421,-3.6933,-3.9524,-4.0834,-4.0846,-4.1998,-4.2282,-4.1832,-4.2322,-4.2539,-4.2577,-4.3014,-4.2958,-4.2539,-4.2539,-4.3153,-4.4248,-4.5805,-4.6407,-4.6383,-4.6288,-4.6167,-4.594,0.0,0.0,0.0,0.0,0.0,0.0,-4.172,-4.22,-4.2739,-4.4836,-4.6547,-4.8048,-4.9317,-4.9817,-5.025,-5.0654,-5.0712,-5.0519,-5.0087,-4.9644,-4.9048,-4.824,-4.7355,-4.6509,-4.5663,-4.3566,-4.0392,-3.6161,-3.4058,-3.0846,-2.664,-2.6192,0.0,0.0,0.0,-2.9769,0.0,0.0,-3.9642,-4.1354,-4.3451,-4.4816,-4.5577,-4.5419,-4.5352,-4.5342,-4.5171,-4.4889,-4.4529,-4.4373,-4.4209,-4.4035,-4.382,-4.3756,-4.3726,-4.3548,-4.3515,-4.3423,-4.302,-4.291,-4.2818,-4.2433,-4.2029,-4.1735,-4.1735,-4.1111,-4.0396,-3.9992,-3.9588,-3.8707,-3.667,-3.5,-3.3673,-3.2779,-3.1292,-3.0246,-3.0246,0.0,-3.1121,0.0,0.0,0.0,0.0,-2.8521,-2.7952,0.0,0.0,-2.8962,-3.0173,-3.0191,-3.0925,-3.2577,-3.4174,-3.4981,-3.4963,-3.904,-4.052,-3.941,-4.1922,-4.2958,-4.2678,-4.2977,-4.3105,-4.3142,-4.3392,-4.3357,-4.3178,-4.4016,-4.4863,-4.5763,-4.6937,-4.7388,-4.7345,-4.7044,-4.711,-4.7198,0.0,-3.1948,0.0,0.0,-3.7603,-4.0027,-4.3605,-4.5874,-4.7702,-4.9202,-4.9548,-4.9933,-5.0635,-5.0712,-5.0712,-5.0712,-5.0712,-5.0712,-5.0712,-5.0048,-4.9586,-4.9413,-4.8144,-4.7259,-4.6904,-4.5547,-4.2777,0.0,-3.6853,-3.3423,-2.8409,-2.7736,-2.7231,0.0,0.0,-3.2987,-3.4545,-3.8911,-4.1373,-4.247,-4.397,-4.4998,-4.5594,-4.5594,-4.5594,-4.5594,-4.5594,-4.5429,-4.518,-4.4908,-4.4707,-4.454,-4.4219,-4.4117,-4.4076,-4.3823,-4.3679,-4.3614,-4.3614,-4.3546,-4.3515,-4.3515,-4.302,-4.2561,-4.2561,-4.1937,-4.1185,-4.0543,-4.0139,-3.9258,-3.7184,-3.6523,-3.5752,-3.4064,-3.2462,-3.1286,-3.0944,0.0,0.0,0.0,0.0,0.0,-3.1433,-2.9365,-2.8062,-2.8062,-2.8484,-2.9531,-3.1305,-2.9879,-3.0308,-3.3201,-3.3293,-3.3238,-3.3115,-3.8086,-3.99,-3.8557,-4.1899,-4.3515,-4.3515,-4.3515,-4.3515,-4.3515,-4.3515,-4.3606,-4.3864,-4.5314,-4.6379,-4.7186,-4.7975,-4.8306,-4.823,-4.7756,-4.7897,-4.8172,0.0,0.0,0.0,0.0,0.0,-4.2827,-4.7009,-4.7836,-4.8336,-4.9279,-5.0087,-5.0616,-5.0693,-5.0712,-5.0712,-5.0712,-5.0712,-5.0712,-5.0712,-5.0616,-5.0231,-4.9433,-4.924,-4.8452,-4.6923,-4.6731,-4.4566,-4.0265,-3.8584,-3.5161,-3.0154,-3.0077,-3.0808,-3.2237,-3.343,-3.5725,-3.8842,-4.0835,-4.2604,-4.4143,-4.5094,-4.5537,-4.5594,-4.5594,-4.5594,-4.5594,-4.5594,-4.5577,-4.5559,-4.5513,-4.5107,-4.4593,-4.4553,-4.454,-4.454,-4.4501,-4.4252,-4.3955,-4.3955,-4.3742,-4.3515,-4.3515,-4.3441,-4.3404,-4.3404,-4.2763,-4.2176,-4.2084,-4.091,-3.9606,-3.8652,-3.7276,-3.5752,-3.4064,-3.2462,-3.0889,-2.9427,-3.1751,-3.3018,-3.158,0.0,0.0,-3.1544,-2.9879,-2.8895,-2.8895,-2.8282,-2.8936,-3.1286,-2.9879,-2.9812,-3.158,-3.1617,-3.2632,-3.4747,-3.7518,-3.9918,-4.1864,-4.2965,-4.3515,-4.3515,-4.3515,-4.3515,-4.3515,-4.3515,-4.3901,-4.4672,-4.5535,-4.6379,-4.7186,-4.7975,-4.8306,-4.8287,-4.8248,-4.8267,-4.8287,-4.0777,-4.1027,-4.1604,-4.4162,-4.4739,-4.5778,-4.8471,-4.9317,-4.9779,-5.0125,-5.0481,-5.0712,-5.0712,-5.0712,-5.0712,-5.0712,-5.0712,-5.0712,-5.0712,-5.0712,-5.0539,-5.0212,-4.9683,-4.9086,-4.8413,-4.7413,-4.5547,-4.2777,-4.0085,-3.7469,-3.493,-3.3391,-3.3583,-3.5257,-3.7142,-3.9027,-4.095,-4.3143,-4.447,-4.5114,-4.546,-4.5594,-4.5594,-4.5594,-4.5594,-4.5594,-4.5594,-4.5594,-4.5594,-4.5594,-4.5429,-4.5161,-4.4954,-4.4896,-4.4861,-4.4644,-4.4487,-4.4346,-4.4346,-4.4266,-4.4169,-4.4169,-4.4169,-4.4169,-4.4169,-4.3907,-4.3534,-4.3011,-4.1458,-4.0037,-3.9506,-3.8505,-3.7202,-3.5569,-3.4761,-3.3421,-3.0815,-3.3256,0.0,-3.1709,0.0,-3.355,-3.2889,-3.0509,-2.939,-3.0375,-2.9255,-2.8943,-2.9916,-3.0265,-3.1182,-3.2779,-3.2834,-3.4247,-3.7187,-3.8196,-3.968,-4.159,-4.2873,-4.3515,-4.3515,-4.3515,-4.3515,-4.3533,-4.4011,-4.469,-4.548,-4.6305,-4.7076,-4.7846,-4.8177,-4.8306,-4.8306,-4.8306,-4.8306,-4.8306,-4.3912,-4.422,-4.4605,-4.6394,-4.7221,-4.8029,-4.9221,-5.0144,-5.0712,-5.0712,-5.0712,-5.0712,-5.0712,-5.0712,-5.0712,-5.0712,-5.0712,-5.0712,-5.0712,-5.0712,-5.0712,-5.0712,-5.0106,-4.9663,-4.9413,-4.824,-4.6797,-4.5066,-4.2181,-4.0065,-3.8681,-3.6392,-3.6488,-3.8661,-4.045,-4.1873,-4.3047,-4.4844,-4.5594,-4.5594,-4.5594,-4.5594,-4.5594,-4.5594,-4.5594,-4.5594,-4.5594,-4.5594,-4.5594,-4.5594,-4.5594,-4.5559,-4.5322,-4.5243,-4.5201,-4.4966,-4.4818,-4.4751,-4.4751,-4.4688,-4.4593,-4.4593,-4.4593,-4.4593,-4.4593,-4.4593,-4.4347,-4.3492,-4.2128,-4.09,-4.0181,-3.9571,-3.8549,-3.6611,-3.6445,-3.5382,-3.1986,-3.4419,-3.5295,-3.1912,-3.2963,-3.3921,-3.382,-3.1329,-3.0173,-3.1323,-3.0356,-2.9702,-2.9702,-3.0338,-3.1421,-3.3036,-3.2632,-3.4192,-3.7955,-3.7991,-3.9276,-4.1827,-4.2947,-4.3515,-4.3515,-4.3515,-4.3643,-4.3883,-4.4452,-4.5296,-4.6305,-4.6856,-4.7571,-4.8306,-4.8306,-4.8306,-4.8306,-4.8306,-4.8306,-4.8306,-5.0096,-4.9894,-4.9317,-4.9356,-4.9356,-4.9375,-4.9394,-5.0144,-5.0712,-5.0712,-5.0712,-5.0712,-5.0712,-5.0712,-5.0712,-5.0712,-5.0712,-5.0712,-5.0712,-5.0712,-5.0712,-5.0712,-5.0693,-5.0289,-4.9413,-4.9375,-4.8548,-4.6865,-4.5105,-4.2951,-4.0439,-3.8738,-3.9777,-4.3028,-4.3047,-4.3989,-4.5556,-4.5594,-4.5594,-4.5594,-4.5594,-4.5594,-4.5594,-4.5594,-4.5594,-4.5594,-4.5594,-4.5594,-4.5594,-4.5594,-4.5594,-4.5594,-4.5605,-4.5586,-4.5586,-4.5586,-4.5352,-4.5096,-4.5096,-4.4861,-4.4593,-4.4593,-4.4593,-4.4593,-4.4593,-4.4593,-4.4347,-4.3492,-4.3028,-4.2276,-4.0691,-4.0328,-3.9407,-3.6742,-3.6795,-3.5924,-3.2295,-3.4916,-3.5848,-3.2229,-3.3272,-3.4153,-3.3829,-3.232,-3.1378,-3.1397,-3.1378,-3.1378,-3.1378,-2.9879,-2.9757,-3.1378,-2.9886,-3.139,-3.6266,-3.6321,-3.8726,-4.3478,-4.3496,-4.3515,-4.3515,-4.3515,-4.392,-4.469,-4.4691,-4.5608,-4.7094,-4.7094,-4.7571,-4.8306,-4.8306,-4.8306,-4.8306,-4.8306,-4.8306,-4.8306,-5.201,-5.1702,-5.1096,-5.1096,-5.0644,-5.0289,-5.0289,-5.0519,-5.0712,-5.0712,-5.0712,-5.0712,-5.0712,-5.0712,-5.0712,-5.0712,-5.0712,-5.0712,-5.0712,-5.0712,-5.0712,-5.0712,-5.0712,-5.0577,-5.0289,-4.9702,-4.9144,-4.8606,-4.6297,-4.4479,-4.3085,-4.3151,-4.3767,-4.4806,-4.4806,-4.5094,-4.5594,-4.5594,-4.5594,-4.5594,-4.5594,-4.5594,-4.5594,-4.5594,-4.5594,-4.5594,-4.5594,-4.5594,-4.5594,-4.5594,-4.5594,-4.5594,-4.5594,-4.5594,-4.5594,-4.5594,-4.5522,-4.5438,-4.5438,-4.5362,-4.5273,-4.5273,-4.5273,-4.5273,-4.5273,-4.5273,-4.5145,-4.4627,-4.4011,-4.3142,-4.1801,-4.1086,-3.9877,-3.7333,-3.7999,-3.7667,-3.4323,-3.5738,-3.6303,-3.4115,-3.4281,-3.4892,-3.5702,-3.4333,-3.329,-3.3062,-3.3036,-3.2572,-3.147,-3.1953,-3.3036,-3.4688,-3.478,-3.6321,-3.9536,-3.9019,-4.0357,-4.3515,-4.3515,-4.3515,-4.3533,-4.4066,-4.447,-4.4746,-4.5847,-4.6636,-4.7131,-4.7681,-4.8086,-4.8306,-4.8306,-4.8306,-4.8306,-4.8306,-4.8306,-4.8306,-5.3069,-5.281,-5.2385,-5.2385,-5.1702,-5.1144,-5.1144,-5.0894,-5.0712,-5.0712,-5.0712,-5.0712,-5.0712,-5.0712,-5.0712,-5.0712,-5.0712,-5.0712,-5.0712,-5.0712,-5.0712,-5.0712,-5.0712,-5.0712,-5.0712,-5.0173,-4.9721,-4.9394,-4.7471,-4.6259,-4.574,-4.6278,-4.6528,-4.6528,-4.6528,-4.6528,-4.6509,-4.622,-4.6086,-4.6067,-4.5729,-4.5594,-4.5594,-4.5594,-4.5594,-4.5594,-4.5594,-4.5594,-4.5594,-4.5594,-4.5594,-4.5594,-4.5594,-4.5594,-4.5594,-4.5594,-4.5594,-4.5594,-4.5594,-4.5594,-4.5594,-4.5594,-4.5594,-4.5594,-4.5594,-4.5594,-4.5531,-4.5332,-4.4791,-4.4026,-4.297,-4.2083,-4.0855,-3.8923,-3.9347,-3.8983,-3.6198,-3.729,-3.7519,-3.5191,-3.5429,-3.6079,-3.682,-3.5983,-3.5296,-3.5089,-3.4414,-3.3807,-3.3401,-3.3647,-3.4412,-3.5771,-3.6303,-3.7881,-4.0616,-4.0139,-4.1111,-4.3515,-4.3515,-4.3644,-4.3975,-4.447,-4.5021,-4.5663,-4.6654,-4.7278,-4.759,-4.8104,-4.8306,-4.8306,-4.8306,-4.8306,-4.8306,-4.8306,-4.8306,-4.8306,-5.3599,-5.3449,-5.3311,-5.3311,-5.255,-5.1914,-5.1914,-5.1212,-5.0712,-5.0712,-5.0712,-5.0712,-5.0712,-5.0712,-5.0712,-5.0712,-5.0712,-5.0712,-5.0712,-5.0712,-5.0712,-5.0712,-5.0712,-5.0712,-5.0712,-5.0712,-5.0308,-4.949,-4.8625,-4.8202,-4.8202,-4.8125,-4.8105,-4.8105,-4.8105,-4.8105,-4.8048,-4.7288,-4.6981,-4.6904,-4.6105,-4.5768,-4.5768,-4.5768,-4.5748,-4.5691,-4.5691,-4.5652,-4.5594,-4.5594,-4.5594,-4.5594,-4.5594,-4.5594,-4.5594,-4.5594,-4.5594,-4.5594,-4.5594,-4.5594,-4.5594,-4.5594,-4.5594,-4.5594,-4.5594,-4.5594,-4.5594,-4.5594,-4.5352,-4.4891,-4.4083,-4.3174,-4.2193,-4.1135,-4.0702,-3.981,-3.7819,-3.9158,-3.9069,-3.5703,-3.6689,-3.7574,-3.7415,-3.7413,-3.7345,-3.7211,-3.5623,-3.5252,-3.6572,-3.5153,-3.4614,-3.5316,-3.5463,-3.6967,-4.0029,-4.012,-4.1277,-4.3515,-4.357,-4.3975,-4.4691,-4.4837,-4.5682,-4.7094,-4.7168,-4.7608,-4.8306,-4.8306,-4.8306,-4.8306,-4.8306,-4.8306,-4.8306,-4.8306,-4.8306,-4.8306,-5.5544,-5.4989,-5.4498,-5.4498,-5.3141,-5.2047,-5.2047,-5.1285,-5.0712,-5.0712,-5.0712,-5.0712,-5.0712,-5.0712,-5.0712,-5.0712,-5.0712,-5.0712,-5.0712,-5.0712,-5.0712,-5.0712,-5.0712,-5.0712,-5.0712,-5.0712,-5.0596,-5.0385,-4.951,-4.9086,-4.9086,-4.8413,-4.8105,-4.8105,-4.8105,-4.8105,-4.8086,-4.7894,-4.7817,-4.7798,-4.7586,-4.7509,-4.7509,-4.7509,-4.7124,-4.6586,-4.6586,-4.6163,-4.5594,-4.5594,-4.5594,-4.5594,-4.5594,-4.5594,-4.5594,-4.5594,-4.5594,-4.5594,-4.5594,-4.5594,-4.5594,-4.5594,-4.5594,-4.5594,-4.5594,-4.5594,-4.5594,-4.5594,-4.555,-4.5217,-4.4362,-4.3527,-4.2656,-4.174,-4.0982,-3.9877,-3.8132,-3.8285,-3.8262,-3.7417,-3.7659,-3.8301,-3.9328,-3.9412,-3.8791,-3.7308,-3.7917,-3.7691,-3.6166,-3.8066,-3.9085,-3.8741,-3.9937,-4.0946,-4.1717,-4.2341,-4.2928,-4.3515,-4.4121,-4.4525,-4.4728,-4.5975,-4.6746,-4.7131,-4.7736,-4.8122,-4.8306,-4.8306,-4.8306,-4.8306,-4.8306,-4.8306,-4.8306,-4.8306,-4.8306,-4.8306,-5.6297,-5.5867,-5.5496,-5.5496,-5.3996,-5.279,-5.279,-5.1694,-5.0886,-5.0886,-5.0886,-5.0886,-5.0886,-5.0886,-5.0886,-5.0886,-5.0764,-5.0712,-5.0712,-5.0712,-5.0712,-5.0712,-5.0712,-5.0712,-5.0712,-5.0712,-5.0712,-5.0712,-5.0231,-4.999,-4.9971,-4.951,-4.9298,-4.9298,-4.9298,-4.9298,-4.926,-4.8856,-4.8682,-4.8663,-4.8259,-4.8105,-4.8105,-4.8105,-4.7836,-4.7451,-4.7451,-4.7144,-4.6682,-4.6317,-4.6182,-4.6124,-4.5729,-4.5594,-4.5594,-4.5594,-4.5594,-4.5594,-4.5594,-4.5594,-4.5594,-4.5594,-4.5594,-4.5594,-4.5594,-4.5594,-4.5594,-4.5594,-4.5594,-4.546,-4.4979,-4.4201,-4.3374,-4.2527,-4.1027,-3.9496,-3.818,-3.8007,-3.8007,-3.8007,-3.8681,-3.945,-4.0208,-4.0276,-4.0002,-3.9338,-3.9297,-3.9188,-3.8979,-4.0178,-4.0647,-4.0089,-4.1675,-4.2629,-4.2837,-4.3277,-4.3681,-4.4048,-4.4488,-4.5076,-4.5828,-4.6691,-4.7296,-4.7663,-4.8122,-4.8306,-4.8306,-4.8306,-4.8306,-4.8306,-4.8306,-4.8306,-4.8306,-4.8306,-4.8306,-4.8306,-5.6426,-5.6335,-5.6212,-5.6095,-5.4718,-5.3594,-5.3458,-5.2115,-5.1089,-5.1089,-5.1089,-5.1089,-5.1089,-5.1089,-5.1089,-5.1089,-5.0894,-5.0748,-5.073,-5.0712,-5.0712,-5.0712,-5.0712,-5.0712,-5.0712,-5.0712,-5.0712,-5.0712,-5.0712,-5.0712,-5.0712,-5.0712,-5.0712,-5.0712,-5.0712,-5.0712,-5.0654,-4.9913,-4.9606,-4.9529,-4.8798,-4.849,-4.849,-4.849,-4.8413,-4.8298,-4.8298,-4.8221,-4.8009,-4.7308,-4.7077,-4.6951,-4.6201,-4.5902,-4.5806,-4.5806,-4.571,-4.5594,-4.5594,-4.5594,-4.5594,-4.5594,-4.5594,-4.5594,-4.5594,-4.5594,-4.5594,-4.5594,-4.5594,-4.5594,-4.5594,-4.4902,-4.3989,-4.3066,-4.1085,-3.9277,-3.8161,-3.8334,-3.8527,-3.8392,-3.9881,-4.09,-4.09,-4.09,-4.12,-4.195,-4.0473,-4.0395,-4.2383,-4.1808,-4.1163,-4.0643,-4.223,-4.3218,-4.358,-4.3709,-4.4062,-4.4691,-4.4948,-4.5773,-4.7094,-4.7223,-4.7645,-4.8306,-4.8306,-4.8306,-4.8306,-4.8306,-4.8306,-4.8306,-4.8306,-4.8306,-4.8306,-4.8306,-4.8306,-4.8306,-5.6561,-5.6559,-5.6304,-5.5561,-5.4502,-5.3512,-5.2788,-5.1784,-5.1089,-5.1089,-5.1089,-5.1089,-5.1089,-5.1089,-5.1089,-5.1089,-5.1053,-5.0991,-5.0871,-5.0766,-5.0712,-5.0712,-5.0712,-5.0712,-5.0712,-5.0712,-5.0712,-5.0712,-5.0712,-5.0712,-5.0712,-5.0712,-5.0712,-5.0712,-5.0712,-5.0712,-5.0693,-5.0558,-5.05,-5.05,-5.0346,-5.0308,-5.0308,-5.0308,-4.9837,-4.9202,-4.9202,-4.8721,-4.8086,-4.7971,-4.7913,-4.7894,-4.7759,-4.7259,-4.6701,-4.6701,-4.6182,-4.5594,-4.5594,-4.5594,-4.5594,-4.5594,-4.5594,-4.5594,-4.5594,-4.5594,-4.5594,-4.5594,-4.5594,-4.5594,-4.5594,-4.4902,-4.3797,-4.2258,-4.1681,-4.0604,-3.8315,-3.9854,-4.095,-4.0208,-4.1643,-4.2701,-4.2701,-4.2701,-4.2758,-4.2893,-4.2618,-4.2294,-4.194,-4.3105,-4.3274,-4.2194,-4.3548,-4.4205,-4.3924,-4.4596,-4.4864,-4.4709,-4.6085,-4.6856,-4.7113,-4.7791,-4.8196,-4.8306,-4.8306,-4.8306,-4.8306,-4.8306,-4.8306,-4.8306,-4.8306,-4.8306,-4.8306,-4.8306,-4.8306,-4.8306,-5.6601,-5.6601,-5.6328,-5.5449,-5.4528,-5.3604,-5.2744,-5.1849,-5.1267,-5.1267,-5.1267,-5.1267,-5.1267,-5.1267,-5.1267,-5.1267,-5.1193,-5.1125,-5.1074,-5.0972,-5.0911,-5.0911,-5.0911,-5.0879,-5.0805,-5.0879,-5.0879,-5.0805,-5.0805,-5.0805,-5.0805,-5.073,-5.0712,-5.0712,-5.0712,-5.0712,-5.0712,-5.0712,-5.0712,-5.0712,-5.0712,-5.0712,-5.0712,-5.0712,-5.0462,-5.0087,-5.0087,-4.9837,-4.9433,-4.8952,-4.8798,-4.8721,-4.8259,-4.7855,-4.7548,-4.7548,-4.6624,-4.5594,-4.5594,-4.5594,-4.5594,-4.5594,-4.5594,-4.5594,-4.5594,-4.5594,-4.5594,-4.5594,-4.5594,-4.5594,-4.5594,-4.5267,-4.4451,-4.2777,-4.2104,-4.1066,-3.8988,-4.0085,-4.095,-4.0554,-4.2047,-4.3104,-4.3104,-4.3104,-4.3278,-4.3701,-4.3739,-4.3778,-4.3835,-4.4586,-4.4753,-4.4193,-4.4455,-4.4721,-4.4956,-4.535,-4.59,-4.6647,-4.7168,-4.7641,-4.8067,-4.8218,-4.8306,-4.8306,-4.8306,-4.8306,-4.8306,-4.8306,-4.8306,-4.8306,-4.8306,-4.8306,-4.8306,-4.8306,-4.8306,-4.8306,-5.6601,-5.6601,-5.6269,-5.5195,-5.4433,-5.3633,-5.2558,-5.1836,-5.1406,-5.1406,-5.1406,-5.1406,-5.1406,-5.1406,-5.1406,-5.1406,-5.1318,-5.1242,-5.1242,-5.1193,-5.1152,-5.1094,-5.1089,-5.1042,-5.0959,-5.1056,-5.1061,-5.0952,-5.0952,-5.0952,-5.0933,-5.0835,-5.0773,-5.0758,-5.0758,-5.0721,-5.0712,-5.0712,-5.0712,-5.0712,-5.0712,-5.0712,-5.0712,-5.0712,-5.0712,-5.0712,-5.0712,-5.0712,-5.0596,-4.9933,-4.9702,-4.9586,-4.8913,-4.8567,-4.8394,-4.8394,-4.7355,-4.6095,-4.571,-4.5594,-4.5594,-4.5594,-4.5594,-4.5594,-4.5594,-4.5594,-4.5594,-4.5594,-4.5594,-4.5594,-4.5594,-4.5594,-4.5056,-4.3374,-4.2701,-4.1873,-4.0392,-4.0881,-4.1458,-4.167,-4.2874,-4.3682,-4.3682,-4.3682,-4.3932,-4.4566,-4.4605,-4.4893,-4.5556,-4.5594,-4.5691,-4.5893,-4.5393,-4.54,-4.5912,-4.6297,-4.7103,-4.8287,-4.8171,-4.8445,-4.9027,-4.8728,-4.8568,-4.8568,-4.8495,-4.8439,-4.8439,-4.8344,-4.8306,-4.8306,-4.8306,-4.8306,-4.8306,-4.8306,-4.8306,-4.8306,-5.6601,-5.6601,-5.6074,-5.4394,-5.4043,-5.3437,-5.1758,-5.1445,-5.1406,-5.1406,-5.1406,-5.1406,-5.1406,-5.1406,-5.1406,-5.1406,-5.1386,-5.1386,-5.1386,-5.1386,-5.1285,-5.1103,-5.1089,-5.1108,-5.1098,-5.1084,-5.1108,-5.1098,-5.1098,-5.1098,-5.1098,-5.1088,-5.101,-5.0886,-5.0886,-5.0822,-5.0712,-5.0712,-5.0712,-5.0712,-5.0712,-5.0712,-5.0712,-5.0712,-5.0712,-5.0712,-5.0712,-5.0712,-5.0693,-5.0635,-5.0596,-5.0596,-5.0539,-4.9952,-4.9298,-4.9298,-4.8644,-4.7586,-4.6018,-4.5594,-4.5594,-4.5594,-4.5594,-4.5594,-4.5594,-4.5594,-4.5594,-4.5594,-4.5594,-4.5594,-4.5594,-4.5594,-4.5056,-4.3374,-4.3662,-4.3816,-4.2931,-4.3508,-4.4316,-4.5133,-4.5344,-4.5421,-4.5421,-4.5421,-4.5441,-4.5498,-4.5498,-4.5537,-4.5594,-4.5594,-4.597,-4.6778,-4.6761,-4.6569,-4.6256,-4.7807,-4.8498,-4.8305,-4.9036,-4.9389,-4.9445,-4.9416,-4.9401,-4.9386,-4.9029,-4.8846,-4.883,-4.8458,-4.8306,-4.8306,-4.8306,-4.8306,-4.8306,-4.8306,-4.8306,-4.8306,-5.6601,-5.6152,-5.541,-5.4219,-5.3555,-5.2793,-5.1582,-5.1406,-5.1406,-5.1406,-5.1406,-5.1406,-5.1406,-5.1406,-5.1406,-5.1406,-5.1406,-5.1406,-5.1406,-5.1406,-5.1365,-5.1281,-5.1299,-5.1245,-5.1158,-5.1243,-5.1243,-5.1158,-5.1158,-5.1158,-5.1158,-5.1126,-5.1033,-5.0908,-5.0908,-5.083,-5.0712,-5.0712,-5.0712,-5.0712,-5.0712,-5.0712,-5.0712,-5.0712,-5.0712,-5.0712,-5.0712,-5.0712,-5.0712,-5.0712,-5.0712,-5.0712,-5.0712,-5.0481,-5.0087,-4.9548,-4.9163,-4.8644,-4.7471,-4.6797,-4.6278,-4.5748,-4.5594,-4.5594,-4.5594,-4.5594,-4.5594,-4.5594,-4.5594,-4.5594,-4.5594,-4.5594,-4.521,-4.4047,-4.4547,-4.4797,-4.3951,-4.4566,-4.5229,-4.5556,-4.5594,-4.5594,-4.5594,-4.5594,-4.5594,-4.5594,-4.5594,-4.5594,-4.5594,-4.6105,-4.6797,-4.7625,-4.8163,-4.8385,-4.822,-4.8842,-4.9384,-4.9782,-4.9854,-4.9885,-4.9853,-4.9603,-4.9489,-4.9489,-4.9341,-4.9265,-4.9265,-4.911,-4.9046,-4.9046,-4.9046,-4.888,-4.8675,-4.8675,-4.8513,-4.8306,-5.6191,-5.5488,-5.4629,-5.373,-5.3105,-5.2402,-5.1523,-5.1406,-5.1406,-5.1406,-5.1406,-5.1406,-5.1406,-5.1406,-5.1406,-5.1406,-5.1406,-5.1406,-5.1406,-5.1406,-5.1406,-5.1406,-5.1406,-5.1365,-5.1267,-5.1345,-5.1345,-5.1267,-5.1267,-5.1267,-5.1267,-5.1224,-5.1102,-5.0959,-5.0971,-5.0877,-5.0693,-5.073,-5.074,-5.0712,-5.0712,-5.0712,-5.0712,-5.0712,-5.0712,-5.0712,-5.0712,-5.0712,-5.0712,-5.0712,-5.0712,-5.0712,-5.0712,-5.0712,-5.0577,-4.9971,-4.9798,-4.9625,-4.874,-4.8105,-4.7413,-4.6297,-4.5806,-4.5594,-4.5594,-4.5594,-4.5594,-4.5594,-4.5594,-4.5594,-4.5594,-4.5594,-4.5402,-4.4797,-4.521,-4.5402,-4.4778,-4.5229,-4.5594,-4.5594,-4.5594,-4.5594,-4.5594,-4.5594,-4.5594,-4.5594,-4.5855,-4.6124,-4.6374,-4.6951,-4.7663,-4.849,-4.9086,-4.9529,-4.9798,-4.9798,-5.0106,-5.0702,-5.0421,-5.0283,-5.0272,-4.9987,-4.9885,-4.9885,-4.9746,-4.9692,-4.9678,-4.9547,-4.9489,-4.9489,-4.9489,-4.9326,-4.9092,-4.9092,-4.8913,-4.8693,-5.5293,-5.459,-5.3711,-5.2851,-5.2695,-5.2402,-5.1523,-5.1406,-5.1406,-5.1406,-5.1406,-5.1406,-5.1406,-5.1406,-5.1406,-5.1406,-5.1406,-5.1406,-5.1406,-5.1406,-5.1406,-5.1406,-5.1406,-5.1406,-5.1406,-5.1406,-5.1406,-5.1406,-5.1406,-5.1406,-5.1406,-5.1406,-5.1283,-5.1099,-5.1167,-5.1015,-5.0712,-5.0844,-5.0811,-5.0693,-5.0693,-5.0693,-5.0693,-5.0693,-5.0693,-5.0712,-5.0712,-5.0712,-5.0712,-5.0712,-5.0712,-5.0712,-5.0712,-5.0712,-5.0712,-5.0712,-5.0712,-5.0519,-4.9644,-4.9413,-4.899,-4.7336,-4.624,-4.5614,-4.5614,-4.5594,-4.5594,-4.5594,-4.5594,-4.5594,-4.5594,-4.5594,-4.5594,-4.5594,-4.5594,-4.5594,-4.5594,-4.5594,-4.5594,-4.5594,-4.5614,-4.5614,-4.5614,-4.5614,-4.5614,-4.5614,-4.6413,-4.725,-4.8067,-4.8105,-4.8509,-4.9375,-4.9413,-4.9817,-5.0693,-5.0712,-5.0712,-5.0712,-5.0712,-5.0712,-5.0712,-5.0712,-5.0712,-5.0673,-5.0272,-5.0092,-5.0068,-4.9659,-4.9504,-4.9504,-4.9504,-4.9504,-4.9504,-4.9504,-4.9504,-4.9489,-5.4394,-5.3691,-5.3008,-5.2754,-5.2187,-5.1699,-5.1445,-5.1406,-5.1406,-5.1406,-5.1406,-5.1406,-5.1406,-5.1406,-5.1406,-5.1406,-5.1406,-5.1406,-5.1406,-5.1406,-5.1406,-5.1406,-5.1406,-5.1406,-5.1406,-5.1406,-5.1406,-5.1406,-5.1406,-5.1406,-5.1406,-5.1406,-5.1318,-5.1171,-5.1194,-5.1129,-5.0979,-5.1027,-5.1022,-5.0979,-5.0979,-5.0925,-5.0835,-5.0835,-5.0782,-5.0712,-5.0712,-5.0712,-5.0712,-5.0712,-5.0712,-5.0712,-5.0712,-5.0712,-5.0712,-5.0712,-5.0712,-5.0635,-5.0385,-4.9875,-4.9125,-4.8029,-4.7124,-4.6509,-4.6509,-4.6028,-4.5594,-4.5594,-4.5594,-4.5594,-4.5594,-4.5594,-4.5594,-4.5594,-4.5594,-4.5594,-4.5594,-4.5594,-4.5594,-4.5594,-4.6144,-4.6509,-4.6509,-4.7028,-4.7355,-4.7355,-4.7605,-4.8105,-4.8971,-4.9009,-4.9413,-5.0289,-5.0308,-5.0442,-5.0712,-5.0712,-5.0712,-5.0712,-5.0712,-5.0712,-5.0712,-5.0712,-5.0712,-5.0683,-5.0565,-5.0514,-5.0504,-5.0399,-5.0347,-5.0347,-5.0347,-5.0171,-4.9924,-4.9924,-4.9746,-4.9489,-5.3496,-5.2773,-5.2187,-5.2187,-5.1758,-5.1406,-5.1406,-5.1406,-5.1406,-5.1406,-5.1406,-5.1406,-5.1406,-5.1406,-5.1406,-5.1406,-5.1406,-5.1406,-5.1406,-5.1406,-5.1406,-5.1406,-5.1406,-5.1406,-5.1406,-5.1406,-5.1406,-5.1406,-5.1406,-5.1406,-5.1406,-5.1406,-5.1322,-5.1204,-5.1265,-5.1208,-5.1094,-5.1124,-5.1116,-5.1089,-5.1089,-5.1042,-5.0979,-5.0979,-5.0932,-5.0867,-5.0867,-5.0867,-5.0851,-5.0808,-5.073,-5.0712,-5.0712,-5.0712,-5.0712,-5.0712,-5.0712,-5.0712,-5.0712,-5.0327,-4.9779,-4.926,-4.824,-4.7375,-4.7375,-4.6721,-4.6105,-4.6105,-4.5845,-4.5594,-4.5594,-4.5874,-4.6105,-4.6105,-4.6374,-4.6586,-4.6586,-4.6586,-4.6586,-4.6586,-4.7048,-4.7375,-4.7375,-4.7817,-4.824,-4.8586,-4.8606,-4.899,-4.9875,-4.9913,-5.0173,-5.0673,-5.0712,-5.0712,-5.0712,-5.0712,-5.0712,-5.0712,-5.0712,-5.0712,-5.0712,-5.0712,-5.0712,-5.0712,-5.0712,-5.0712,-5.0712,-5.0712,-5.0712,-5.0712,-5.0712,-5.0554,-5.0336,-5.0336,-5.0183,-4.9974,-5.2578,-5.1933,-5.1406,-5.1406,-5.1406,-5.1406,-5.1406,-5.1406,-5.1406,-5.1406,-5.1406,-5.1406,-5.1406,-5.1406,-5.1406,-5.1406,-5.1406,-5.1406,-5.1406,-5.1406,-5.1406,-5.1406,-5.1406,-5.1406,-5.1406,-5.1406,-5.1406,-5.1406,-5.1406,-5.1406,-5.1406,-5.1406,-5.1323,-5.1213,-5.1344,-5.1306,-5.1131,-5.1183,-5.1174,-5.1126,-5.1126,-5.1117,-5.1108,-5.1108,-5.1103,-5.1089,-5.1089,-5.1089,-5.1074,-5.0953,-5.0835,-5.074,-5.074,-5.0721,-5.0721,-5.0721,-5.0712,-5.0712,-5.0712,-5.0712,-5.0712,-5.0712,-4.951,-4.8317,-4.824,-4.7586,-4.7,-4.7,-4.6374,-4.5825,-4.5825,-4.6471,-4.7,-4.7,-4.7625,-4.8105,-4.8105,-4.8105,-4.8105,-4.8105,-4.8182,-4.8221,-4.8221,-4.8298,-4.8663,-4.9452,-4.951,-4.9856,-5.0654,-5.0712,-5.0712,-5.0712,-5.0712,-5.0712,-5.0712,-5.0712,-5.0712,-5.0712,-5.0712,-5.0712,-5.0712,-5.0712,-5.0712,-5.0712,-5.0712,-5.0712,-5.0712,-5.0712,-5.0712,-5.0712,-5.0712,-5.0712,-5.0712,-5.0712,-5.0712,-5.0712,-5.168,-5.1523,-5.1406,-5.1406,-5.1406,-5.1406,-5.1406,-5.1406,-5.1406,-5.1406,-5.1406,-5.1406,-5.1406,-5.1406,-5.1406,-5.1406,-5.1406,-5.1406,-5.1406,-5.1406,-5.1406,-5.1406,-5.1406,-5.1406,-5.1406,-5.1406,-5.1406,-5.1406,-5.1406,-5.1406,-5.1406,-5.1406,-5.1386,-5.1365,-5.1386,-5.1386,-5.1339,-5.1344,-5.1343,-5.1339,-5.1339,-5.1261,-5.118,-5.118,-5.1152,-5.1089,-5.1089,-5.1089,-5.1108,-5.1078,-5.1045,-5.1016,-5.1016,-5.0945,-5.0859,-5.0859,-5.0782,-5.0712,-5.0712,-5.0712,-5.0712,-5.0712,-5.0423,-4.9952,-4.926,-4.8471,-4.7836,-4.7836,-4.7702,-4.7567,-4.7567,-4.7721,-4.7836,-4.7836,-4.799,-4.8105,-4.8105,-4.8105,-4.8105,-4.8105,-4.8702,-4.9125,-4.9125,-4.974,-5.0212,-5.0404,-5.0423,-5.05,-5.0693,-5.0712,-5.0712,-5.0712,-5.0712,-5.0712,-5.0712,-5.0712,-5.0712,-5.0712,-5.0712,-5.0712,-5.0712,-5.0712,-5.0712,-5.0712,-5.0712,-5.0712,-5.0712,-5.0712,-5.0712,-5.0712,-5.0712,-5.0712,-5.0712,-5.0712,-5.0712,-5.0712,-5.1406,-5.1406,-5.1406,-5.1406,-5.1406,-5.1406,-5.1406,-5.1406,-5.1406,-5.1406,-5.1406,-5.1406,-5.1406,-5.1406,-5.1406,-5.1406,-5.1406,-5.1406,-5.1406,-5.1406,-5.1406,-5.1406,-5.1406,-5.1406,-5.1406,-5.1406,-5.1406,-5.1406,-5.1406,-5.1406,-5.1406,-5.1406,-5.1406,-5.1406,-5.1406,-5.1406,-5.1406,-5.1406,-5.1406,-5.1406,-5.1406,-5.1365,-5.1295,-5.1295,-5.1261,-5.1235,-5.1235,-5.1193,-5.1156,-5.1156,-5.112,-5.1089,-5.1089,-5.1042,-5.0997,-5.0997,-5.0952,-5.0894,-5.0894,-5.0894,-5.0894,-5.0894,-5.0894,-5.0751,-5.0143,-4.9356,-4.8721,-4.8721,-4.8394,-4.8105,-4.8105,-4.8432,-4.8721,-4.8721,-4.9067,-4.9336,-4.9336,-4.9336,-4.9336,-4.9336,-4.974,-5.001,-5.001,-5.0442,-5.0712,-5.0712,-5.0712,-5.0712,-5.0712,-5.0712,-5.0712,-5.0712,-5.0712,-5.0712,-5.0712,-5.0712,-5.0712,-5.0712,-5.0712,-5.0712,-5.0712,-5.0712,-5.0712,-5.0712,-5.0712,-5.0712,-5.0712,-5.0712,-5.0712,-5.0712,-5.0712,-5.0712,-5.0712,-5.0712,-5.0712,-5.0712,-5.1406,-5.1406,-5.1406,-5.1406,-5.1406,-5.1406,-5.1406,-5.1406,-5.1406,-5.1406,-5.1406,-5.1406,-5.1406,-5.1406,-5.1406,-5.1406,-5.1406,-5.1406,-5.1406,-5.1406,-5.1406,-5.1406,-5.1406,-5.1406,-5.1406,-5.1406,-5.1406,-5.1406,-5.1406,-5.1406,-5.1406,-5.1406,-5.1406,-5.1406,-5.1406,-5.1406,-5.1406,-5.1406,-5.1406,-5.1406,-5.1406,-5.1406,-5.1406,-5.1406,-5.1406,-5.1406,-5.1406,-5.1322,-5.1236,-5.1236,-5.1199,-5.1152,-5.1152,-5.1139,-5.1126,-5.1126,-5.1108,-5.1089,-5.1089,-5.1089,-5.1089,-5.1089,-5.1089,-5.1031,-5.0822,-5.0216,-4.9695,-4.9695,-4.9116,-4.8615,-4.8615,-4.9194,-4.9695,-4.9695,-5.0293,-5.0775,-5.0775,-5.0775,-5.0757,-5.074,-5.0712,-5.0712,-5.0712,-5.0712,-5.0712,-5.0712,-5.0712,-5.0712,-5.0712,-5.0712,-5.0712,-5.0712,-5.0712,-5.0712,-5.0712,-5.0712,-5.0712,-5.0712,-5.0712,-5.0712,-5.0712,-5.0712,-5.0712,-5.0712,-5.0712,-5.0712,-5.0712,-5.0712,-5.0712,-5.0712,-5.0712,-5.0712,-5.0712,-5.0712,-5.0712,-5.0712,-5.1406,-5.1406,-5.1406,-5.1406,-5.1406,-5.1406,-5.1406,-5.1406,-5.1406,-5.1406,-5.1406,-5.1406,-5.1406,-5.1406,-5.1406,-5.1406,-5.1406,-5.1406,-5.1406,-5.1406,-5.1406,-5.1406,-5.1406,-5.1406,-5.1406,-5.1406,-5.1406,-5.1406,-5.1406,-5.1406,-5.1406,-5.1406,-5.1406,-5.1406,-5.1406,-5.1406,-5.1406,-5.1406,-5.1406,-5.1406,-5.1406,-5.1406,-5.1406,-5.1406,-5.1406,-5.1406,-5.1406,-5.1386,-5.1366,-5.1366,-5.1365,-5.1363,-5.1363,-5.1286,-5.1188,-5.1188,-5.1152,-5.1089,-5.1089,-5.1089,-5.1089,-5.1089,-5.1089,-5.1084,-5.1042,-5.0959,-5.0862,-5.0862,-5.0784,-5.0687,-5.0687,-5.0784,-5.0862,-5.0862,-5.0978,-5.1056,-5.1056,-5.1056,-5.1004,-5.0886,-5.0764,-5.0712,-5.0712,-5.0712,-5.0712,-5.0712,-5.0712,-5.0712,-5.0712,-5.0712,-5.0712,-5.0712,-5.0712,-5.0712,-5.0712,-5.0712,-5.0712,-5.0712,-5.0712,-5.0712,-5.0712,-5.0712,-5.0712,-5.0712,-5.0712,-5.0712,-5.0712,-5.0712,-5.0712,-5.0712,-5.0712,-5.0712,-5.0712,-5.0712,-5.0712,-5.0712,-5.1406,-5.1406,-5.1406,-5.1406,-5.1406,-5.1406,-5.1406,-5.1406,-5.1406,-5.1406,-5.1406,-5.1406,-5.1406,-5.1406,-5.1406,-5.1406,-5.1406,-5.1406,-5.1406,-5.1406,-5.1406,-5.1406,-5.1406,-5.1406,-5.1406,-5.1406,-5.1406,-5.1406,-5.1406,-5.1406,-5.1406,-5.1406,-5.1406,-5.1406,-5.1406,-5.1406,-5.1406,-5.1406,-5.1406,-5.1406,-5.1406,-5.1406,-5.1406,-5.1406,-5.1406,-5.1406,-5.1406,-5.1406,-5.1406,-5.1406,-5.1406,-5.1406,-5.1406,-5.1365,-5.1319,-5.1319,-5.1288,-5.1271,-5.1271,-5.1271,-5.1271,-5.1271,-5.1271,-5.1271,-5.1271,-5.1271,-5.1249,-5.1122,-5.1089,-5.1089,-5.1089,-5.1089,-5.1089,-5.1089,-5.1089,-5.1089,-5.1089,-5.1089,-5.1088,-5.1022,-5.0953,-5.0925,-5.0925,-5.0925,-5.0901,-5.0822,-5.0814,-5.0773,-5.0693,-5.0712,-5.0712,-5.0712,-5.0712,-5.0712,-5.0712,-5.0712,-5.0712,-5.0712,-5.0712,-5.0712,-5.0712,-5.0712,-5.0712,-5.0712,-5.0712,-5.0712,-5.0712,-5.0712,-5.0712,-5.0712,-5.0712,-5.0712,-5.0712,-5.0712,-5.0712,-5.0712]},{"header":{"parameterUnit":"m.s-1","parameterCategory":1,"la1":30.6,"la2":28.766,"lo1":-90.7593,"lo2":-88.6598,"dy":0.0162,"dx":0.0183,"nx":116,"ny":114,"refTime":"2023-06-28T06:00:00:Z","depth":0,"parameterNumber":3,"parameterNumberName":"V-component_of_WINDS"},"data":[0.0,0.0,0.0,0.0,0.0,0.0,0.0,0.0,0.0,0.0,0.0,0.0,0.0,0.0,0.0,0.0,0.0,0.0,0.0,0.0,0.0,0.0,0.0,0.0,0.0,0.0,0.0,0.0,0.0,0.0,0.0,0.0,0.0,0.0,0.0,0.0,0.0,0.0,0.0,0.0,0.0,0.0,0.0,0.0,0.0,0.0,0.0,0.0,0.0,0.0,0.0,0.0,0.0,0.0,0.0,0.0,0.0,0.0,0.0,0.0,0.0,0.0,0.0,0.0,0.0,0.0,0.0,0.0,0.0,0.0,0.0,0.0,0.0,0.0,0.0,0.0,0.0,0.0,0.0,0.0,0.0,0.0,0.0,0.0,0.0,0.0,0.0,0.0,0.0,0.0,0.0,0.0,0.0,0.0,0.0,0.0,0.0,0.0,0.0,0.0,0.0,0.0,0.0,0.0,0.0,0.0,0.0,0.0,0.0,0.0,0.0,0.0,0.0,0.0,0.0,0.0,0.0,0.0,0.0,0.0,0.0,0.0,0.0,0.0,0.0,0.0,0.0,0.0,0.0,0.0,0.0,0.0,0.0,0.0,0.0,0.0,0.0,0.0,0.0,0.0,0.0,0.0,0.0,0.0,0.0,0.0,0.0,0.0,0.0,0.0,0.0,0.0,0.0,0.0,0.0,0.0,0.0,0.0,0.0,0.0,0.0,0.0,0.0,0.0,0.0,0.0,0.0,0.0,0.0,0.0,0.0,0.0,0.0,0.0,0.0,0.0,0.0,0.0,0.0,0.0,0.0,0.0,0.0,0.0,0.0,0.0,0.0,0.0,0.0,0.0,0.0,0.0,0.0,0.0,0.0,0.0,0.0,0.0,0.0,0.0,0.0,0.0,0.0,0.0,0.0,0.0,0.0,0.0,0.0,0.0,0.0,0.0,0.0,0.0,0.0,0.0,0.0,0.0,0.0,0.0,0.0,0.0,0.0,0.0,0.0,0.0,0.0,0.0,0.0,0.0,0.0,0.0,0.0,0.0,0.0,0.0,0.0,0.0,0.0,0.0,0.0,0.0,0.0,0.0,0.0,0.0,0.0,0.0,0.0,0.0,0.0,0.0,0.0,0.0,0.0,0.0,0.0,0.0,0.0,0.0,0.0,0.0,0.0,0.0,0.0,0.0,0.0,0.0,0.0,0.0,0.0,0.0,0.0,0.0,0.0,0.0,0.0,0.0,0.0,0.0,0.0,0.0,0.0,0.0,0.0,0.0,0.0,0.0,0.0,0.0,0.0,0.0,0.0,0.0,0.0,0.0,0.0,0.0,0.0,0.0,0.0,0.0,0.0,0.0,0.0,0.0,0.0,0.0,0.0,0.0,0.0,0.0,0.0,0.0,0.0,0.0,0.0,0.0,0.0,0.0,0.0,0.0,0.0,0.0,0.0,0.0,0.0,0.0,0.0,0.0,0.0,0.0,0.0,0.0,0.0,0.0,0.0,0.0,0.0,0.0,0.0,0.0,0.0,0.0,0.0,0.0,0.0,0.0,0.0,0.0,0.0,0.0,0.0,0.0,0.0,0.0,0.0,0.0,0.0,0.0,0.0,0.0,0.0,0.0,0.0,0.0,0.0,0.0,0.0,0.0,0.0,0.0,0.0,0.0,0.0,0.0,0.0,0.0,0.0,0.0,0.0,0.0,0.0,0.0,0.0,0.0,0.0,0.0,0.0,0.0,0.0,0.0,0.0,0.0,0.0,0.0,0.0,0.0,0.0,0.0,0.0,0.0,0.0,0.0,0.0,0.0,0.0,0.0,0.0,0.0,0.0,0.0,0.0,0.0,0.0,0.0,0.0,0.0,0.0,0.0,0.0,0.0,0.0,0.0,0.0,0.0,0.0,0.0,0.0,0.0,0.0,0.0,0.0,0.0,0.0,0.0,0.0,0.0,0.0,0.0,0.0,0.0,0.0,0.0,0.0,0.0,0.0,0.0,0.0,0.0,0.0,0.0,0.0,0.0,0.0,0.0,0.0,0.0,0.0,0.0,0.0,0.0,0.0,0.0,0.0,0.0,0.0,0.0,0.0,0.0,0.0,0.0,0.0,0.0,0.0,0.0,0.0,0.0,0.0,0.0,0.0,0.0,0.0,0.0,0.0,0.0,0.0,0.0,0.0,0.0,0.0,0.0,0.0,0.0,0.0,0.0,0.0,0.0,0.0,0.0,0.0,0.0,0.0,0.0,0.0,0.0,0.0,0.0,0.0,0.0,0.0,0.0,0.0,0.0,0.0,0.0,0.0,0.0,0.0,0.0,0.0,0.0,0.0,0.0,0.0,0.0,0.0,0.0,0.0,0.0,0.0,0.0,0.0,0.0,0.0,0.0,0.0,0.0,0.0,0.0,0.0,0.0,0.0,0.0,0.0,0.0,0.0,0.0,0.0,0.0,0.0,0.0,0.0,0.0,0.0,0.0,0.0,0.0,0.0,0.0,0.0,0.0,0.0,0.0,0.0,0.0,0.0,0.0,0.0,0.0,0.0,0.0,0.0,0.0,0.0,0.0,0.0,0.0,0.0,0.0,0.0,0.0,0.0,0.0,0.0,0.0,0.0,0.0,0.0,0.0,0.0,0.0,0.0,0.0,0.0,0.0,0.0,0.0,0.0,0.0,0.0,0.0,0.0,0.0,0.0,0.0,0.0,0.0,0.0,0.0,0.0,0.0,0.0,0.0,0.0,0.0,0.0,0.0,0.0,0.0,0.0,0.0,0.0,0.0,0.0,0.0,0.0,0.0,0.0,0.0,0.0,0.0,0.0,0.0,0.0,0.0,0.0,0.0,0.0,0.0,0.0,0.0,0.0,0.0,0.0,0.0,0.0,0.0,0.0,0.0,0.0,0.0,0.0,0.0,0.0,0.0,0.0,0.0,0.0,0.0,0.0,0.0,0.0,0.0,0.0,0.0,0.0,0.0,0.0,0.0,0.0,0.0,0.0,0.0,0.0,0.0,0.0,0.0,0.0,0.0,0.0,0.0,0.0,0.0,0.0,0.0,0.0,0.0,0.0,0.0,0.0,0.0,0.0,0.0,0.0,0.0,0.0,0.0,0.0,0.0,0.0,0.0,0.0,0.0,0.0,0.0,0.0,0.0,0.0,0.0,0.0,0.0,0.0,0.0,0.0,0.0,0.0,0.0,0.0,0.0,0.0,0.0,0.0,0.0,0.0,0.0,0.0,0.0,0.0,0.0,0.0,0.0,0.0,0.0,0.0,0.0,0.0,0.0,0.0,0.0,0.0,0.0,0.0,0.0,0.0,0.0,0.0,0.0,0.0,0.0,0.0,0.0,0.0,0.0,0.0,0.0,0.0,0.0,0.0,0.0,0.0,0.0,0.0,0.0,0.0,0.0,0.0,0.0,0.0,0.0,0.0,0.0,0.0,0.0,0.0,0.0,0.0,0.0,0.0,0.0,0.0,0.0,0.0,0.0,0.0,0.0,0.0,0.0,0.0,0.0,0.0,0.0,0.0,0.0,0.0,0.0,0.0,0.0,0.0,0.0,0.0,0.0,0.0,0.0,0.0,0.0,0.0,0.0,0.0,0.0,0.0,0.0,0.0,0.0,0.0,0.0,0.0,0.0,0.0,0.0,0.0,0.0,0.0,0.0,0.0,0.0,0.0,0.0,0.0,0.0,0.0,0.0,0.0,0.0,0.0,0.0,0.0,0.0,0.0,0.0,0.0,0.0,0.0,0.0,0.0,0.0,0.0,0.0,0.0,0.0,0.0,0.0,0.0,0.0,0.0,0.0,0.0,0.0,0.0,0.0,0.0,0.0,0.0,0.0,0.0,0.0,0.0,0.0,0.0,0.0,0.0,0.0,0.0,0.0,0.0,0.0,0.0,0.0,0.0,0.0,0.0,0.0,0.0,0.0,0.0,0.0,0.0,0.0,0.0,0.0,0.0,0.0,0.0,0.0,0.0,0.0,0.0,0.0,0.0,0.0,0.0,0.0,0.0,0.0,0.0,0.0,0.0,0.0,0.0,0.0,0.0,0.0,0.0,0.0,0.0,0.0,0.0,0.0,0.0,0.0,0.0,0.0,0.0,0.0,0.0,0.0,0.0,0.0,0.0,0.0,0.0,0.0,0.0,0.0,0.0,0.0,0.0,0.0,0.0,0.0,0.0,0.0,0.0,0.0,0.0,0.0,0.0,0.0,0.0,0.0,0.0,0.0,0.0,0.0,0.0,0.0,0.0,0.0,0.0,0.0,0.0,0.0,0.0,0.0,0.0,0.0,0.0,0.0,0.0,0.0,0.0,0.0,0.0,0.0,0.0,0.0,0.0,0.0,0.0,0.0,0.0,0.0,0.0,0.0,0.0,0.0,0.0,0.0,0.0,0.0,0.0,0.0,0.0,0.0,0.0,0.0,0.0,0.0,0.0,0.0,0.0,0.0,0.0,0.0,0.0,0.0,0.0,0.0,0.0,0.0,0.0,0.0,0.0,0.0,0.0,0.0,0.0,0.0,0.0,0.0,0.0,0.0,0.0,0.0,0.0,0.0,0.0,0.0,0.0,0.0,0.0,0.0,0.0,0.0,0.0,0.0,0.0,0.0,0.0,0.0,0.0,0.0,0.0,0.0,0.0,0.0,0.0,0.0,0.0,0.0,0.0,0.0,0.0,0.0,0.0,0.0,0.0,0.0,0.0,0.0,0.0,0.0,0.0,0.0,0.0,0.0,0.0,0.0,0.0,0.0,0.0,0.0,0.0,0.0,0.0,0.0,0.0,0.0,0.0,0.0,0.0,0.0,0.0,0.0,0.0,0.0,0.0,0.0,0.0,0.0,0.0,0.0,0.0,0.0,0.0,0.0,0.0,0.0,0.0,0.0,0.0,0.0,0.0,0.0,0.0,0.0,0.0,0.0,0.0,0.0,0.0,0.0,0.0,0.0,0.0,0.0,0.0,0.0,0.0,0.0,0.0,0.0,0.0,0.0,0.0,0.0,0.0,0.0,0.0,0.0,0.0,0.0,0.0,0.0,0.0,0.0,0.0,0.0,0.0,0.0,0.0,0.0,0.0,0.0,0.0,0.0,0.0,0.0,0.0,0.0,0.0,0.0,0.0,0.0,0.0,0.0,0.0,0.0,0.0,0.0,0.0,0.0,0.0,0.0,0.0,0.0,0.0,0.0,0.0,0.0,0.0,0.0,0.0,0.0,0.0,0.0,0.0,0.0,0.0,0.0,0.0,0.0,0.0,0.0,0.0,0.0,0.0,0.0,0.0,0.0,0.0,0.0,0.0,0.0,0.0,0.0,0.0,0.0,0.0,0.0,0.0,0.0,0.0,0.0,0.0,0.0,0.0,0.0,0.0,0.0,0.0,0.0,0.0,0.0,0.0,0.0,0.0,0.0,0.0,0.0,0.0,0.0,0.0,0.0,0.0,0.0,0.0,0.0,0.0,0.0,0.0,0.0,0.0,0.0,0.0,0.0,0.0,0.0,0.0,0.0,0.0,0.0,0.0,0.0,0.0,0.0,0.0,0.0,0.0,0.0,0.0,0.0,0.0,0.0,0.0,0.0,0.0,0.0,0.0,0.0,0.0,0.0,0.0,0.0,0.0,0.0,0.0,0.0,0.0,0.0,0.0,0.0,0.0,0.0,0.0,0.0,0.0,0.0,0.0,0.0,0.0,0.0,0.0,0.0,0.0,0.0,0.0,0.0,0.0,0.0,0.0,0.0,0.0,0.0,0.0,0.0,0.0,0.0,0.0,0.0,0.0,0.0,0.0,0.0,0.0,0.0,0.0,0.0,0.0,0.0,0.0,0.0,0.0,0.0,0.0,0.0,0.0,0.0,0.0,0.0,0.0,0.0,0.0,0.0,0.0,0.0,0.0,0.0,0.0,0.0,0.0,0.0,0.0,0.0,0.0,0.0,0.0,0.0,0.0,0.0,0.0,0.0,0.0,0.0,0.0,0.0,0.0,0.0,0.0,0.0,0.0,0.0,0.0,0.0,0.0,0.0,0.0,0.0,0.0,0.0,0.0,0.0,0.0,0.0,0.0,0.0,0.0,0.0,0.0,0.0,0.0,0.0,0.0,0.0,0.0,0.0,0.0,0.0,0.0,0.0,-2.6808,-2.5318,0.0,0.0,0.0,0.0,0.0,0.0,0.0,0.0,0.0,0.0,0.0,0.0,0.0,0.0,0.0,0.0,0.0,0.0,0.0,0.0,0.0,0.0,0.0,0.0,0.0,0.0,0.0,0.0,0.0,0.0,0.0,0.0,0.0,0.0,0.0,0.0,0.0,0.0,0.0,0.0,0.0,0.0,0.0,0.0,0.0,0.0,0.0,0.0,0.0,0.0,0.0,0.0,0.0,0.0,0.0,0.0,0.0,0.0,0.0,0.0,0.0,0.0,0.0,0.0,0.0,0.0,0.0,0.0,0.0,0.0,0.0,0.0,0.0,0.0,0.0,0.0,0.0,0.0,0.0,0.0,0.0,0.0,0.0,0.0,0.0,0.0,0.0,0.0,0.0,0.0,0.0,0.0,0.0,0.0,0.0,0.0,0.0,0.0,0.0,0.0,0.0,0.0,0.0,0.0,0.0,0.0,0.0,0.0,0.0,0.0,0.0,0.0,0.0,0.0,-2.7783,-2.7228,0.0,0.0,0.0,0.0,0.0,0.0,0.0,0.0,0.0,0.0,0.0,0.0,0.0,0.0,0.0,0.0,0.0,0.0,0.0,0.0,0.0,0.0,0.0,0.0,0.0,0.0,0.0,0.0,0.0,0.0,0.0,0.0,0.0,0.0,0.0,0.0,0.0,0.0,0.0,0.0,0.0,0.0,0.0,0.0,0.0,0.0,0.0,0.0,0.0,0.0,0.0,0.0,0.0,0.0,0.0,0.0,0.0,0.0,0.0,0.0,0.0,0.0,0.0,0.0,0.0,0.0,0.0,0.0,0.0,0.0,0.0,0.0,0.0,0.0,0.0,0.0,0.0,0.0,0.0,0.0,0.0,0.0,0.0,0.0,0.0,0.0,0.0,0.0,0.0,0.0,0.0,0.0,0.0,0.0,0.0,0.0,0.0,0.0,0.0,0.0,0.0,0.0,0.0,0.0,0.0,0.0,0.0,0.0,-2.8385,-2.8415,-2.8912,-2.7906,-2.7754,-2.8299,-2.8618,-2.9093,-2.9427,-2.7081,0.0,0.0,0.0,0.0,0.0,0.0,0.0,0.0,0.0,0.0,0.0,0.0,0.0,0.0,0.0,0.0,0.0,0.0,0.0,0.0,0.0,0.0,-1.2663,-1.306,-1.316,-1.3198,0.0,0.0,0.0,0.0,0.0,0.0,0.0,0.0,0.0,0.0,0.0,0.0,-2.5226,-2.53,-2.5211,-2.4911,-2.355,0.0,0.0,0.0,0.0,0.0,0.0,0.0,0.0,0.0,0.0,0.0,0.0,0.0,0.0,0.0,0.0,0.0,0.0,0.0,0.0,0.0,0.0,0.0,0.0,0.0,0.0,0.0,0.0,0.0,0.0,0.0,0.0,0.0,0.0,0.0,0.0,0.0,0.0,0.0,0.0,0.0,0.0,0.0,-2.3849,-2.5181,0.0,0.0,0.0,0.0,0.0,0.0,0.0,0.0,0.0,0.0,0.0,0.0,0.0,-2.7899,-2.9322,-2.9417,-2.9988,-3.1086,-3.0996,-3.1011,-3.1086,-3.0911,-3.0898,-3.0913,-2.9913,0.0,-2.9532,-2.8592,0.0,0.0,0.0,0.0,0.0,0.0,0.0,0.0,0.0,0.0,0.0,0.0,0.0,0.0,0.0,0.0,0.0,0.0,0.0,0.0,0.0,-1.2956,-1.3576,-1.4111,-1.5055,-1.5296,-1.4539,0.0,0.0,0.0,0.0,0.0,0.0,0.0,0.0,0.0,-2.4261,-2.5704,-2.6707,-2.6707,-2.6707,-2.6692,-2.6117,-2.471,-2.2772,-2.2772,0.0,0.0,0.0,0.0,0.0,0.0,0.0,0.0,0.0,0.0,0.0,0.0,0.0,0.0,0.0,0.0,0.0,0.0,0.0,0.0,0.0,0.0,0.0,0.0,0.0,0.0,0.0,0.0,0.0,0.0,0.0,0.0,0.0,0.0,0.0,0.0,0.0,0.0,0.0,-2.3714,-2.5226,-2.6557,-2.6378,-2.5824,0.0,0.0,0.0,0.0,0.0,0.0,0.0,0.0,0.0,-2.8678,-2.9041,-2.9864,-3.121,-3.1599,-3.2063,-3.2632,-3.2632,-3.2632,-3.2632,-3.2632,-3.2632,-3.2602,-3.2033,-3.1779,-3.1644,-2.9879,-2.8936,-2.8427,0.0,0.0,0.0,0.0,-2.4328,-2.4448,0.0,0.0,0.0,0.0,0.0,0.0,0.0,0.0,0.0,0.0,0.0,0.0,-1.2563,-1.374,-1.4784,-1.5497,-1.6588,-1.683,-1.583,0.0,0.0,0.0,0.0,0.0,0.0,0.0,0.0,-2.4859,-2.5704,-2.6707,-2.7869,-2.7869,-2.7944,-2.8109,-2.8109,-2.6626,-2.4103,-2.4103,-2.3086,0.0,0.0,0.0,0.0,0.0,0.0,0.0,0.0,0.0,0.0,0.0,0.0,0.0,0.0,0.0,0.0,0.0,0.0,0.0,0.0,0.0,0.0,0.0,0.0,0.0,0.0,0.0,0.0,0.0,0.0,0.0,0.0,0.0,0.0,0.0,0.0,0.0,0.0,-2.5166,-2.6602,-2.7959,-2.7949,-2.7664,0.0,0.0,0.0,0.0,0.0,0.0,-2.8289,-2.7859,-2.8502,-3.0522,-3.1031,-3.1824,-3.3006,-3.3499,-3.3829,-3.4008,-3.4008,-3.4008,-3.4008,-3.4008,-3.4008,-3.4008,-3.4008,-3.4008,-3.3829,-3.1524,-3.0298,-2.9804,-2.9295,-2.8173,-2.6856,-2.6856,-2.6856,-2.6931,0.0,0.0,0.0,0.0,0.0,0.0,0.0,0.0,0.0,0.0,0.0,-1.3123,-1.316,-1.4638,-1.6097,-1.7281,-1.6875,-1.6514,-1.6451,-1.5914,-1.5154,0.0,0.0,0.0,0.0,0.0,0.0,-2.5555,-2.6866,-2.7869,-2.8547,-2.8547,-2.8891,-2.9502,-2.9502,-2.8008,-2.551,-2.551,-2.4717,-2.3355,0.0,0.0,0.0,0.0,0.0,0.0,0.0,0.0,0.0,0.0,0.0,0.0,0.0,0.0,0.0,0.0,0.0,0.0,0.0,0.0,0.0,0.0,0.0,0.0,0.0,0.0,0.0,0.0,0.0,0.0,0.0,0.0,0.0,0.0,0.0,0.0,0.0,0.0,0.0,-2.9352,-3.0552,0.0,0.0,0.0,0.0,-2.6632,-2.6572,-2.7694,-3.0223,-3.0328,-3.1225,-3.323,-3.332,-3.3679,-3.4399,-3.4444,-3.4756,-3.54,-3.54,-3.54,-3.54,-3.54,-3.54,-3.54,-3.54,-3.54,-3.5295,-3.3873,-3.3275,-3.3066,-3.115,-3.0342,-3.0253,-3.0253,-3.0253,-3.0537,0.0,0.0,0.0,0.0,0.0,0.0,0.0,0.0,0.0,-1.1111,-1.1986,-1.2952,-1.3702,-1.5588,-1.7248,-1.8367,-1.9308,-1.9498,-1.8686,-1.7955,-1.7412,0.0,0.0,0.0,0.0,0.0,-2.5764,-2.753,-2.8008,-2.8577,-2.922,-2.922,-2.9355,-2.9606,-2.9606,-2.9082,-2.8143,-2.7709,-2.6512,-2.4822,-2.3917,-2.2407,0.0,0.0,0.0,0.0,0.0,0.0,0.0,0.0,0.0,0.0,0.0,0.0,0.0,0.0,0.0,0.0,0.0,0.0,0.0,0.0,0.0,0.0,0.0,0.0,0.0,0.0,0.0,0.0,0.0,0.0,0.0,0.0,0.0,0.0,0.0,0.0,0.0,-2.9442,-2.9998,0.0,-2.9295,-2.9594,-2.9624,-2.9146,-3.0298,-3.145,-3.2377,-3.2826,-3.338,-3.4098,-3.4966,-3.5534,-3.5759,-3.6163,-3.6492,-3.6731,-3.6731,-3.6731,-3.6731,-3.6731,-3.6731,-3.6731,-3.6731,-3.6731,-3.6701,-3.6207,-3.5534,-3.4711,-3.4008,-3.3724,-3.3724,-3.3724,-3.344,-3.3201,0.0,0.0,0.0,0.0,0.0,0.0,0.0,0.0,0.0,-1.1297,-1.2413,-1.3677,-1.4783,-1.6882,-1.8672,-1.9799,-2.0812,-2.0919,-1.983,-1.9126,-1.8332,0.0,-1.6997,0.0,0.0,-2.5046,-2.6811,-2.8607,-2.8831,-2.9265,-2.9894,-2.9894,-3.0013,-3.0238,-3.0238,-3.0238,-3.0193,-2.9535,-2.8353,-2.6871,-2.5974,-2.4156,-2.1944,0.0,0.0,0.0,0.0,0.0,0.0,0.0,0.0,0.0,0.0,0.0,0.0,0.0,0.0,0.0,0.0,0.0,0.0,0.0,0.0,0.0,0.0,0.0,0.0,0.0,0.0,0.0,0.0,0.0,0.0,0.0,0.0,0.0,0.0,0.0,-2.8678,-2.9759,-3.0298,-3.0657,-3.0881,-3.127,-3.1614,-3.1824,-3.3066,-3.4023,-3.4487,-3.4921,-3.5282,-3.5459,-3.6327,-3.6911,-3.7135,-3.7539,-3.7853,-3.8078,-3.8078,-3.8078,-3.8078,-3.8078,-3.8078,-3.8078,-3.8078,-3.8078,-3.8078,-3.8078,-3.7584,-3.6776,-3.6327,-3.6148,-3.6148,-3.6148,-3.5863,-3.5459,0.0,0.0,0.0,0.0,0.0,0.0,0.0,0.0,-1.1779,-1.23,-1.3853,-1.5311,-1.6375,-1.848,-2.0308,-2.1554,-2.1161,-2.0525,-1.9771,-1.9157,-1.7673,0.0,0.0,0.0,-2.459,-2.5974,-2.732,-2.8667,-2.9295,-2.9924,-3.0537,-3.0537,-3.0896,-3.1511,-3.1511,-3.1511,-3.1466,-3.0821,-3.0193,-2.9547,-2.8199,-2.6467,-2.4485,0.0,0.0,0.0,0.0,0.0,0.0,0.0,0.0,0.0,0.0,0.0,0.0,0.0,0.0,0.0,0.0,0.0,0.0,0.0,0.0,0.0,0.0,0.0,0.0,0.0,0.0,0.0,0.0,0.0,0.0,0.0,0.0,0.0,-2.751,-2.8813,-2.9864,-3.0522,-3.1764,-3.2826,-3.3469,-3.3559,-3.3844,-3.4518,-3.4593,-3.5177,-3.6447,-3.6537,-3.6821,-3.7419,-3.7479,-3.7808,-3.8452,-3.8467,-3.8811,-3.9448,-3.9448,-3.9448,-3.9448,-3.9448,-3.9448,-3.9448,-3.9448,-3.9448,-3.9448,-3.9448,-3.9448,-3.9313,-3.8003,-3.7464,-3.7464,-3.7464,-3.7464,-3.7434,0.0,0.0,0.0,0.0,0.0,0.0,0.0,-1.0777,-1.1159,-1.1738,-1.3614,-1.5311,-1.6375,-1.848,-2.0144,-2.0966,-2.1293,-2.1176,-2.0463,-1.9809,0.0,0.0,0.0,0.0,-2.6019,-2.7365,-2.8682,-2.9983,-3.0163,-3.0597,-3.1227,-3.1227,-3.1316,-3.1511,-3.1511,-3.1511,-3.1496,-3.1301,-3.1122,-3.0853,-2.9564,-2.8139,-2.6731,0.0,0.0,0.0,0.0,0.0,0.0,0.0,0.0,0.0,0.0,0.0,0.0,0.0,0.0,0.0,0.0,0.0,0.0,0.0,0.0,0.0,0.0,0.0,0.0,0.0,0.0,0.0,0.0,0.0,0.0,0.0,0.0,-2.8771,-2.9579,-3.0013,-3.0851,-3.2482,-3.3425,-3.4008,-3.4219,-3.5085,-3.5744,-3.5956,-3.6357,-3.6761,-3.7135,-3.7599,-3.7943,-3.8123,-3.9065,-3.9664,-3.9843,-4.0322,-4.0651,-4.0846,-4.0846,-4.0846,-4.0846,-4.0846,-4.0846,-4.0846,-4.0846,-4.0846,-4.0846,-4.0846,-4.0846,-4.0711,-3.9379,-3.8871,-3.8871,-3.8871,-3.8556,-3.8048,0.0,0.0,0.0,0.0,0.0,0.0,0.0,-1.0433,-1.1084,-1.2124,-1.3815,-1.5487,-1.7049,-1.8769,-2.0169,-2.1088,-2.0998,-2.0608,-1.9914,-1.9223,0.0,0.0,0.0,-2.5899,-2.7395,-2.8472,-2.9505,-3.0507,-3.0791,-3.1122,-3.1511,-3.1511,-3.1511,-3.1511,-3.1511,-3.1511,-3.1511,-3.1511,-3.1511,-3.1436,-3.0702,-2.9609,-2.8408,-2.8139,-2.6931,-2.5397,-2.5113,-2.4844,-2.4485,-2.3759,0.0,0.0,0.0,0.0,0.0,0.0,0.0,0.0,0.0,0.0,0.0,0.0,0.0,0.0,0.0,0.0,0.0,0.0,0.0,0.0,0.0,0.0,0.0,0.0,-2.8427,-3.0582,-3.2347,-3.2347,-3.2706,-3.4173,-3.4921,-3.5447,-3.5684,-3.6417,-3.6985,-3.7255,-3.7614,-3.7943,-3.8227,-3.8871,-3.923,-3.923,-4.0262,-4.0816,-4.0816,-4.1227,-4.1422,-4.1422,-4.1422,-4.1422,-4.1422,-4.1422,-4.1422,-4.1422,-4.1422,-4.1422,-4.1422,-4.1422,-4.1422,-4.1309,0.0,0.0,0.0,0.0,-3.9574,-3.914,0.0,0.0,0.0,0.0,0.0,0.0,0.0,-1.0418,-1.1236,-1.2973,-1.4186,-1.5739,-1.7965,-1.9158,-2.0295,-2.1578,-2.0484,-1.9474,-1.8906,0.0,0.0,-2.3565,-2.456,-2.6189,-2.8667,-2.9355,-2.9998,-3.0612,-3.1212,-3.1511,-3.1511,-3.1511,-3.1511,-3.1511,-3.1511,-3.1511,-3.1511,-3.1511,-3.1511,-3.1511,-3.1511,-3.0808,-2.9744,-2.9146,-2.8188,-2.7066,-2.6482,-2.5875,-2.5367,-2.5217,0.0,0.0,0.0,0.0,0.0,0.0,0.0,0.0,0.0,0.0,0.0,0.0,0.0,0.0,0.0,0.0,0.0,0.0,0.0,0.0,0.0,0.0,0.0,0.0,-2.9729,-3.2138,-3.519,-3.5205,-3.5115,-3.5654,-3.6297,-3.6911,-3.7464,-3.7584,-3.7883,-3.8467,-3.8497,-3.8811,-3.9499,0.0,0.0,0.0,0.0,-4.1527,-4.1527,-4.1564,-4.1594,-4.1594,-4.1594,-4.1594,-4.1594,-4.1594,-4.1594,-4.1594,-4.1594,-4.1594,-4.1594,-4.1594,-4.1594,-4.1594,-4.1482,-4.1422,-4.1347,-4.0726,-4.0502,-4.0412,0.0,0.0,0.0,0.0,0.0,0.0,0.0,-1.0359,-1.0879,-1.2922,-1.4186,-1.5739,-1.7965,-1.9158,-2.0295,-2.1578,-2.0197,-1.9406,0.0,0.0,-2.3041,-2.435,-2.6593,-2.8323,-2.937,-2.9998,-3.0657,-3.1316,-3.1436,-3.1511,-3.1511,-3.1511,-3.1511,-3.1511,-3.1511,-3.1511,-3.1511,-3.1511,-3.1511,-3.1511,-3.1511,-3.1346,-3.1122,-3.0987,-3.0778,-3.0539,-3.0404,-3.0285,-3.0016,-2.8981,-2.8532,-2.8173,-2.6677,0.0,0.0,0.0,0.0,0.0,0.0,0.0,0.0,0.0,0.0,0.0,0.0,0.0,0.0,0.0,0.0,0.0,0.0,0.0,0.0,-3.0479,-3.2886,-3.4951,-3.6133,-3.7075,-3.7479,-3.709,-3.7614,-3.8063,-3.8197,-3.8706,-3.908,-3.9215,-3.923,-3.9514,-4.0172,-4.0337,-4.0651,-4.1175,-4.1871,-4.2216,-4.2216,-4.2701,-4.2916,-4.2916,-4.2916,0.0,-4.2916,-4.2916,-4.2916,-4.2916,-4.2916,-4.2916,-4.2916,-4.2916,-4.2916,-4.2811,-4.1788,-4.1422,-4.1369,-4.1235,-4.119,-4.11,0.0,0.0,0.0,0.0,0.0,0.0,0.0,-1.0549,-1.0834,-1.2218,-1.3132,-1.4393,-1.6355,-1.7262,-1.8254,-1.9484,-1.8982,0.0,0.0,-2.1836,-2.3729,-2.5038,-2.735,-2.8906,-2.9592,-3.0193,-3.0823,-3.1511,-3.1511,-3.1511,-3.1511,-3.1511,-3.1511,-3.1511,-3.1511,-3.1511,-3.1511,-3.1511,-3.1511,-3.1511,-3.1511,-3.1511,-3.1511,-3.1511,-3.1511,-3.1511,-3.1511,-3.1511,-3.1406,-3.0776,-3.0552,-3.0387,-2.9385,-2.7908,-2.6288,0.0,0.0,0.0,0.0,0.0,0.0,0.0,0.0,0.0,0.0,0.0,0.0,0.0,0.0,-2.6408,0.0,0.0,-3.0986,-3.2302,-3.4472,-3.6327,-3.73,-3.7988,-3.8272,-3.7943,-3.8497,-3.8901,-3.8901,-3.9215,-3.9559,-3.9888,-3.9903,-4.0187,-4.0846,-4.1205,-4.1572,-4.1901,-4.2506,-4.2851,-4.2851,-4.3125,-4.329,-4.329,-4.329,-4.329,-4.329,-4.329,-4.329,-4.329,-4.329,-4.329,-4.329,-4.329,-4.329,-4.323,-4.2611,-4.2357,-4.2312,-4.2021,-4.1916,-4.1811,0.0,0.0,0.0,0.0,0.0,0.0,0.0,0.0,0.0,-1.166,-1.2128,-1.3044,-1.4708,-1.5387,-1.6056,-1.6921,0.0,0.0,0.0,-2.1442,-2.3695,-2.5516,-2.753,-2.8906,-2.9592,-3.0313,-3.0943,-3.1511,-3.1511,-3.1511,-3.1511,-3.1511,-3.1511,-3.1511,-3.1511,-3.1511,-3.1511,-3.1511,-3.1511,-3.1511,-3.1511,-3.1511,-3.1511,-3.1511,-3.1511,-3.1511,-3.1511,-3.1346,-3.1167,-3.1421,-3.1331,-3.1167,-3.1421,-3.024,-2.8442,-2.6707,-2.6004,0.0,0.0,0.0,0.0,0.0,0.0,0.0,0.0,0.0,-2.6677,-2.7709,-2.7934,-2.8353,-2.9699,-3.1212,-3.2751,-3.4218,-3.5804,-3.7255,-3.8422,-3.8586,-3.8586,-3.8586,-3.908,-3.9388,-3.9388,-3.9388,-3.9694,-4.0352,-4.0397,-4.0741,-4.1572,-4.2111,-4.2455,-4.259,-4.306,-4.329,-4.329,-4.329,-4.329,-4.329,-4.329,-4.329,-4.329,-4.329,-4.329,-4.329,-4.329,-4.329,-4.329,-4.329,-4.329,-4.329,-4.329,-4.329,-4.323,-4.2746,-4.259,-4.25,0.0,0.0,0.0,0.0,0.0,0.0,0.0,0.0,0.0,-1.2177,-1.235,-1.3044,-1.4708,-1.5387,-1.5558,0.0,0.0,0.0,-1.8528,-2.17,-2.4203,-2.5546,-2.753,-2.8906,-2.9592,-3.0763,-3.1421,-3.1511,-3.1511,-3.1511,-3.1511,-3.1511,-3.1511,-3.1511,-3.1511,-3.1511,-3.1511,-3.1511,-3.1511,-3.1511,-3.1511,-3.1511,-3.1511,-3.1511,-3.1511,-3.1511,-3.1511,-3.0763,-2.9983,-3.1122,-3.0761,-2.9998,-3.1137,-3.0554,-2.9337,-2.8502,0.0,-2.5914,-2.3392,-2.2868,-2.3152,-2.3684,-2.4612,-2.6183,0.0,0.0,-2.9819,-3.2228,-3.2721,-3.314,-3.4487,-3.4921,-3.5669,-3.7539,-3.8033,-3.8437,-3.92,-3.9305,-3.9305,-3.9305,-3.9328,-3.9388,-3.9388,-3.9388,-3.9694,-4.0352,-4.0397,-4.0935,-4.2231,-4.2366,-4.2626,-4.317,-4.3245,-4.329,-4.329,-4.329,-4.329,-4.329,-4.329,-4.329,-4.329,-4.329,-4.329,-4.329,-4.329,-4.329,-4.329,-4.329,-4.329,-4.329,-4.329,-4.329,-4.329,-4.32,-4.3185,-4.3135,0.0,0.0,0.0,0.0,0.0,0.0,0.0,0.0,0.0,0.0,-1.0819,-1.1337,-1.2354,-1.3257,-1.381,0.0,0.0,0.0,-1.7902,-2.1543,-2.4123,-2.5042,-2.6951,-2.8323,-2.8996,-3.0268,-3.0913,-3.0913,-3.1316,-3.1511,-3.1511,-3.1511,-3.1511,-3.1511,-3.1511,-3.1511,-3.1511,-3.1511,-3.1511,-3.1511,-3.1511,-3.1511,-3.1511,-3.1511,-3.1511,-3.1346,-3.021,-2.9475,0.0,0.0,-2.946,-2.931,-3.0972,-3.0372,-2.8951,-2.8682,-2.7649,0.0,-2.6701,-2.5863,0.0,0.0,-2.8622,-2.9116,-3.1674,-3.2048,-3.2392,-3.4277,-3.4666,-3.507,-3.6372,-3.6926,-3.7449,0.0,-3.8721,-3.9095,-3.9379,-3.9388,-3.9388,-3.9388,-3.9388,-3.9388,-3.9388,-3.9768,-4.0262,-4.092,-4.1324,-4.1953,-4.288,-4.2925,-4.3045,-4.329,-4.329,-4.329,-4.329,-4.329,-4.329,-4.329,-4.329,-4.329,-4.329,-4.329,-4.329,-4.329,-4.329,-4.329,-4.329,-4.329,-4.329,-4.329,-4.329,-4.329,-4.329,-4.329,-4.329,-4.3245,0.0,0.0,0.0,0.0,0.0,0.0,0.0,0.0,0.0,0.0,0.0,0.0,0.0,0.0,0.0,0.0,0.0,0.0,0.0,-2.0584,-2.3027,-2.4375,-2.6115,-2.7452,-2.8308,-2.9579,-3.0253,-3.0253,-3.0898,-3.1212,-3.1227,-3.1406,-3.1511,-3.1511,-3.1511,-3.1511,-3.1511,-3.1511,-3.1511,-3.1511,-3.1511,-3.1511,-3.1511,-3.1511,-3.1167,-3.0509,-2.9116,-2.8368,0.0,-2.7661,-2.7312,-2.7327,-2.9109,-2.8571,-2.7355,-2.7524,-2.648,-2.5806,-2.8132,0.0,0.0,-3.1061,-3.1644,-3.1809,-3.3634,-3.4053,-3.4427,-3.5759,-3.6028,-3.6372,-3.7479,-3.8063,-3.8452,-3.8646,-3.9095,-3.9388,-3.9388,-3.9388,-3.9388,-3.9388,-3.9574,-3.9694,-3.9694,-4.0127,-4.0741,-4.1632,-4.2126,-4.2641,-4.326,-4.329,-4.329,-4.329,-4.329,-4.329,-4.329,-4.329,-4.329,-4.329,-4.329,-4.329,-4.329,-4.329,-4.329,-4.329,-4.329,-4.329,-4.329,-4.329,-4.329,-4.329,-4.329,-4.329,-4.329,-4.329,-4.329,-4.329,0.0,0.0,0.0,0.0,0.0,0.0,0.0,0.0,0.0,0.0,0.0,0.0,0.0,0.0,0.0,0.0,0.0,0.0,0.0,-1.8578,-2.058,-2.3611,-2.4982,-2.6272,-2.7615,-2.8948,-2.9636,-2.9636,-3.0223,-3.0537,-3.0552,-3.1197,-3.1511,-3.1511,-3.1511,-3.1511,-3.1511,-3.1511,-3.1511,-3.1511,-3.1511,-3.1511,-3.1511,-3.1511,-3.0315,-2.8682,-2.8622,0.0,-2.6469,-2.5316,-2.4074,-2.3312,-2.4607,-2.4611,0.0,-2.4765,-2.3566,-2.2724,0.0,0.0,-2.723,-2.9894,-3.2003,-3.3769,-3.513,-3.5444,-3.5804,-3.709,-3.7345,-3.7554,-3.8227,-3.8377,-3.8601,-3.9239,-3.9373,-3.9388,-3.9388,-3.9388,-3.9388,-3.9388,-3.9978,-4.0367,0.0,-4.0382,-4.0935,-4.2276,-4.2396,-4.2641,-4.326,-4.329,-4.329,-4.329,-4.329,-4.329,-4.329,-4.329,-4.329,-4.329,-4.329,-4.329,-4.329,-4.329,-4.329,-4.329,-4.329,-4.329,-4.329,-4.329,-4.329,-4.329,-4.329,-4.329,-4.329,-4.329,-4.329,-4.329,0.0,0.0,0.0,0.0,0.0,0.0,0.0,0.0,0.0,0.0,0.0,0.0,0.0,0.0,0.0,0.0,0.0,0.0,0.0,-1.7864,-1.9967,-2.1905,-2.3493,-2.515,-2.6901,-2.7809,-2.8498,-2.8936,-2.9579,-2.9894,-2.9894,-3.0133,-3.0238,-3.0238,-3.0238,-3.0238,-3.0238,-3.0238,-3.0238,-3.0268,-3.0687,-3.0315,-2.9594,-2.9594,-2.8622,-2.7011,0.0,0.0,-2.3844,-2.2735,-2.2308,-2.2467,-2.3855,-2.3271,-2.2156,-2.2562,-2.3545,-2.491,0.0,0.0,-2.9605,-3.1376,-3.3336,-3.4999,-3.5619,-3.5458,-3.559,-3.7073,-3.5518,-3.4402,-3.6168,-3.5744,-3.5654,-3.7225,-3.7823,-3.8392,-3.9254,-3.9388,-3.9589,-4.0023,-4.0262,0.0,0.0,0.0,0.0,-4.2366,-4.2761,-4.3105,-4.329,-4.329,-4.329,-4.329,-4.329,-4.329,-4.329,-4.329,-4.329,-4.329,-4.329,-4.329,-4.329,-4.329,-4.329,-4.329,-4.329,-4.329,-4.329,-4.329,-4.329,-4.329,-4.329,-4.329,-4.329,-4.329,-4.329,-4.329,0.0,0.0,0.0,0.0,0.0,0.0,0.0,0.0,0.0,0.0,0.0,0.0,0.0,0.0,0.0,0.0,0.0,0.0,0.0,0.0,-1.8264,-1.9737,-2.1134,-2.2712,-2.4548,-2.5263,-2.6003,-2.6811,-2.7949,-2.8543,-2.8558,-2.9277,-2.9606,-2.9579,-2.9305,-2.9165,-2.9165,-2.9165,-2.8923,-2.8539,-2.9199,-2.87,-2.7542,-2.7337,-2.6297,0.0,0.0,0.0,-2.0921,-2.0046,-1.9968,-2.0519,-2.2038,-2.1636,-2.0807,-2.161,-2.2837,-2.4573,-2.753,-2.9219,-3.0641,-3.282,-3.4505,-3.558,-3.5417,-3.5346,-3.5447,-3.58,-3.4053,-3.2706,-3.3583,-3.3212,-3.3453,-3.5466,-3.6313,-3.736,-3.9134,-3.9388,-3.9664,-4.0322,-4.0606,-4.1175,0.0,0.0,0.0,-4.2701,-4.309,-4.329,-4.329,-4.329,-4.329,-4.329,-4.329,-4.329,-4.329,-4.329,-4.329,-4.329,-4.329,-4.329,-4.329,-4.329,-4.329,-4.329,-4.329,-4.329,-4.329,-4.329,-4.329,-4.329,-4.329,-4.329,-4.329,-4.329,-4.329,-4.329,0.0,0.0,0.0,0.0,0.0,0.0,0.0,0.0,0.0,0.0,0.0,0.0,0.0,0.0,0.0,0.0,0.0,0.0,0.0,0.0,0.0,-1.7342,-1.8072,-1.9224,-2.0886,-2.1567,-2.2423,-2.3485,-2.541,-2.6365,-2.6395,-2.8356,-2.9238,-2.9185,-2.8442,-2.8107,-2.8079,-2.8079,-2.7385,-2.6344,-2.7078,-2.661,-2.5419,-2.4927,0.0,0.0,0.0,0.0,0.0,0.0,0.0,0.0,0.0,-1.9891,-2.0231,-2.1929,-2.172,-2.2166,-2.7794,-2.9512,-3.0526,-3.3903,-3.5311,-3.5581,-3.4594,-3.5037,-3.5173,-3.3341,-3.2748,-3.2076,0.0,0.0,-3.1857,-3.3937,-3.493,-3.638,-3.897,-3.9394,-3.9679,0.0,0.0,0.0,0.0,0.0,0.0,-4.329,0.0,-4.329,-4.329,-4.329,-4.329,-4.329,-4.329,-4.329,-4.329,-4.329,-4.329,-4.329,-4.329,-4.329,-4.329,-4.329,-4.329,-4.329,-4.329,-4.329,-4.329,-4.329,-4.329,-4.329,-4.329,-4.329,-4.329,-4.329,-4.329,-4.329,0.0,0.0,0.0,0.0,0.0,0.0,0.0,0.0,0.0,0.0,0.0,0.0,0.0,0.0,0.0,0.0,0.0,0.0,0.0,0.0,0.0,0.0,0.0,0.0,0.0,0.0,0.0,-2.1813,-2.2778,-2.325,-2.3264,-2.417,-2.4403,-2.4028,-2.4221,-2.4086,-2.3706,-2.3706,-2.3523,-2.3287,0.0,-2.341,-2.2291,0.0,0.0,0.0,0.0,0.0,0.0,0.0,0.0,0.0,0.0,-2.1069,-2.1475,-2.355,-2.4758,-2.6052,-2.8904,-3.1011,-3.2482,-3.2817,-3.3835,-3.4639,-3.4094,-3.2567,-3.1254,-3.1059,-2.7873,-2.5243,0.0,0.0,0.0,-3.0497,-3.3296,0.0,-3.8301,-3.9095,0.0,-4.0995,0.0,-4.1833,-4.297,-4.32,0.0,0.0,-4.329,-4.329,-4.329,-4.329,-4.329,-4.329,-4.329,-4.329,-4.329,-4.329,-4.329,-4.329,-4.329,-4.329,-4.329,-4.329,-4.329,-4.329,-4.329,-4.329,-4.329,-4.329,-4.329,-4.329,-4.329,-4.329,-4.329,-4.329,-4.329,-4.329,0.0,0.0,0.0,0.0,0.0,0.0,0.0,0.0,0.0,0.0,0.0,0.0,0.0,0.0,0.0,0.0,0.0,0.0,0.0,0.0,0.0,0.0,0.0,0.0,0.0,0.0,0.0,0.0,0.0,0.0,-2.1251,-2.2127,-2.2397,-2.2105,-2.2081,-2.1894,-2.1633,-2.1633,0.0,0.0,0.0,0.0,0.0,0.0,0.0,0.0,0.0,0.0,0.0,0.0,0.0,-2.1757,-2.2397,-2.2761,-2.3339,-2.5322,0.0,-2.7354,-2.9749,-3.1433,-3.2593,-3.2815,-3.3489,-3.3705,-3.2032,-3.0256,-2.8464,-2.6808,-2.3729,0.0,0.0,0.0,0.0,0.0,0.0,0.0,-3.6729,-3.8011,-3.9029,0.0,-4.0334,0.0,-4.2431,-4.2548,-4.2765,0.0,-4.329,-4.329,-4.329,-4.329,-4.329,-4.329,-4.329,-4.329,-4.329,-4.329,-4.329,-4.329,-4.329,-4.329,-4.329,-4.329,-4.329,-4.329,-4.329,-4.329,-4.329,-4.329,-4.329,-4.329,-4.329,-4.329,-4.329,-4.329,-4.329,-4.329,0.0,0.0,0.0,0.0,0.0,0.0,0.0,0.0,0.0,0.0,0.0,0.0,0.0,0.0,0.0,0.0,0.0,0.0,0.0,0.0,0.0,0.0,0.0,0.0,0.0,0.0,0.0,0.0,0.0,0.0,0.0,0.0,0.0,0.0,0.0,0.0,0.0,0.0,0.0,0.0,0.0,0.0,0.0,0.0,0.0,0.0,0.0,0.0,0.0,0.0,-2.3301,-2.413,-2.428,-2.4707,-2.5448,-2.6954,-2.719,-2.7556,-3.0431,-3.1343,-3.1817,-3.3162,-3.3485,-3.2619,-2.9353,-2.7928,-2.6162,-2.2009,0.0,-1.9814,-2.1027,0.0,-2.3811,-2.8685,0.0,-3.2193,-3.4886,-3.6565,-3.7621,-3.795,-3.8827,-3.9893,-4.1135,-4.1336,-4.1767,-4.278,-4.286,-4.2996,-4.329,-4.3155,-4.3076,-4.3076,-4.3076,-4.3155,-4.329,-4.329,-4.321,-4.3076,-4.3076,-4.2996,-4.286,-4.286,-4.286,-4.286,-4.286,-4.286,-4.286,-4.3036,-4.3076,-4.3076,-4.325,-4.329,-4.329,-4.329,-4.329,-4.329,0.0,0.0,0.0,0.0,0.0,0.0,0.0,0.0,0.0,0.0,0.0,0.0,0.0,0.0,0.0,0.0,0.0,0.0,0.0,0.0,0.0,0.0,0.0,0.0,0.0,0.0,0.0,0.0,0.0,0.0,0.0,0.0,0.0,0.0,0.0,0.0,0.0,0.0,0.0,0.0,0.0,0.0,0.0,0.0,0.0,0.0,0.0,0.0,0.0,0.0,-2.4519,-2.4845,-2.5783,-2.6449,-2.7005,-2.7745,-2.8561,-2.9529,-3.0985,-3.1685,-3.2131,-3.2386,-3.2139,-3.0934,-2.7666,-2.5385,0.0,0.0,0.0,-1.7061,-1.9067,-1.9902,0.0,-2.7345,0.0,0.0,0.0,0.0,-3.6184,0.0,0.0,0.0,0.0,0.0,0.0,0.0,-4.0504,-4.1309,-4.321,-4.2412,-4.1891,-4.1891,-4.1891,-4.233,-4.329,-4.329,-4.282,-4.1891,-4.1891,-4.1393,-4.0504,-4.0504,-4.0504,-4.0504,-4.0504,-4.0504,-4.0546,-4.1518,-4.1891,-4.1988,-4.2941,-4.329,-4.329,-4.329,-4.329,-4.329,0.0,0.0,0.0,0.0,0.0,0.0,0.0,0.0,0.0,0.0,0.0,0.0,0.0,0.0,0.0,0.0,0.0,0.0,0.0,0.0,0.0,0.0,0.0,0.0,0.0,0.0,0.0,0.0,0.0,0.0,0.0,0.0,0.0,0.0,0.0,0.0,0.0,0.0,0.0,0.0,0.0,0.0,0.0,0.0,0.0,0.0,0.0,0.0,0.0,0.0,-2.3226,-2.4211,-2.5959,-2.6876,-2.7316,-2.7256,-2.8247,-2.9515,-3.0331,-3.0959,-3.1512,-3.2077,-3.1599,-2.9967,-2.6063,0.0,0.0,0.0,0.0,-1.5246,-1.8055,0.0,0.0,0.0,0.0,0.0,0.0,0.0,0.0,0.0,0.0,0.0,0.0,0.0,0.0,0.0,-3.9899,-4.0375,-4.1491,-4.1,-4.0703,-4.0703,-4.0703,-4.0958,-4.1532,-4.1532,-4.1267,-4.0703,-4.0703,-4.0447,-3.9899,-3.9899,-3.9899,-3.9899,-3.9899,-3.9899,-3.9942,-4.049,-4.0703,-4.0788,-4.1309,-4.1532,-4.1532,-4.1532,-4.1532,-4.1532,0.0,0.0,0.0,0.0,0.0,0.0,0.0,0.0,0.0,0.0,0.0,0.0,0.0,0.0,0.0,0.0,0.0,0.0,0.0,0.0,0.0,0.0,0.0,0.0,0.0,0.0,0.0,0.0,0.0,0.0,0.0,0.0,0.0,0.0,0.0,0.0,0.0,0.0,0.0,0.0,0.0,0.0,0.0,0.0,0.0,0.0,0.0,0.0,0.0,0.0,-2.1506,-2.3058,-2.4877,-2.5971,-2.6575,-2.6373,-2.7457,-2.89,-2.9603,-3.0281,-3.0959,-3.1687,-3.1148,-2.9214,-2.4531,-2.2347,0.0,0.0,-1.3817,-1.4193,-1.7438,0.0,0.0,0.0,0.0,0.0,0.0,0.0,0.0,0.0,0.0,0.0,0.0,0.0,0.0,0.0,-3.9152,-3.9285,-3.9492,-3.9492,-3.9492,-3.9492,-3.9492,-3.9637,-3.9899,-3.9899,-3.9768,-3.9492,-3.9492,-3.9417,-3.9152,-3.9152,-3.9152,-3.9152,-3.9152,-3.9152,-3.9152,-3.9404,-3.9492,-3.9536,-3.9812,-3.9899,-3.9899,-3.9899,-3.9899,-3.9899,0.0,0.0,0.0,0.0,0.0,0.0,0.0,0.0,0.0,0.0,0.0,0.0,0.0,0.0,0.0,0.0,0.0,0.0,0.0,0.0,0.0,0.0,0.0,0.0,0.0,0.0,0.0,0.0,0.0,0.0,0.0,0.0,0.0,0.0,0.0,0.0,0.0,0.0,0.0,0.0,0.0,0.0,0.0,0.0,0.0,0.0,0.0,0.0,0.0,0.0,0.0,-2.1681,-2.1882,-2.3037,-2.4481,-2.5398,0.0,0.0,-2.9503,-3.0545,-3.1223,-3.0859,-3.0319,-2.8436,-2.2962,0.0,0.0,-1.4381,-1.3273,-1.408,-1.6958,-1.6622,0.0,0.0,0.0,0.0,0.0,0.0,0.0,0.0,0.0,0.0,0.0,0.0,0.0,0.0,-3.6722,-3.715,-3.8198,-3.8289,-3.8289,-3.8289,-3.8289,-3.8783,-3.9899,-3.9899,-3.936,-3.8289,-3.8289,-3.7723,-3.6722,-3.6722,-3.6722,-3.6722,-3.6722,-3.6722,-3.6803,-3.7848,-3.8289,-3.8379,-3.9448,-3.9899,-3.9899,-3.9899,-3.9899,-3.9899,0.0,0.0,0.0,0.0,0.0,0.0,0.0,0.0,0.0,0.0,0.0,0.0,0.0,0.0,0.0,0.0,0.0,0.0,0.0,0.0,0.0,0.0,0.0,0.0,0.0,0.0,0.0,0.0,0.0,0.0,0.0,0.0,0.0,0.0,0.0,0.0,0.0,0.0,0.0,0.0,0.0,0.0,0.0,0.0,0.0,0.0,0.0,0.0,0.0,0.0,0.0,0.0,-1.912,-1.971,0.0,0.0,-2.4556,-2.6289,-2.7055,-2.831,-2.944,-2.9527,-2.9189,-2.7406,-2.2212,0.0,0.0,-1.4243,-1.3198,-1.3654,-1.5142,-1.5299,-1.6015,0.0,0.0,0.0,0.0,0.0,0.0,0.0,0.0,0.0,0.0,0.0,0.0,0.0,-3.6405,-3.6581,-3.707,-3.7057,-3.7057,-3.7057,-3.7057,-3.7289,-3.7782,-3.7782,-3.7553,-3.7057,-3.7057,-3.6849,-3.6405,-3.6405,-3.6405,-3.6405,-3.6405,-3.6405,-3.6452,-3.6883,-3.7057,-3.7103,-3.7599,-3.7782,-3.7782,-3.7782,-3.7782,-3.7782,0.0,0.0,0.0,0.0,0.0,0.0,0.0,0.0,0.0,0.0,0.0,0.0,0.0,0.0,0.0,0.0,0.0,0.0,0.0,0.0,0.0,0.0,0.0,0.0,0.0,0.0,0.0,0.0,0.0,0.0,0.0,0.0,0.0,0.0,0.0,0.0,0.0,0.0,0.0,0.0,0.0,0.0,0.0,0.0,0.0,0.0,0.0,0.0,0.0,0.0,0.0,0.0,0.0,0.0,0.0,0.0,-2.2347,-2.4054,-2.5084,-2.6465,-2.7795,-2.8511,-2.7908,-2.6,0.0,0.0,-1.8492,-1.4087,-1.3198,-1.3328,-1.3765,-1.4406,-1.5148,-1.5906,0.0,-2.0137,0.0,0.0,0.0,0.0,0.0,0.0,0.0,0.0,0.0,-3.638,-3.6405,-3.6405,-3.6405,-3.6405,-3.6405,-3.6405,-3.6405,-3.6405,-3.6405,-3.6405,-3.6405,-3.6405,-3.6405,-3.6405,-3.6405,-3.6405,-3.6405,-3.6405,-3.6405,-3.6405,-3.6405,-3.6405,-3.6405,-3.6405,-3.6405,-3.6405,-3.6405,-3.6405,-3.6405,-3.6405,0.0,0.0,0.0,0.0,0.0,0.0,0.0,0.0,0.0,0.0,0.0,0.0,0.0,0.0,0.0,0.0,0.0,0.0,0.0,0.0,0.0,0.0,0.0,0.0,0.0,0.0,0.0,0.0,0.0,0.0,0.0,0.0,0.0,0.0,0.0,0.0,0.0,0.0,0.0,0.0,0.0,0.0,0.0,0.0,0.0,0.0,0.0,0.0,0.0,0.0,0.0,0.0,0.0,0.0,0.0,0.0,-2.0627,-2.2008,-2.4199,-2.5636,-2.6776,-2.7846,-2.6477,-2.4117,0.0,0.0,-1.6622,-1.3792,-1.3198,-1.3198,-1.321,-1.4136,-1.4896,-1.4909,-1.6329,0.0,0.0,0.0,0.0,0.0,0.0,0.0,0.0,0.0,0.0,-3.6405,-3.6405,0.0,-3.6405,-3.6405,-3.6405,-3.6405,-3.6405,-3.6405,-3.6405,-3.6405,-3.6405,-3.6405,-3.6405,-3.6405,-3.6405,-3.6405,-3.6405,-3.6405,-3.6405,-3.6405,-3.6405,-3.6405,-3.6405,-3.6405,-3.6405,-3.6405,-3.6405,-3.6405,-3.6405,-3.6405,0.0,0.0,0.0,0.0,0.0,0.0,0.0,0.0,0.0,0.0,0.0,0.0,0.0,0.0,0.0,0.0,0.0,0.0,0.0,0.0,0.0,0.0,0.0,0.0,0.0,0.0,0.0,0.0,0.0,0.0,0.0,0.0,0.0,0.0,0.0,0.0,0.0,0.0,0.0,0.0,0.0,0.0,0.0,0.0,0.0,0.0,0.0,0.0,0.0,0.0,0.0,0.0,0.0,0.0,0.0,-1.63,0.0,0.0,-2.0638,-2.1656,-2.2527,-2.2447,-2.2209,-2.1282,-1.8468,-1.7601,-1.6597,-1.3774,-1.3198,-1.3198,-1.3198,-1.3822,-1.4588,-1.5336,-1.6195,0.0,0.0,0.0,0.0,0.0,0.0,0.0,0.0,0.0,-3.6405,-3.6405,-3.6405,-3.6405,-3.6405,-3.6405,-3.6405,-3.6405,-3.6405,-3.6405,-3.6405,-3.6405,-3.6405,-3.6405,-3.6405,-3.6405,-3.6405,-3.6405,-3.6405,-3.6405,-3.6405,-3.6405,-3.6405,-3.6405,-3.6405,-3.6405,-3.6405,-3.6405,-3.6405,-3.6405,-3.6405,-3.6405,0.0,0.0,0.0,0.0,0.0,0.0,0.0,0.0,0.0,0.0,0.0,0.0,0.0,0.0,0.0,0.0,0.0,0.0,0.0,0.0,0.0,0.0,0.0,0.0,0.0,0.0,0.0,0.0,0.0,0.0,0.0,0.0,0.0,0.0,0.0,0.0,0.0,0.0,0.0,0.0,0.0,0.0,-1.4422,0.0,0.0,0.0,0.0,0.0,0.0,0.0,0.0,0.0,0.0,0.0,0.0,0.0,-1.589,0.0,0.0,-1.9058,-1.9774,-1.9786,-1.9635,0.0,0.0,-1.6321,-1.56,-1.3616,-1.3198,-1.3198,-1.3198,-1.369,-1.4374,-1.5261,-1.6019,0.0,0.0,0.0,0.0,0.0,0.0,0.0,0.0,0.0,-3.6405,-3.6405,-3.6405,-3.6405,-3.6405,-3.6405,-3.6405,-3.6405,-3.6405,-3.6405,-3.6405,-3.6405,-3.6405,-3.6405,-3.6405,-3.6405,-3.6405,-3.6405,-3.6405,-3.6405,-3.6405,-3.6405,0.0,-3.6405,-3.6405,-3.6405,-3.6405,-3.6405,-3.6405,-3.6405,-3.6405,-3.6405,0.0,0.0,0.0,0.0,0.0,0.0,0.0,0.0,0.0,0.0,0.0,0.0,0.0,0.0,0.0,0.0,0.0,0.0,0.0,0.0,0.0,0.0,0.0,0.0,0.0,0.0,0.0,-1.3258,-1.3774,-1.4086,-1.4156,0.0,0.0,0.0,0.0,0.0,0.0,-1.3493,-1.357,-1.3132,-1.4169,-1.4227,0.0,0.0,0.0,0.0,0.0,0.0,0.0,0.0,0.0,0.0,0.0,0.0,0.0,0.0,0.0,0.0,0.0,0.0,0.0,0.0,0.0,0.0,0.0,-1.5148,0.0,-1.3328,-1.3198,-1.321,-1.3248,-1.369,-1.4249,-1.4916,0.0,0.0,0.0,0.0,0.0,0.0,0.0,0.0,0.0,-3.4801,-3.6405,-3.6405,-3.6405,-3.6405,-3.6405,-3.6405,-3.6405,-3.6405,-3.6405,-3.6405,-3.6405,-3.6405,-3.6405,-3.6405,-3.6405,-3.6405,-3.6405,-3.6405,-3.6405,-3.6405,-3.6405,-3.6405,-3.6405,-3.6405,-3.6405,-3.6405,-3.6405,-3.6405,-3.6405,-3.6405,-3.6405,-3.6405,0.0,0.0,0.0,0.0,0.0,0.0,0.0,0.0,0.0,0.0,0.0,0.0,0.0,0.0,0.0,0.0,0.0,0.0,0.0,0.0,0.0,0.0,0.0,0.0,0.0,0.0,0.0,-1.3806,-1.3595,-1.3872,-1.4634,-1.4404,0.0,0.0,0.0,-1.2543,-1.202,-1.2655,-1.2759,-1.255,-1.32,-1.3325,0.0,0.0,0.0,0.0,-1.2828,-1.2111,0.0,0.0,0.0,0.0,0.0,0.0,0.0,0.0,-1.2669,-1.3204,-1.3548,0.0,-1.5009,-1.4795,-1.4802,0.0,0.0,0.0,0.0,0.0,0.0,0.0,0.0,0.0,0.0,0.0,0.0,0.0,0.0,0.0,0.0,0.0,0.0,0.0,0.0,-3.5479,-3.6405,-3.6405,-3.6405,-3.6405,-3.6405,-3.6405,-3.6405,-3.6405,-3.6405,-3.6405,-3.6405,-3.6405,-3.6405,-3.6405,-3.6405,-3.6405,-3.6405,-3.6405,-3.6405,-3.6405,-3.6405,-3.6405,-3.6405,-3.6405,-3.6405,-3.6405,-3.6405,-3.6405,-3.6405,-3.6405,-3.6405,-3.6405,0.0,0.0,0.0,0.0,0.0,0.0,0.0,0.0,0.0,0.0,0.0,0.0,0.0,0.0,0.0,0.0,0.0,0.0,0.0,0.0,0.0,0.0,0.0,0.0,0.0,0.0,0.0,0.0,0.0,-1.3131,0.0,0.0,0.0,0.0,0.0,-1.1671,-1.1463,-1.1962,-1.2107,-1.2017,-1.2495,0.0,0.0,0.0,0.0,0.0,-1.1792,-1.1266,0.0,-1.0672,-1.0687,-1.0728,0.0,0.0,0.0,0.0,-1.1436,-1.1853,-1.1812,-1.2552,-1.3378,-1.3565,-1.3466,-1.3366,0.0,0.0,0.0,0.0,0.0,0.0,0.0,0.0,0.0,0.0,0.0,0.0,0.0,0.0,0.0,0.0,0.0,0.0,0.0,-3.5717,-3.6405,-3.6405,-3.6405,-3.6405,-3.6405,-3.6405,-3.6405,-3.6405,-3.6405,-3.6405,-3.6405,-3.6405,-3.6405,-3.6405,-3.6405,-3.6405,-3.6405,-3.6405,-3.6405,-3.6405,-3.6405,-3.6405,-3.6405,-3.6405,-3.6405,-3.6405,-3.6405,-3.6405,-3.6405,-3.6405,-3.6405,-3.6405,0.0,0.0,0.0,0.0,0.0,0.0,0.0,0.0,0.0,0.0,0.0,0.0,0.0,0.0,0.0,0.0,0.0,0.0,0.0,0.0,0.0,0.0,0.0,0.0,0.0,0.0,0.0,0.0,0.0,0.0,0.0,0.0,-1.2429,0.0,0.0,-1.0886,-1.0918,-1.1321,-1.1531,-1.1636,-1.1973,0.0,0.0,0.0,0.0,0.0,0.0,0.0,0.0,-1.0303,-1.0303,-1.0293,-1.0224,0.0,0.0,0.0,0.0,0.0,-1.1044,-1.1675,-1.2499,-1.3496,-1.3078,-1.2662,0.0,0.0,0.0,0.0,0.0,0.0,0.0,0.0,0.0,0.0,0.0,0.0,0.0,0.0,0.0,0.0,0.0,0.0,-3.468,-3.5717,-3.6405,-3.6405,-3.6405,-3.6405,-3.6405,-3.6405,-3.6405,-3.6405,-3.6405,-3.6405,-3.6405,-3.6405,-3.6405,-3.6405,-3.6405,-3.6405,-3.6405,-3.6405,-3.6405,-3.6405,-3.6405,-3.6405,-3.6405,-3.6405,-3.6405,-3.6405,-3.6405,-3.6405,-3.6405,-3.6405,-3.6405,-3.6405,0.0,0.0,0.0,0.0,0.0,0.0,0.0,0.0,0.0,0.0,0.0,0.0,0.0,0.0,0.0,0.0,0.0,0.0,0.0,0.0,0.0,0.0,0.0,0.0,0.0,0.0,0.0,0.0,0.0,0.0,-1.194,-1.1925,-1.167,-1.1219,-1.066,-1.0409,-1.0419,-1.0478,-1.0932,-1.1606,-1.1675,0.0,0.0,0.0,0.0,0.0,0.0,0.0,0.0,-1.0303,-1.0303,-1.0234,-0.9835,0.0,0.0,0.0,0.0,0.0,-1.1279,-1.1665,-1.1798,-1.2088,-1.2283,-1.2456,-1.2686,0.0,0.0,0.0,0.0,0.0,0.0,0.0,0.0,0.0,0.0,0.0,0.0,0.0,0.0,0.0,0.0,-3.468,-3.468,-3.5717,-3.6405,-3.6405,-3.6405,-3.6405,-3.6405,-3.6405,-3.6405,-3.6405,-3.6405,-3.6405,-3.6405,-3.6405,-3.6405,-3.6405,-3.6405,-3.6405,-3.6405,-3.6405,-3.6405,-3.6405,-3.6405,-3.6405,-3.6405,-3.6405,-3.6405,-3.6405,-3.6405,-3.6405,-3.6405,-3.6405,-3.6405,-3.6342,0.0,0.0,0.0,0.0,0.0,0.0,0.0,0.0,0.0,0.0,0.0,0.0,0.0,0.0,0.0,0.0,0.0,0.0,0.0,0.0,0.0,0.0,0.0,0.0,0.0,0.0,0.0,0.0,0.0,-1.0866,-1.1334,-1.1341,-1.1094,-1.0611,-1.039,-1.0303,-1.0322,-1.0527,-1.1007,-1.1606,0.0,0.0,0.0,0.0,0.0,0.0,0.0,0.0,0.0,0.0,-1.0303,-1.0185,-0.9502,0.0,0.0,0.0,0.0,0.0,-1.0643,-1.1084,-1.1407,-1.22,-1.2595,-1.2867,-1.3188,0.0,0.0,0.0,0.0,0.0,0.0,0.0,0.0,0.0,0.0,0.0,0.0,0.0,0.0,0.0,0.0,-3.4399,-3.4688,-3.5454,-3.6044,-3.6392,-3.6405,-3.6405,-3.6405,-3.6405,-3.6405,-3.6405,-3.6405,-3.6405,-3.6405,-3.6405,-3.6405,-3.6405,-3.6405,-3.6405,-3.6405,-3.6405,-3.6405,-3.6405,-3.6405,-3.6405,-3.6405,-3.6405,-3.6405,-3.6405,-3.6405,-3.6405,-3.6367,-3.6031,-3.5918,-3.5793,0.0,0.0,0.0,0.0,0.0,0.0,0.0,0.0,0.0,0.0,0.0,0.0,0.0,0.0,0.0,0.0,0.0,0.0,0.0,0.0,0.0,0.0,0.0,0.0,0.0,0.0,-1.07,-1.043,-1.0352,-1.0486,-1.0829,-1.0829,-1.0649,0.0,-1.04,-1.043,-1.0479,-1.0879,-1.1271,-1.1606,0.0,0.0,0.0,0.0,0.0,0.0,0.0,0.0,0.0,0.0,0.0,0.0,0.0,0.0,0.0,-0.9004,-0.9072,-0.9336,-1.0195,-1.0664,-1.1172,-1.2318,-1.2896,-1.3403,-1.4244,0.0,0.0,0.0,0.0,0.0,0.0,0.0,0.0,0.0,0.0,0.0,0.0,0.0,-3.3124,-3.3124,-3.3558,-3.406,-3.4487,-3.5094,-3.5671,-3.6132,-3.6329,-3.6405,-3.6405,-3.6405,-3.6405,-3.6405,-3.6405,-3.6405,-3.6405,-3.6405,-3.6405,-3.6405,-3.6405,-3.6405,-3.6405,-3.6405,-3.6405,-3.6405,-3.6405,-3.6405,-3.6405,-3.6405,-3.6405,-3.6405,-3.6405,-3.6329,-3.6107,-3.5508,-3.5219,-3.4994,0.0,0.0,0.0,0.0,0.0,0.0,0.0,0.0,0.0,0.0,0.0,0.0,0.0,0.0,0.0,0.0,0.0,0.0,0.0,0.0,0.0,0.0,0.0,0.0,0.0,-1.0764,-1.0508,-1.0869,-1.0478,-1.0322,-1.0351,-1.0351,-1.0322,-1.0322,-1.0693,-1.0869,-1.0889,-1.1349,-1.1577,-1.1606,-1.1606,0.0,0.0,0.0,0.0,0.0,0.0,0.0,0.0,0.0,0.0,0.0,0.0,0.0,-0.9004,-0.9004,-0.926,-0.9757,-1.0615,-1.0889,-1.1025,-1.1555,-1.2586,0.0,-1.5656,-1.6053,0.0,0.0,0.0,0.0,0.0,0.0,0.0,0.0,0.0,0.0,0.0,0.0,-3.3124,-3.3124,-3.3558,-3.3922,-3.396,-3.4868,-3.552,-3.5558,-3.6069,-3.6405,-3.6405,-3.6405,-3.6405,-3.6405,-3.6405,-3.6405,-3.6405,-3.6405,-3.6405,-3.6405,-3.6405,-3.6405,-3.6405,-3.6405,-3.6405,-3.6405,-3.6405,-3.6405,-3.6405,-3.6405,-3.6405,-3.6405,-3.6405,-3.6056,-3.5495,-3.4944,-3.4462,-3.401,0.0,0.0,0.0,0.0,0.0,0.0,0.0,0.0,0.0,0.0,0.0,0.0,0.0,0.0,0.0,0.0,0.0,0.0,0.0,0.0,0.0,0.0,0.0,-1.0743,-1.1164,-1.084,-1.0625,-1.0518,-1.0361,-1.0303,-1.0303,-1.0303,0.0,0.0,-1.084,-1.1055,-1.1349,-1.1506,-1.1606,-1.1577,-1.1281,-1.1055,0.0,0.0,0.0,0.0,0.0,0.0,0.0,0.0,-0.9747,-0.9494,-0.8828,-0.8799,-0.9004,-0.9004,-0.9279,-0.9737,-1.0361,-1.1309,-1.2432,-1.3652,0.0,0.0,0.0,0.0,0.0,0.0,0.0,0.0,0.0,0.0,0.0,0.0,0.0,0.0,0.0,-3.2943,-3.3124,-3.3124,-3.3257,-3.352,-3.3872,-3.4274,-3.4618,-3.4969,-3.5495,-3.5855,-3.5855,-3.6182,-3.6405,-3.6405,-3.6405,-3.6405,-3.6405,-3.6405,-3.6194,-3.5855,-3.6194,-3.6405,-3.6405,-3.6006,-3.5855,-3.583,-3.5491,-3.5341,-3.5341,-3.5341,-3.5341,-3.5341,-3.5341,-3.5215,-3.4919,-3.4412,-3.4073,-3.3847,0.0,0.0,0.0,0.0,0.0,0.0,0.0,0.0,0.0,0.0,0.0,0.0,0.0,0.0,0.0,0.0,0.0,0.0,0.0,0.0,0.0,0.0,0.0,-1.0547,-1.0713,-1.084,-1.0703,-1.0303,-1.0303,-1.0371,-1.0478,0.0,0.0,0.0,0.0,0.0,0.0,-1.179,-1.1712,-1.1567,-1.1084,-1.083,0.0,0.0,0.0,0.0,0.0,0.0,0.0,0.0,-0.9435,-0.9123,0.0,-0.8672,-0.9004,-0.9004,-0.9474,-1.0079,-1.04,-1.1748,-1.3359,0.0,0.0,0.0,0.0,0.0,0.0,0.0,0.0,0.0,0.0,0.0,0.0,0.0,0.0,-3.0759,-3.1804,-3.2239,-3.2513,-3.2513,-3.2152,-3.2255,-3.2987,-3.3229,-3.3489,-3.386,-3.4403,-3.47,-3.47,-3.4705,-3.4889,-3.5303,-3.5291,-3.5503,-3.5843,-3.5843,-3.5655,-3.5245,-3.5667,-3.5843,-3.583,-3.5454,-3.5245,-3.5219,-3.4843,-3.468,-3.468,-3.468,-3.468,-3.4655,-3.4525,-3.4462,-3.4399,-3.3847,-3.3633,-3.3583,0.0,0.0,0.0,0.0,0.0,0.0,0.0,0.0,0.0,0.0,0.0,0.0,0.0,0.0,0.0,0.0,0.0,0.0,0.0,0.0,0.0,0.0,0.0,-1.0713,-1.0312,-1.0693,-1.0703,-1.0303,-1.0303,-1.0518,-1.0908,-1.0897,0.0,0.0,0.0,0.0,0.0,-1.2203,-1.1963,-1.1535,-1.1084,-1.0654,-1.0303,0.0,0.0,0.0,0.0,0.0,0.0,0.0,-0.9062,-0.8395,-0.8395,0.0,-0.9004,-0.9014,-0.9922,-1.0928,-1.0928,-1.2194,0.0,0.0,0.0,0.0,0.0,0.0,0.0,0.0,0.0,0.0,-2.3587,0.0,0.0,-2.5232,-2.8048,-3.0135,-2.9477,-3.0451,-3.1166,-3.1166,-3.0135,-2.9863,-3.1089,-3.171,-3.2065,-3.2065,-3.2553,-3.2851,-3.2851,-3.1687,-3.1603,-3.2863,-3.2909,-3.3477,-3.468,-3.468,-3.468,-3.4668,-3.4668,-3.4713,-3.468,-3.4668,-3.4668,-3.4668,-3.4713,-3.4655,-3.4655,-3.4655,-3.4655,-3.465,-3.411,-3.3884,-3.3822,-3.3325,-3.3124,-3.3124,0.0,0.0,0.0,0.0,0.0,0.0,0.0,0.0,0.0,0.0,0.0,0.0,0.0,0.0,0.0,0.0,0.0,0.0,0.0,0.0,0.0,0.0,0.0,0.0,0.0,0.0,-1.043,-1.0303,-1.0576,-1.0791,0.0,0.0,0.0,-1.2031,0.0,0.0,0.0,0.0,-1.1526,-1.1064,-1.0655,-1.042,-1.0303,0.0,0.0,0.0,0.0,0.0,0.0,0.0,0.0,0.0,-0.8395,0.0,-0.9062,-0.9338,-1.0801,-1.2318,-1.2318,-1.4443,0.0,0.0,0.0,0.0,0.0,0.0,0.0,0.0,0.0,0.0,-2.2938,0.0,0.0,-2.6253,-2.7517,-2.8655,-2.9293,-2.9727,-2.9943,-2.9943,-2.9636,-2.9544,-2.9909,-3.0091,-3.0182,-3.0182,-3.0697,-3.1018,-3.1018,-3.1844,-3.2524,-3.2909,-3.372,-3.4338,-3.468,-3.468,-3.4525,-3.4148,-3.4148,-3.4349,-3.4713,-3.4324,-3.4148,-3.4123,-3.3734,-3.3558,-3.3558,-3.3558,-3.3558,-3.3545,-3.3382,-3.3319,-3.3307,-3.3174,-3.3124,-3.3124,0.0,0.0,0.0,0.0,0.0,0.0,0.0,0.0,0.0,0.0,0.0,0.0,0.0,0.0,0.0,0.0,0.0,0.0,0.0,0.0,0.0,0.0,0.0,0.0,0.0,-1.0469,-1.0537,0.0,0.0,0.0,0.0,0.0,0.0,-1.249,0.0,-1.2369,0.0,0.0,-1.133,-1.0849,-1.0449,-1.0303,-1.0303,0.0,0.0,0.0,0.0,0.0,0.0,0.0,0.0,0.0,0.0,0.0,0.0,-0.9747,-1.1436,-1.3164,-1.333,0.0,0.0,0.0,0.0,0.0,0.0,0.0,0.0,0.0,0.0,0.0,-2.333,-2.4258,0.0,-2.6269,-2.7081,-2.7683,-2.7898,-2.8355,-2.868,-2.868,-2.8215,-2.8132,-2.8634,-2.868,-2.868,-2.868,-2.8989,-2.9153,-2.9153,-2.9711,-3.0256,-3.0773,-3.1484,-3.2323,-3.331,-3.3297,-3.3385,-3.3571,-3.3571,-3.3746,-3.406,-3.3721,-3.3571,-3.3558,-3.3219,-3.3124,-3.3124,-3.3124,-3.3124,-3.3124,-3.3124,-3.3124,-3.3124,-3.3124,-3.3124,-3.3124,0.0,0.0,0.0,0.0,0.0,0.0,0.0,0.0,0.0,0.0,0.0,0.0,0.0,0.0,0.0,0.0,0.0,0.0,0.0,0.0,0.0,0.0,0.0,0.0,0.0,0.0,0.0,0.0,0.0,0.0,0.0,0.0,-1.25,-1.2905,0.0,-1.2578,0.0,0.0,-1.1271,-1.082,-1.0459,-1.0273,-1.0244,-1.0283,0.0,0.0,0.0,0.0,0.0,0.0,0.0,0.0,-0.8493,-0.9014,-0.9698,-1.0156,-1.1816,-1.3613,0.0,0.0,0.0,0.0,0.0,0.0,0.0,0.0,0.0,0.0,0.0,0.0,-2.4248,-2.4756,-2.5264,-2.5625,-2.6668,-2.704,-2.5878,-2.6716,-2.7458,-2.7458,-2.638,-2.6149,-2.7315,-2.7458,-2.7458,-2.7458,-2.7458,-2.7458,-2.7458,-2.6428,-2.638,-2.7542,-2.7731,-2.8819,-3.0989,-3.1045,-3.1645,-3.2754,-3.2884,-3.2939,-3.2939,-3.3038,-3.3124,-3.3124,-3.3124,-3.3124,-3.3124,-3.3124,-3.3124,-3.3124,-3.3124,-3.3124,-3.3124,-3.3124,-3.3124,-3.3124,0.0,0.0,0.0,0.0,0.0,0.0,0.0,0.0,0.0,0.0,0.0,0.0,0.0,0.0,0.0,0.0,0.0,0.0,0.0,0.0,0.0,0.0,0.0,0.0,0.0,0.0,0.0,0.0,0.0,0.0,0.0,0.0,0.0,-1.2886,0.0,-1.2119,0.0,-1.124,-1.0801,-1.043,-1.0332,-1.0078,-0.9786,-1.0156,-1.001,0.0,0.0,0.0,0.0,0.0,0.0,0.0,-0.924,-0.9464,-0.9698,-1.0156,-1.1816,-1.374,0.0,0.0,0.0,0.0,0.0,0.0,0.0,0.0,0.0,0.0,0.0,0.0,-2.3481,-2.4563,-2.5577,-2.5674,-2.5917,-2.6014,-2.5732,-2.5927,-2.611,-2.611,-2.5878,-2.583,-2.6062,-2.611,-2.611,-2.611,-2.611,-2.611,-2.611,-2.6802,-2.7315,-2.7589,-2.8495,-2.9269,-2.9761,-2.9772,-2.9909,-3.0226,-3.1134,-3.1589,-3.1633,-3.2655,-3.3124,-3.3124,-3.3124,-3.3124,-3.3124,-3.3124,-3.3124,-3.3124,-3.3124,-3.3124,-3.3124,-3.3124,-3.3124,-3.3124,0.0,0.0,0.0,0.0,0.0,0.0,0.0,0.0,0.0,0.0,0.0,0.0,0.0,0.0,0.0,0.0,0.0,0.0,0.0,0.0,0.0,0.0,0.0,0.0,0.0,0.0,0.0,0.0,0.0,0.0,0.0,0.0,0.0,-1.1907,0.0,-1.1645,0.0,-1.0739,-1.054,-1.0214,-1.0124,-1.0162,-1.0225,-1.0273,-1.001,-0.9592,-0.9592,0.0,0.0,0.0,0.0,0.0,0.0,0.0,-1.0029,-1.0459,-1.1826,-1.3574,0.0,0.0,0.0,0.0,0.0,0.0,0.0,0.0,0.0,0.0,0.0,0.0,-2.3535,-2.4531,-2.542,-2.542,-2.5547,-2.5693,-2.5693,-2.5693,-2.5693,-2.5693,-2.5693,-2.5693,-2.5693,-2.5693,-2.5693,-2.5693,-2.5693,-2.5693,-2.5693,-2.6342,-2.6706,-2.6706,-2.7305,-2.7945,-2.8541,-2.8541,-2.8819,-2.9407,-3.0045,-3.0361,-3.0406,-3.2251,-3.3124,-3.3124,-3.3124,-3.3124,-3.3124,-3.3124,-3.3124,-3.3124,-3.3124,-3.3124,-3.3124,-3.3124,-3.3124,-3.3124,0.0,0.0,0.0,0.0,0.0,0.0,0.0,0.0,0.0,0.0,0.0,0.0,0.0,0.0,0.0,0.0,0.0,0.0,0.0,0.0,0.0,0.0,0.0,0.0,0.0,0.0,0.0,0.0,0.0,0.0,0.0,0.0,0.0,-1.0756,0.0,0.0,0.0,-1.0155,-1.0289,-1.0164,-0.992,-1.0267,-1.0849,-1.0298,-0.9945,-0.9709,-0.9607,-0.9431,-0.9228,-0.9228,0.0,0.0,0.0,0.0,-1.0371,-1.0703,-1.1631,-1.3013,0.0,0.0,0.0,0.0,0.0,0.0,0.0,0.0,0.0,0.0,0.0,-2.3789,-2.3789,-2.4434,-2.4998,-2.4998,-2.5332,-2.5625,-2.5625,-2.5635,-2.5693,-2.5693,-2.5693,-2.5693,-2.5693,-2.5693,-2.5693,-2.5693,-2.5693,-2.5693,-2.5693,-2.5693,-2.5693,-2.5693,-2.5693,-2.6197,-2.7268,-2.7268,-2.7767,-2.8762,-2.8993,-2.9177,-2.9453,-3.1512,-3.2481,-3.2481,-3.2481,-3.2481,-3.2481,-3.2711,-3.2797,-3.2797,-3.3025,-3.3124,-3.3124,-3.3124,-3.3124,-3.3124,0.0,0.0,0.0,0.0,0.0,0.0,0.0,0.0,0.0,0.0,0.0,0.0,0.0,0.0,0.0,0.0,0.0,0.0,-0.9498,0.0,0.0,-0.927,-0.9222,-0.9501,0.0,0.0,0.0,0.0,0.0,0.0,0.0,0.0,0.0,-1.0431,0.0,0.0,0.0,0.0,0.0,-1.049,-0.9832,-1.0092,-1.0775,-0.9686,-0.9658,-1.0157,-0.9681,-0.978,-1.0136,-1.0136,-1.0166,0.0,0.0,0.0,-1.0312,-1.0371,-1.0742,0.0,0.0,0.0,0.0,0.0,0.0,0.0,0.0,0.0,0.0,0.0,0.0,-2.3789,-2.3789,-2.418,-2.4502,-2.4502,-2.4873,-2.5156,-2.5156,-2.5488,-2.5693,-2.5693,-2.5693,-2.5693,-2.5693,-2.5693,-2.5693,-2.5693,-2.5693,-2.5693,-2.5693,-2.5693,-2.5693,-2.5693,-2.5693,-2.5781,-2.5965,-2.5965,-2.6014,-2.6197,-2.7305,-2.8412,-2.9407,-2.9727,-2.9909,-2.9909,-2.9909,-2.9909,-3.0,-3.1,-3.1456,-3.1545,-3.2655,-3.3124,-3.3124,-3.3124,-3.3124,-3.3124,0.0,0.0,0.0,0.0,0.0,0.0,0.0,0.0,0.0,0.0,0.0,0.0,0.0,0.0,0.0,-0.8602,-0.8878,-0.9105,-0.9277,-0.9419,-0.9453,-0.9322,-0.9213,-0.9313,-0.9639,0.0,0.0,0.0,0.0,0.0,0.0,-0.938,-0.9466,0.0,0.0,0.0,0.0,0.0,0.0,-0.9889,-0.9486,-0.9815,-1.0471,-1.0104,-1.0161,-1.0447,-1.0326,-1.0453,-1.0596,-1.0381,-1.0303,-1.0303,-1.0303,0.0,0.0,0.0,0.0,0.0,0.0,0.0,0.0,0.0,0.0,0.0,0.0,0.0,0.0,0.0,-2.3125,-2.3428,-2.3428,-2.3779,-2.4062,-2.4062,-2.4424,-2.4697,-2.4697,-2.4873,-2.4953,-2.4953,-2.5215,-2.5361,-2.5361,-2.5596,-2.5693,-2.5693,-2.5693,-2.5693,-2.5693,-2.5693,-2.5693,-2.5693,-2.5693,-2.5693,-2.5693,-2.5693,-2.5693,-2.5693,-2.6294,-2.6802,-2.7352,-2.7352,-2.8075,-2.9407,-2.9407,-2.9407,-2.9498,-3.0721,-3.1223,-3.1311,-3.2612,-3.3124,-3.3124,-3.3124,-3.3124,-3.3124,0.0,0.0,0.0,0.0,0.0,0.0,0.0,0.0,0.0,0.0,0.0,0.0,0.0,0.0,0.0,0.0,-0.8424,-0.8747,-0.8879,-0.9082,-0.9173,-0.9105,-0.9043,-0.904,-0.9087,0.0,0.0,0.0,0.0,0.0,-0.8798,-0.8536,-0.8556,0.0,-0.9452,0.0,0.0,0.0,0.0,0.0,0.0,0.0,0.0,-1.0114,-1.0234,-1.0479,-1.0375,-1.0422,-1.0494,-1.0124,-0.9993,-0.9974,-0.9911,-0.9949,0.0,0.0,0.0,0.0,0.0,0.0,0.0,0.0,0.0,0.0,0.0,0.0,0.0,0.0,-2.2685,-2.2935,-2.2935,-2.333,-2.3623,-2.3623,-2.3984,-2.4258,-2.4258,-2.4346,-2.4414,-2.4414,-2.4707,-2.4902,-2.4902,-2.5205,-2.5401,-2.5557,-2.5566,-2.5567,-2.5684,-2.5693,-2.5693,-2.5693,-2.5693,-2.5693,-2.5693,-2.5693,-2.5693,-2.5693,-2.5693,-2.5693,-2.5693,-2.5693,-2.6706,-2.8448,-2.8448,-2.8448,-2.8588,-3.0124,-3.0721,-3.0899,-3.2469,-3.3124,-3.3124,-3.3124,-3.3124,-3.3124,0.0,0.0,0.0,0.0,0.0,0.0,0.0,0.0,0.0,0.0,0.0,0.0,-0.7899,-0.8147,-0.8312,-0.829,-0.8542,-0.8594,-0.8357,-0.8349,-0.8258,-0.7987,-0.8284,0.0,-0.8804,-0.8798,0.0,0.0,0.0,0.0,-0.8798,-0.8536,-0.8556,-0.8791,-0.858,-0.8445,-0.8402,0.0,0.0,0.0,0.0,0.0,0.0,0.0,0.0,0.0,0.0,-0.9151,-0.9522,-0.9259,-0.9157,-0.9121,-0.8865,0.0,0.0,0.0,0.0,0.0,0.0,0.0,0.0,0.0,0.0,0.0,0.0,0.0,0.0,0.0,-2.2246,-2.2549,-2.2549,-2.2847,-2.313,-2.313,-2.3545,-2.3828,-2.3828,-2.417,-2.4414,-2.4414,-2.4434,-2.4453,-2.4453,-2.4473,-2.4658,-2.5116,-2.5145,-2.5293,-2.5664,-2.5693,-2.5693,-2.5693,-2.5693,-2.5693,-2.5693,-2.5693,-2.5693,-2.5693,-2.5693,-2.5693,-2.5693,-2.5693,-2.5781,-2.5868,-2.5868,-2.5868,-2.61,-2.8495,-2.9498,-2.9727,-3.2152,-3.3124,-3.3124,-3.3124,-3.3124,-3.3124,0.0,0.0,0.0,0.0,0.0,0.0,0.0,0.0,0.0,0.0,0.0,0.0,0.0,-0.7877,-0.7981,-0.7795,-0.7878,-0.7892,-0.7788,-0.7953,-0.8003,-0.7899,-0.8216,-0.833,-0.8218,-0.843,0.0,0.0,0.0,-0.7966,-0.8549,-0.823,-0.8343,-0.8811,-0.8865,-0.8824,-0.8651,-0.8651,0.0,0.0,0.0,0.0,0.0,0.0,0.0,0.0,0.0,0.0,0.0,0.0,0.0,0.0,0.0,0.0,0.0,0.0,0.0,0.0,0.0,0.0,0.0,0.0,0.0,0.0,0.0,0.0,0.0,0.0,-2.123,-2.2197,-2.2461,-2.2808,-2.3091,-2.3091,-2.3227,-2.3369,-2.3369,-2.3452,-2.3549,-2.3549,-2.3848,-2.4014,-2.4014,-2.4258,-2.4482,-2.4639,-2.4648,-2.4717,-2.4883,-2.4893,-2.5019,-2.5293,-2.5303,-2.5449,-2.5684,-2.5693,-2.5693,-2.5693,-2.5693,-2.5693,-2.5693,-2.5693,-2.5693,-2.5693,-2.5693,-2.5693,-2.583,-2.7531,-2.8226,-2.8412,-3.009,-3.0732,-3.0732,-3.0732,-3.0732,-3.0732,0.0,0.0,0.0,0.0,0.0,0.0,0.0,0.0,0.0,0.0,0.0,0.0,0.0,0.0,-0.7996,-0.7812,-0.7627,-0.7513,-0.7513,-0.7662,-0.7776,-0.7776,-0.8063,-0.8136,-0.7912,-0.8023,0.0,0.0,0.0,0.0,0.0,-0.827,-0.8412,-0.8824,-0.9084,-0.9051,0.0,0.0,0.0,-0.8818,0.0,0.0,-0.8897,0.0,0.0,0.0,0.0,0.0,0.0,0.0,0.0,0.0,0.0,0.0,0.0,0.0,0.0,0.0,0.0,0.0,0.0,0.0,0.0,0.0,0.0,0.0,0.0,0.0,-2.0459,-2.1758,-2.2031,-2.2432,-2.2812,-2.3052,-2.3091,-2.3091,-2.3091,-2.3091,-2.3091,-2.3091,-2.3398,-2.3574,-2.3574,-2.3818,-2.4043,-2.4199,-2.4209,-2.4268,-2.4414,-2.4414,-2.4551,-2.4844,-2.5037,-2.5215,-2.5508,-2.5615,-2.5693,-2.5693,-2.5693,-2.5693,-2.5693,-2.5693,-2.5693,-2.5693,-2.5693,-2.5693,-2.5781,-2.7078,-2.7589,-2.772,-2.8958,-2.9407,-2.9407,-2.9407,-2.9407,-2.9407,0.0,0.0,0.0,0.0,0.0,0.0,0.0,0.0,0.0,-0.7504,0.0,0.0,0.0,0.0,0.0,-0.8382,-0.7826,-0.7493,-0.7493,-0.7493,-0.7493,-0.7493,-0.7749,-0.7892,-0.7879,-0.7629,0.0,0.0,0.0,0.0,0.0,0.0,-0.8798,-0.8818,-0.9078,-0.9044,-0.8804,0.0,-0.8804,-0.8831,0.0,-0.9071,-0.8971,0.0,0.0,0.0,-1.1122,-1.1435,0.0,-1.1176,0.0,0.0,0.0,0.0,0.0,0.0,0.0,0.0,0.0,0.0,0.0,0.0,0.0,0.0,0.0,0.0,0.0,-1.8402,-1.9905,-2.1132,-2.1181,-2.1582,-2.2139,-2.2925,-2.3062,-2.3081,-2.3081,-2.3091,-2.3091,-2.3091,-2.3091,-2.3091,-2.3091,-2.3091,-2.3276,-2.374,-2.3769,-2.3945,-2.4355,-2.4394,-2.4394,-2.4394,-2.4824,-2.5096,-2.5096,-2.5488,-2.5664,-2.5664,-2.5684,-2.5693,-2.5693,-2.5693,-2.5693,-2.5693,-2.5693,-2.5693,-2.5781,-2.703,-2.7542,-2.7683,-2.8819,-2.9269,-2.9269,-2.9269,-2.9269,-2.9269,0.0,0.0,0.0,0.0,0.0,0.0,0.0,0.0,-0.7779,0.0,0.0,0.0,-0.825,-0.8136,-0.8025,-0.8025,-0.7495,-0.7141,-0.7141,-0.7141,-0.7141,-0.7141,-0.7435,-0.7495,-0.7253,-0.7599,0.0,0.0,0.0,0.0,0.0,0.0,0.0,0.0,-0.8891,-0.8858,-0.8804,-0.8804,0.0,0.0,-0.9557,-0.9797,0.0,0.0,0.0,0.0,0.0,-1.2525,-1.2772,0.0,-1.2211,-1.0708,0.0,0.0,0.0,0.0,0.0,0.0,-0.9287,0.0,0.0,0.0,0.0,0.0,0.0,0.0,0.0,-1.7075,-1.8427,-1.9699,-2.0966,-2.1298,-2.1592,-2.2148,-2.249,-2.2685,-2.2685,-2.2906,-2.3091,-2.3091,-2.3091,-2.3091,-2.3091,-2.3091,-2.314,-2.3266,-2.3276,-2.3325,-2.3442,-2.3789,-2.3965,-2.3965,-2.4375,-2.459,-2.459,-2.5029,-2.5254,-2.5254,-2.5586,-2.5693,-2.5693,-2.5693,-2.5693,-2.5693,-2.5693,-2.5693,-2.5732,-2.6062,-2.6245,-2.6245,-2.661,-2.6696,-2.6696,-2.6696,-2.6696,-2.6696,0.0,0.0,0.0,0.0,0.0,0.0,0.0,0.0,0.0,0.0,0.0,0.0,-0.8415,-0.8216,-0.8045,-0.7919,-0.7586,-0.7379,-0.7379,-0.7379,-0.7379,-0.7379,-0.7569,-0.7575,-0.7379,-0.7622,0.0,0.0,0.0,0.0,0.0,0.0,0.0,0.0,0.0,0.0,0.0,0.0,0.0,0.0,-0.978,0.0,0.0,-1.141,-1.1824,0.0,0.0,0.0,-1.3627,-1.3968,-1.3146,0.0,0.0,0.0,0.0,0.0,0.0,0.0,0.0,0.0,0.0,0.0,0.0,0.0,-1.0476,-1.1776,-1.3455,0.0,-1.6638,-1.7796,-1.9203,-1.9553,-1.9824,-2.043,-2.1035,-2.1621,-2.2178,-2.2617,-2.2838,-2.2838,-2.2984,-2.3091,-2.3091,-2.3091,-2.3091,-2.3091,-2.3091,-2.3091,-2.3091,-2.3379,-2.3516,-2.3516,-2.3935,-2.415,-2.415,-2.458,-2.4893,-2.5116,-2.5332,-2.5557,-2.5693,-2.5693,-2.5693,-2.5693,-2.5693,-2.5693,-2.5693,-2.5693,-2.5693,-2.5693,-2.5693,-2.5693,-2.5693,-2.5693,-2.5693,-2.5693,0.0,0.0,0.0,0.0,0.0,0.0,0.0,0.0,0.0,0.0,-0.8651,-0.8711,-0.8476,-0.8415,-0.8295,-0.7979,-0.7925,-0.7905,-0.7905,-0.7905,-0.7905,-0.7905,-0.7905,-0.7905,-0.7905,-0.7695,-0.7725,0.0,0.0,0.0,0.0,0.0,0.0,0.0,0.0,0.0,0.0,0.0,0.0,-1.0147,-0.9953,-1.0278,0.0,0.0,-1.2338,-1.2328,-1.3614,-1.4088,-1.4062,-1.3901,-1.3393,0.0,0.0,0.0,0.0,0.0,-0.8905,0.0,0.0,0.0,0.0,0.0,0.0,0.0,-0.9667,-1.07,-1.1952,-1.364,-1.4731,-1.5655,-1.6581,-1.6937,-1.7349,-1.8049,-1.8988,-2.0168,-2.1621,-2.2178,-2.2441,-2.2441,-2.273,-2.2955,-2.2955,-2.2955,-2.2955,-2.2955,-2.3003,-2.3042,-2.3091,-2.3091,-2.3091,-2.3091,-2.3516,-2.3721,-2.3721,-2.4141,-2.4541,-2.4979,-2.5067,-2.5273,-2.5615,-2.5664,-2.5693,-2.5693,-2.5693,-2.5693,-2.5693,-2.5693,-2.5693,-2.5693,-2.5693,-2.5693,-2.5693,-2.5693,-2.5693,-2.5693,-0.4219,0.0,0.0,0.0,0.0,0.0,0.0,0.0,0.0,-0.8646,-0.8771,-0.8784,-0.8731,-0.8543,-0.8375,-0.8315,-0.807,-0.7905,-0.7905,-0.7905,-0.7905,-0.7905,-0.7905,-0.7905,-0.7905,-0.811,-0.8255,0.0,0.0,0.0,0.0,0.0,0.0,0.0,0.0,0.0,0.0,0.0,0.0,-1.0546,-1.0922,0.0,-1.2462,-1.3414,-1.3707,-1.3694,-1.3981,-1.4088,-1.3908,-1.2744,-1.2536,-1.2496,0.0,0.0,0.0,-0.998,0.0,0.0,0.0,0.0,0.0,0.0,0.0,0.0,-0.9867,-1.0121,-1.0773,0.0,-1.3334,-1.3726,-1.4932,-1.5184,-1.5263,-1.5446,-1.6928,-1.8816,-2.1043,-2.1738,-2.2012,-2.2012,-2.208,-2.2129,-2.2129,-2.2129,-2.2129,-2.2129,-2.2441,-2.2783,-2.3081,-2.3091,-2.3091,-2.3091,-2.3179,-2.3218,-2.3218,-2.3701,-2.3955,-2.4043,-2.4783,-2.5165,-2.5215,-2.5566,-2.5693,-2.5693,-2.5693,-2.5693,-2.5693,-2.5693,-2.5693,-2.5693,-2.5693,-2.5693,-2.5693,-2.5693,-2.5693,-2.5693,-0.3994,0.0,0.0,0.0,0.0,0.0,0.0,0.0,0.0,-0.889,-0.8998,-0.8884,-0.8624,-0.8591,-0.8556,-0.8415,-0.837,-0.8345,-0.8345,-0.8345,-0.8345,-0.8345,-0.8345,-0.8345,-0.8345,-0.851,-0.8591,0.0,0.0,0.0,0.0,0.0,0.0,0.0,0.0,0.0,0.0,0.0,-1.0053,-1.0995,-1.0995,0.0,-1.2643,-1.336,-1.3647,-1.3687,-1.3981,-1.4088,-1.3928,-1.2893,-1.267,0.0,-1.1571,-1.0948,-1.0533,0.0,-0.967,-0.9144,0.0,0.0,0.0,-0.8804,0.0,0.0,0.0,-0.9384,-0.9739,-1.1301,-1.1456,-1.1619,-1.2699,-1.3028,-1.3233,-1.3686,-1.4856,-1.6239,-1.775,-2.0023,-2.1562,-2.1562,-2.1758,-2.1885,-2.1885,-2.1885,-2.1885,-2.1885,-2.208,-2.2383,-2.276,-2.2779,-2.2877,-2.3091,-2.3091,-2.3091,-2.3091,-2.3315,-2.3574,-2.3799,-2.4228,-2.4541,-2.4756,-2.5205,-2.54,-2.541,-2.5596,-2.5693,-2.5693,-2.5693,-2.5693,-2.5693,-2.5693,-2.5693,-2.5693,-2.5693,-2.5693,-2.5693,-0.41,0.0,0.0,0.0,0.0,0.0,0.0,0.0,0.0,-0.8762,-0.9095,-0.9078,-0.8777,0.0,0.0,0.0,-0.8905,-0.8951,-0.8891,-0.8891,-0.8864,-0.8811,-0.8672,-0.8593,-0.8593,-0.8454,-0.8374,-0.8374,0.0,0.0,0.0,0.0,0.0,0.0,0.0,0.0,0.0,0.0,0.0,-1.1476,0.0,-1.1578,-1.2458,-1.3126,-1.3273,-1.3206,-1.3854,-1.4122,-1.4075,-1.3427,-1.312,-1.2911,-1.2147,-1.1457,0.0,0.0,0.0,0.0,0.0,0.0,0.0,0.0,0.0,-0.8804,0.0,0.0,0.0,-0.9719,0.0,0.0,0.0,0.0,0.0,0.0,0.0,0.0,0.0,-1.7486,0.0,-2.012,-2.0614,-2.1002,-2.125,-2.1484,-2.167,-2.1758,-2.1768,-2.1943,-2.2373,-2.2471,-2.2666,-2.2964,-2.3052,-2.3091,-2.3091,-2.3091,-2.3276,-2.3662,-2.375,-2.3965,-2.4307,-2.4746,-2.499,-2.5135,-2.5449,-2.5615,-2.5693,-2.5693,-2.5693,-2.5693,-2.5693,-2.5693,-2.5693,-2.5693,-2.5693,-2.5693,-0.4416,-0.4988,0.0,0.0,0.0,0.0,0.0,0.0,0.0,-0.7678,-0.8635,0.0,0.0,0.0,0.0,0.0,0.0,0.0,-0.9178,0.0,-0.9051,-0.8818,-0.8182,-0.783,-0.783,-0.7182,-0.6858,-0.6858,0.0,0.0,0.0,0.0,0.0,0.0,-0.9064,0.0,0.0,0.0,-1.1048,0.0,-1.2355,-1.2616,0.0,-1.3702,-1.3534,-1.2951,-1.3822,-1.4255,-1.4342,0.0,-1.3534,-1.3694,0.0,-1.2013,-1.1844,-1.0508,0.0,0.0,0.0,0.0,0.0,0.0,-0.8804,0.0,0.0,0.0,-0.8838,-0.8931,0.0,0.0,0.0,0.0,0.0,0.0,0.0,0.0,-1.2019,-1.3998,-1.5664,-1.6261,-1.6964,-1.7797,-1.8857,-2.0039,-2.0879,-2.1239,-2.1268,-2.1504,-2.1934,-2.2305,-2.2539,-2.2578,-2.2896,-2.3091,-2.3091,-2.3091,-2.312,-2.3169,-2.3603,-2.3809,-2.3877,-2.4297,-2.4697,-2.5116,-2.5174,-2.5371,-2.5693,-2.5693,-2.5693,-2.5693,-2.5693,-2.5693,-2.5693,-2.5693,-2.5693,-2.5693,-0.4341,-0.4644,0.0,0.0,0.0,0.0,0.0,0.0,0.0,0.0,0.0,0.0,0.0,0.0,0.0,0.0,0.0,-0.9108,0.0,0.0,0.0,-1.0246,-0.8629,-0.7935,-0.8439,-0.7228,-0.6588,-0.6588,-0.7343,0.0,0.0,0.0,0.0,0.0,-0.9517,0.0,-1.0472,0.0,-1.1779,0.0,0.0,0.0,0.0,-1.3547,-1.3955,-1.3848,-1.4439,-1.4563,-1.4419,-1.4095,-1.3674,0.0,0.0,0.0,0.0,0.0,0.0,0.0,0.0,0.0,0.0,0.0,0.0,0.0,-0.8925,0.0,-0.8804,0.0,0.0,0.0,0.0,0.0,0.0,0.0,-0.9625,0.0,0.0,0.0,-1.2616,-1.4851,-1.5396,-1.6199,-1.7856,-1.8005,-1.8592,-1.9991,-1.9835,-1.9991,-2.0703,-2.1396,-2.1885,-2.2139,-2.2559,-2.273,-2.273,-2.2974,-2.3091,-2.3091,-2.3276,-2.3408,-2.3428,-2.3857,-2.415,-2.4346,-2.459,-2.4941,-2.5352,-2.5352,-2.5508,-2.5693,-2.5693,-2.5693,-2.5693,-2.5693,-2.5693,-2.5693,-0.424,0.0,0.0,0.0,0.0,0.0,0.0,0.0,0.0,0.0,0.0,0.0,-1.0038,-0.8777,0.0,0.0,-0.9196,-0.8774,0.0,0.0,-0.8873,0.0,0.0,0.0,0.0,-0.689,-0.6127,-0.6018,0.0,0.0,0.0,0.0,0.0,0.0,0.0,-0.9938,-1.064,0.0,0.0,-1.2231,-1.31,-1.2979,-1.2354,-1.3447,-1.4175,-1.4669,-1.4928,-1.4877,-1.4736,-1.4576,-1.3948,-1.3326,-1.3655,-1.2636,-1.1303,0.0,0.0,0.0,-1.035,0.0,0.0,0.0,0.0,0.0,0.0,0.0,0.0,0.0,-0.8845,0.0,0.0,0.0,-0.8804,-0.8804,0.0,-0.9024,0.0,-0.9178,0.0,0.0,-1.3831,-1.4772,-1.6313,-1.5992,-1.6486,-1.8334,-1.8168,-1.8489,-1.9687,-2.042,-2.1093,-2.1689,-2.2227,-2.251,-2.251,-2.2886,-2.3091,-2.3091,-2.3091,-2.3091,-2.311,-2.3467,-2.3682,-2.3809,-2.4111,-2.4492,-2.4893,-2.4893,-2.5156,-2.5557,-2.5557,-2.5586,-2.5693,-2.5693,-2.5693,-2.5693,-0.4197,-0.4365,0.0,0.0,0.0,0.0,0.0,0.0,0.0,0.0,0.0,0.0,0.0,0.0,0.0,0.0,0.0,-0.8749,-0.8456,0.0,-0.7855,0.0,0.0,-0.6264,0.0,0.0,-0.4955,-0.457,0.0,0.0,0.0,0.0,0.0,0.0,0.0,-0.9047,-1.0475,-1.1503,-1.275,-1.4008,-1.4041,-1.4202,-1.4292,0.0,-1.3955,-1.4995,-1.5008,-1.5182,-1.5284,-1.4716,-1.4496,-1.4269,-1.3186,-1.2985,-1.2899,0.0,0.0,0.0,-1.1456,-1.0975,-1.0713,-1.1243,-1.0283,-0.9377,-0.9923,-0.9604,-0.9118,0.0,0.0,-0.9111,-0.8858,-0.8804,-0.8804,-0.8804,-0.8818,0.0,0.0,0.0,0.0,0.0,0.0,0.0,-1.3484,-1.4276,-1.5215,-1.63,-1.6385,-1.7229,-1.9202,-1.9717,-2.0361,-2.119,-2.2029,-2.251,-2.251,-2.2886,-2.3091,-2.3091,-2.3091,-2.3091,-2.3091,-2.311,-2.3389,-2.3789,-2.3809,-2.4043,-2.4443,-2.4443,-2.4697,-2.5135,-2.5135,-2.5352,-2.5693,-2.5693,-2.5693,-2.5693,0.0,0.0,0.0,0.0,0.0,0.0,0.0,-0.5058,0.0,0.0,0.0,0.0,0.0,-0.8501,-0.8264,0.0,0.0,-0.85,-0.8974,-0.8222,0.0,0.0,0.0,-0.6792,0.0,0.0,0.0,0.0,0.0,0.0,0.0,0.0,0.0,0.0,0.0,-0.8923,0.0,0.0,0.0,0.0,0.0,-1.344,-1.346,-1.4108,-1.4736,-1.5277,-1.5471,-1.5478,-1.5364,-1.5164,-1.4843,-1.4449,-1.4048,-1.3454,-1.2864,-1.2455,-1.1957,-1.1683,-1.2201,-1.2194,-1.2087,-1.2288,-1.1483,-1.0556,-1.017,-0.9637,-0.9184,-0.9084,-0.9144,-0.9244,-0.9372,-0.9225,-0.9131,-0.9352,-0.9385,-0.9385,0.0,0.0,0.0,0.0,0.0,0.0,0.0,-1.2629,-1.3588,-1.5386,-1.5911,-1.6514,-1.7343,-1.873,-1.9581,-1.9755,-2.0984,-2.1807,-2.21,-2.251,-2.2818,-2.3091,-2.3091,-2.3091,-2.3091,-2.3091,-2.3179,-2.3359,-2.3359,-2.3603,-2.4004,-2.4004,-2.4424,-2.5116,-2.5116,-2.5342,-2.5693,-2.5693,-2.5693,-2.5693,-0.4491,0.0,0.0,0.0,0.0,0.0,0.0,0.0,0.0,0.0,-0.6057,0.0,-0.8843,0.0,-0.7742,0.0,-0.8403,-0.8087,-0.8637,-0.7945,0.0,-0.96,-0.7837,0.0,0.0,0.0,0.0,0.0,0.0,-0.5136,0.0,0.0,0.0,0.0,0.0,-0.8064,-0.9763,0.0,-1.1671,0.0,0.0,-1.2768,0.0,-1.4309,-1.4923,-1.515,-1.5651,-1.5712,-1.5531,-1.5431,-1.5144,-1.481,-1.471,-1.4082,-1.3414,-1.3414,-1.2899,-1.2498,-1.3105,-1.3112,-1.2998,-1.3213,-1.2398,-1.149,-1.1129,-1.0595,-1.0117,-1.001,-0.9903,-0.9893,-1.001,-0.9666,-0.9459,-0.9653,-0.9715,-0.9715,0.0,-0.9519,0.0,-0.9145,0.0,0.0,0.0,-1.0902,-1.1711,-1.3592,-1.4061,-1.4738,-1.5922,-1.717,-1.7997,-1.8395,-1.9839,-2.0838,-2.1297,-2.2116,-2.2682,-2.3091,-2.3091,-2.3091,-2.3091,-2.3091,-2.3091,-2.3091,-2.3091,-2.3257,-2.3555,-2.3555,-2.4062,-2.4834,-2.4834,-2.5205,-2.5693,-2.5693,-2.5693,-2.5693,0.0,0.0,0.0,0.0,-0.4491,0.0,0.0,0.0,-0.5052,0.0,-0.5572,-0.6599,-0.8016,-0.7438,-0.7606,-0.9122,-0.8291,-0.7641,-0.7634,-0.7224,0.0,0.0,-0.7054,-0.6729,-0.6702,0.0,0.0,0.0,0.0,0.0,0.0,0.0,0.0,0.0,-0.5164,0.0,-0.8414,-0.9711,-1.0717,-1.1485,-1.1764,-1.2188,-1.282,-1.4015,-1.4432,-1.4562,-1.5471,-1.5784,-1.5738,-1.5511,-1.5404,-1.5351,-1.5115,-1.4783,-1.4543,-1.4543,-1.4349,-1.4128,-1.4115,-1.3701,-1.3407,-1.3955,-1.2993,-1.2094,-1.2656,-1.2328,-1.1826,-1.151,-1.1229,-1.0949,-1.0687,-1.0164,-0.9746,-0.9762,-0.9755,-0.9749,-0.9735,0.0,-0.9729,-0.9715,-0.9417,0.0,0.0,-0.9272,-0.9868,-1.1197,-1.1118,-1.2188,0.0,-1.5147,-1.5815,-1.7122,-1.8682,-1.9705,-2.0111,-2.1561,-2.2524,-2.3003,-2.3003,-2.3047,-2.3091,-2.3047,-2.3003,-2.3003,-2.296,-2.296,-2.3003,-2.3003,-2.3553,-2.4414,-2.4414,-2.4904,-2.5693,-2.5693,-2.5693,-2.5693,-0.4491,-0.4491,-0.4491,0.0,-0.4491,-0.4491,0.0,0.0,0.0,0.0,-0.6132,-0.6892,-0.7805,-0.7931,-0.8163,-0.8635,-0.8456,0.0,0.0,0.0,0.0,-0.7756,-0.7509,-0.716,-0.6712,-0.622,0.0,-0.51,0.0,0.0,-0.4491,0.0,0.0,0.0,0.0,0.0,-0.7442,-0.781,-0.8995,-1.0736,-1.1237,-1.1355,-1.1402,-1.3338,-1.3765,-1.3595,-1.521,-1.5784,-1.5771,-1.5745,-1.5571,-1.5384,-1.5311,-1.5084,-1.485,-1.485,-1.4796,-1.4689,-1.4469,-1.4295,-1.4168,-1.4102,-1.3333,-1.2596,-1.275,-1.2328,-1.1886,-1.1806,-1.1732,-1.1557,-1.1256,-1.0902,-1.0588,-1.0399,-1.0365,0.0,0.0,0.0,0.0,-0.9735,0.0,0.0,-0.9593,-1.0292,-1.0924,-1.1264,-1.2027,-1.271,-1.3309,-1.4525,-1.5255,-1.5451,-1.7024,-1.8194,-1.8879,-1.9239,-2.0235,-2.1756,-2.1756,-2.2217,-2.3047,-2.2164,-2.1756,-2.1712,-2.0809,-2.0944,-2.1756,-2.1756,-2.2796,-2.4414,-2.4414,-2.4904,-2.5693,-2.5693,-2.5693,-2.5693,-0.4491,0.0,0.0,-0.459,0.0,0.0,-0.4873,-0.5259,0.0,-0.6224,-0.6871,0.0,-0.7865,-0.818,-0.8394,-0.8476,-0.8482,0.0,-0.8367,0.0,0.0,-0.8018,-0.7807,-0.7533,-0.7193,-0.662,0.0,-0.5491,0.0,0.0,-0.4491,0.0,0.0,0.0,0.0,-0.5325,0.0,-0.7137,-0.8132,-0.9476,-0.9978,-1.0123,0.0,-1.2019,-1.2601,-1.2642,-1.3731,-1.4806,-1.5784,-1.5784,-1.5718,-1.5585,-1.5585,-1.5384,-1.515,-1.515,-1.5109,-1.4975,-1.4763,-1.471,-1.4676,-1.4509,-1.3995,-1.352,-1.352,-1.3206,-1.2878,-1.2878,-1.2632,-1.2405,-1.2238,-1.1643,-1.1049,0.0,0.0,0.0,0.0,0.0,0.0,0.0,-1.0244,-1.0247,-1.011,-1.0502,-1.0779,-1.0779,-1.1375,-1.1953,-1.2487,-1.3162,-1.3709,-1.4087,-1.5472,-1.6381,-1.675,-1.785,-1.8928,-1.9965,-2.0332,-2.0854,-2.1498,-2.0809,-2.0522,-2.0486,-1.9807,-1.9898,-2.0522,-2.0522,-2.1396,-2.2764,-2.3062,-2.3529,-2.4048,-2.4609,-2.5177,-2.5693,-0.4549,0.0,0.0,0.0,0.0,0.0,0.0,-0.604,0.0,-0.6856,0.0,-0.8005,-0.8042,-0.8347,-0.852,-0.854,0.0,-0.8533,-0.8513,-0.8397,-0.8364,-0.8323,-0.8014,-0.7851,-0.7811,-0.7119,-0.6519,0.0,0.0,0.0,0.0,0.0,0.0,0.0,0.0,0.0,0.0,-0.7058,-0.7673,-0.8092,-0.8422,-0.8792,-0.9246,-1.0505,-1.1275,-1.1653,-1.1853,-1.3445,-1.554,-1.554,-1.5683,-1.5784,-1.5784,-1.5658,-1.5451,-1.5451,-1.5277,-1.5115,-1.5075,-1.5068,-1.5055,-1.5022,-1.477,-1.4583,-1.4583,-1.4349,-1.4142,-1.4142,-1.3707,-1.33,-1.3227,-1.2195,-1.1263,0.0,-1.064,0.0,0.0,0.0,0.0,0.0,0.0,0.0,-1.0546,-1.0267,-1.0134,-1.0174,-1.011,-1.0688,-1.2004,-1.1663,-1.1868,-1.2946,-1.403,-1.4566,-1.4479,-1.6781,-1.7983,-1.8078,-1.8892,-1.936,-1.9488,-1.936,-1.9268,-1.9268,-1.9085,-1.9131,-1.9268,-1.9268,-1.9778,-2.0692,-2.142,-2.1702,-2.1853,-2.3026,-2.4205,-2.5226,0.0,0.0,0.0,0.0,0.0,-0.585,-0.6907,-0.673,-0.6597,-0.7001,-0.7601,-0.8083,-0.8377,-0.8564,-0.872,-0.8849,-0.8804,0.0,0.0,0.0,0.0,-0.8333,-0.8218,-0.8072,-0.7818,-0.7274,-0.6684,0.0,0.0,0.0,0.0,0.0,0.0,0.0,0.0,0.0,-0.5595,-0.6365,0.0,-0.7323,-0.7787,-0.8069,-0.836,-0.9693,-1.0232,-1.0489,-1.1507,-1.2915,-1.4214,-1.4214,-1.4949,-1.5784,-1.5784,-1.5792,-1.5752,-1.5752,-1.5718,-1.5625,-1.5384,-1.5317,-1.5264,-1.5068,-1.4968,-1.4928,-1.4928,-1.4656,-1.4442,-1.4442,-1.4175,-1.3781,-1.33,-1.2195,-1.1362,-1.1289,-1.0875,-1.0593,0.0,0.0,0.0,0.0,0.0,-1.0989,-1.0261,-1.0117,-1.0221,-1.0492,-1.0254,-1.0334,-1.0874,-1.1223,-1.1489,-1.1695,-1.2882,-1.3572,-1.3763,-1.4974,-1.6188,-1.7391,-1.7827,-1.8549,-1.9451,-1.8457,-1.8002,-1.7963,-1.6889,-1.703,-1.8002,-1.8002,-1.9044,-2.0692,-2.142,-2.1702,-2.1752,-2.1954,-2.2206,-2.2717,0.0,0.0,0.0,0.0,0.0,0.0,-0.7356,-0.7441,-0.7536,-0.7906,-0.8208,-0.8472,-0.8696,-0.8784,-0.8804,-0.8875,-0.8885,-0.8851,-0.8832,-0.8754,-0.8648,-0.8506,-0.835,-0.8201,-0.8052,-0.7682,-0.7122,-0.6376,-0.6044,-0.5474,-0.4697,-0.4648,0.0,0.0,0.0,-0.5283,0.0,0.0,-0.699,-0.7292,-0.7662,-0.7902,-0.8088,-0.8726,-0.897,-0.9019,-0.9653,-1.0725,-1.1984,-1.2619,-1.3253,-1.3884,-1.4609,-1.48,-1.4949,-1.5635,-1.5784,-1.5751,-1.5658,-1.5618,-1.5585,-1.5444,-1.5297,-1.519,-1.519,-1.4963,-1.4703,-1.4556,-1.4409,-1.4088,-1.3347,-1.2739,-1.2215,-1.1931,-1.139,-1.1009,-1.1009,0.0,-1.1289,0.0,0.0,0.0,0.0,-1.0381,-1.0174,0.0,0.0,-1.0541,-1.0982,-1.0989,-1.1256,-1.1857,-1.2438,-1.2732,-1.2726,-1.4258,-1.51,-1.5326,-1.625,-1.703,-1.7569,-1.6983,-1.6709,-1.6669,-1.6062,-1.6157,-1.6737,-1.7062,-1.7842,-1.8897,-1.9382,-1.9568,-1.9672,-2.0333,-2.0179,-1.9973,0.0,-0.5633,0.0,0.0,-0.663,-0.7058,-0.7689,-0.8089,-0.8411,-0.8676,-0.8737,-0.8804,-0.8871,-0.8885,-0.8885,-0.8885,-0.8885,-0.8885,-0.8885,-0.8825,-0.8743,-0.8713,-0.8489,-0.8333,-0.8323,-0.8031,-0.7543,0.0,-0.6498,-0.5931,-0.5009,-0.4891,-0.4832,0.0,0.0,-0.5817,-0.6091,-0.6861,-0.7295,-0.7489,-0.7753,-0.7884,-0.7988,-0.7988,-0.7988,-0.7988,-0.7988,-0.8676,-0.9706,-1.073,-1.1458,-1.2091,-1.3151,-1.3488,-1.3686,-1.4663,-1.5146,-1.5391,-1.5391,-1.5581,-1.5784,-1.5784,-1.5658,-1.5491,-1.5491,-1.5264,-1.499,-1.4756,-1.4609,-1.4289,-1.3534,-1.3293,-1.3013,-1.2398,-1.1775,-1.1349,-1.1263,0.0,0.0,0.0,0.0,0.0,-1.1402,-1.0688,-1.0214,-1.0214,-1.0367,-1.0748,-1.1355,-1.0875,-1.1069,-1.2084,-1.2118,-1.2098,-1.2094,-1.3909,-1.4522,-1.3986,-1.5198,-1.5784,-1.5784,-1.5784,-1.5784,-1.5784,-1.5784,-1.5818,-1.5965,-1.6493,-1.6881,-1.7233,-1.7521,-1.7582,-1.7733,-1.8812,-1.8506,-1.7891,0.0,0.0,0.0,0.0,0.0,-0.76,-0.8289,-0.8435,-0.8523,-0.8689,-0.8832,-0.8868,-0.8881,-0.8885,-0.8885,-0.8885,-0.8885,-0.8885,-0.8885,-0.8868,-0.8801,-0.8716,-0.8682,-0.8543,-0.8327,-0.8292,-0.7858,-0.7055,-0.6803,-0.62,-0.5351,-0.5337,-0.5467,-0.5684,-0.5895,-0.6259,-0.6805,-0.72,-0.7512,-0.7784,-0.7901,-0.7978,-0.7988,-0.7988,-0.7988,-0.7988,-0.7988,-0.8088,-0.8187,-0.8333,-0.9948,-1.1896,-1.2042,-1.2091,-1.2091,-1.2237,-1.3108,-1.407,-1.407,-1.4902,-1.5784,-1.5784,-1.5758,-1.5744,-1.5744,-1.5565,-1.5351,-1.5317,-1.489,-1.4416,-1.4068,-1.3567,-1.3013,-1.2398,-1.1775,-1.1243,-1.0747,-1.1557,-1.2017,-1.1455,0.0,0.0,-1.1442,-1.0875,-1.0553,-1.0553,-1.0294,-1.0496,-1.1349,-1.0875,-1.0888,-1.1455,-1.1469,-1.1877,-1.269,-1.3702,-1.4529,-1.5237,-1.5638,-1.5784,-1.5784,-1.5784,-1.5784,-1.5784,-1.5784,-1.5979,-1.6259,-1.6573,-1.6881,-1.7233,-1.7521,-1.7582,-1.7635,-1.774,-1.7687,-1.7635,-0.719,-0.7234,-0.7336,-0.7787,-0.7889,-0.8072,-0.8547,-0.8696,-0.8777,-0.8838,-0.8844,-0.8885,-0.8885,-0.8885,-0.8885,-0.8885,-0.8885,-0.8885,-0.8885,-0.8885,-0.8854,-0.8797,-0.876,-0.8655,-0.8537,-0.836,-0.8031,-0.7543,-0.7068,-0.6607,-0.6159,-0.5888,-0.5922,-0.6217,-0.6549,-0.6881,-0.7221,-0.7607,-0.7841,-0.7904,-0.7965,-0.7988,-0.7988,-0.7988,-0.7988,-0.7988,-0.7988,-0.7988,-0.7988,-0.7988,-0.8676,-0.9702,-1.0534,-1.0779,-1.0925,-1.1702,-1.2285,-1.2716,-1.2716,-1.306,-1.3451,-1.3451,-1.3451,-1.3451,-1.3451,-1.3371,-1.3258,-1.3098,-1.3221,-1.3542,-1.4233,-1.4015,-1.354,-1.2946,-1.2652,-1.2164,-1.1216,-1.2104,0.0,-1.1502,0.0,-1.2211,-1.1971,-1.1142,-1.0734,-1.1056,-1.0648,-1.0534,-1.0889,-1.1015,-1.1349,-1.1931,-1.1951,-1.2465,-1.3581,-1.395,-1.4442,-1.5189,-1.5605,-1.5784,-1.5784,-1.5784,-1.5784,-1.5791,-1.6019,-1.6266,-1.6553,-1.6854,-1.7192,-1.7474,-1.7535,-1.7582,-1.7582,-1.7582,-1.7582,-1.7582,-0.7743,-0.7797,-0.7865,-0.818,-0.8326,-0.8469,-0.8679,-0.8842,-0.8885,-0.8885,-0.8885,-0.8885,-0.8885,-0.8885,-0.8885,-0.8885,-0.8885,-0.8885,-0.8885,-0.8885,-0.8885,-0.8885,-0.8835,-0.8757,-0.8713,-0.8506,-0.8252,-0.7946,-0.7438,-0.7065,-0.682,-0.6417,-0.6434,-0.6817,-0.7132,-0.7383,-0.759,-0.7857,-0.7988,-0.7988,-0.7988,-0.7988,-0.7988,-0.7988,-0.7988,-0.7988,-0.7988,-0.7988,-0.7988,-0.7988,-0.7988,-0.8187,-0.9118,-0.941,-0.9608,-1.0485,-1.1019,-1.1365,-1.1365,-1.1609,-1.1896,-1.1896,-1.1896,-1.1896,-1.1896,-1.1896,-1.1831,-1.1552,-1.2229,-1.3043,-1.3786,-1.3819,-1.3604,-1.328,-1.2638,-1.1882,-1.1131,-1.1684,-1.1895,-1.1105,-1.1471,-1.1929,-1.2268,-1.1403,-1.0982,-1.1362,-1.1049,-1.0847,-1.0847,-1.1042,-1.1436,-1.2024,-1.1877,-1.2445,-1.3814,-1.3828,-1.4295,-1.5224,-1.5631,-1.5784,-1.5784,-1.5784,-1.5831,-1.5972,-1.6179,-1.6486,-1.6854,-1.7112,-1.7373,-1.7582,-1.7582,-1.7582,-1.7582,-1.7582,-1.7582,-1.7582,-0.8777,-0.8798,-0.8696,-0.8703,-0.8703,-0.8706,-0.871,-0.8842,-0.8885,-0.8885,-0.8885,-0.8885,-0.8885,-0.8885,-0.8885,-0.8885,-0.8885,-0.8885,-0.8885,-0.8885,-0.8885,-0.8885,-0.8881,-0.8811,-0.8713,-0.8706,-0.856,-0.8316,-0.7953,-0.7573,-0.7085,-0.6831,-0.7014,-0.7587,-0.759,-0.7756,-0.7982,-0.7988,-0.7988,-0.7988,-0.7988,-0.7988,-0.7988,-0.7988,-0.7988,-0.7988,-0.7988,-0.7988,-0.7988,-0.7988,-0.7988,-0.7988,-0.8041,-0.8038,-0.8038,-0.8038,-0.897,-0.9998,-0.9998,-1.0925,-1.1896,-1.1896,-1.1896,-1.1896,-1.1896,-1.1896,-1.1831,-1.1552,-1.2491,-1.3228,-1.2732,-1.2715,-1.2899,-1.3147,-1.1249,-0.9836,-1.0067,-0.9888,-0.9815,-1.0084,-1.0411,-1.1056,-1.2187,-1.1764,-1.1382,-1.1389,-1.1382,-1.1382,-1.1382,-1.0875,-1.0868,-1.1382,-1.0914,-1.1464,-1.32,-1.322,-1.4095,-1.5771,-1.5778,-1.5784,-1.5784,-1.5784,-1.5985,-1.6266,-1.6321,-1.6656,-1.7199,-1.7199,-1.7373,-1.7582,-1.7582,-1.7582,-1.7582,-1.7582,-1.7582,-1.7582,-0.9171,-0.9117,-0.9067,-0.9067,-0.893,-0.8811,-0.8811,-0.8851,-0.8885,-0.8885,-0.8885,-0.8885,-0.8885,-0.8885,-0.8885,-0.8885,-0.8885,-0.8885,-0.8885,-0.8885,-0.8885,-0.8885,-0.8885,-0.8861,-0.8811,-0.8764,-0.8665,-0.857,-0.8163,-0.7793,-0.7597,-0.756,-0.7668,-0.785,-0.785,-0.7901,-0.7988,-0.7988,-0.7988,-0.7988,-0.7988,-0.7988,-0.7988,-0.7988,-0.7988,-0.7988,-0.7988,-0.7988,-0.7988,-0.7988,-0.7988,-0.7988,-0.7988,-0.7988,-0.7988,-0.7988,-0.8283,-0.8627,-0.8627,-0.892,-0.9262,-0.9262,-0.9262,-0.9262,-0.9262,-0.9262,-0.9493,-1.0303,-1.0617,-1.0957,-1.1592,-1.1539,-1.1293,-1.0882,-1.0538,-1.0049,-0.9398,-0.9701,-0.9855,-0.9341,-0.9547,-1.0253,-1.16,-1.1197,-1.1179,-1.1952,-1.2024,-1.1815,-1.1415,-1.163,-1.2024,-1.2625,-1.2659,-1.322,-1.4439,-1.4202,-1.4639,-1.5784,-1.5784,-1.5784,-1.5791,-1.6039,-1.6186,-1.6342,-1.6744,-1.7032,-1.7213,-1.7414,-1.7502,-1.7582,-1.7582,-1.7582,-1.7582,-1.7582,-1.7582,-1.7582,-0.8405,-0.8897,-0.9296,-0.9296,-0.9117,-0.9018,-0.9018,-0.8974,-0.8885,-0.8885,-0.8885,-0.8885,-0.8885,-0.8885,-0.8885,-0.8885,-0.8885,-0.8885,-0.8885,-0.8885,-0.8885,-0.8885,-0.8885,-0.8885,-0.8885,-0.879,-0.8767,-0.871,-0.837,-0.8157,-0.8065,-0.816,-0.8204,-0.8204,-0.8204,-0.8204,-0.8201,-0.815,-0.8126,-0.8123,-0.8012,-0.7988,-0.7988,-0.7988,-0.7988,-0.7988,-0.7988,-0.7988,-0.7988,-0.7988,-0.7988,-0.7988,-0.7988,-0.7988,-0.7988,-0.7988,-0.7988,-0.7988,-0.7988,-0.7988,-0.7988,-0.7988,-0.7988,-0.7988,-0.7988,-0.7988,-0.8233,-0.9069,-0.947,-0.9861,-1.0515,-1.0444,-1.0281,-1.0111,-0.9628,-0.9134,-0.8774,-0.891,-0.8878,-0.8449,-0.8629,-0.9331,-1.0688,-1.0488,-1.0539,-1.1274,-1.1515,-1.16,-1.146,-1.1998,-1.2525,-1.3019,-1.3213,-1.3788,-1.4783,-1.4609,-1.4963,-1.5784,-1.5784,-1.5885,-1.6005,-1.6186,-1.6442,-1.6677,-1.7038,-1.7266,-1.738,-1.7508,-1.7582,-1.7582,-1.7582,-1.7582,-1.7582,-1.7582,-1.7582,-1.7582,-0.6759,-0.7988,-0.9101,-0.9101,-0.903,-0.9037,-0.9037,-0.8972,-0.8885,-0.8885,-0.8885,-0.8885,-0.8885,-0.8885,-0.8885,-0.8885,-0.8885,-0.8885,-0.8885,-0.8885,-0.8885,-0.8885,-0.8885,-0.8885,-0.8885,-0.8885,-0.8814,-0.8726,-0.8574,-0.8499,-0.8499,-0.8486,-0.8482,-0.8482,-0.8482,-0.8482,-0.8472,-0.8391,-0.8337,-0.8323,-0.813,-0.8019,-0.8019,-0.8019,-0.8015,-0.8005,-0.8005,-0.7998,-0.7988,-0.7988,-0.7988,-0.7988,-0.7988,-0.7988,-0.7988,-0.7988,-0.7988,-0.7988,-0.7988,-0.7988,-0.7988,-0.7988,-0.7988,-0.7988,-0.7988,-0.7988,-0.7988,-0.7988,-0.897,-0.9747,-0.942,-0.9374,-0.9644,-1.0447,-0.8605,-0.7378,-0.8168,-0.7567,-0.7197,-0.7508,-0.7757,-0.8373,-0.9546,-0.9632,-0.9658,-0.971,-1.0257,-1.082,-1.1312,-1.189,-1.2428,-1.2898,-1.2951,-1.3501,-1.4569,-1.4603,-1.5023,-1.5784,-1.5804,-1.6005,-1.6321,-1.6319,-1.6683,-1.7199,-1.7226,-1.7387,-1.7582,-1.7582,-1.7582,-1.7582,-1.7582,-1.7582,-1.7582,-1.7582,-1.7582,-1.7582,-0.5348,-0.5598,-0.5788,-0.5788,-0.6643,-0.7315,-0.7315,-0.818,-0.8885,-0.8885,-0.8885,-0.8885,-0.8885,-0.8885,-0.8885,-0.8885,-0.8885,-0.8885,-0.8885,-0.8885,-0.8885,-0.8885,-0.8885,-0.8885,-0.8885,-0.8885,-0.8865,-0.8828,-0.873,-0.8655,-0.8655,-0.8537,-0.8482,-0.8482,-0.8482,-0.8482,-0.8479,-0.8445,-0.8431,-0.8428,-0.8391,-0.8377,-0.8377,-0.8377,-0.8309,-0.8214,-0.8214,-0.814,-0.7988,-0.7988,-0.7988,-0.7988,-0.7988,-0.7988,-0.7988,-0.7988,-0.7988,-0.7988,-0.7988,-0.7988,-0.7988,-0.7988,-0.7988,-0.7988,-0.7988,-0.7988,-0.7988,-0.7988,-0.8237,-0.8431,-0.8222,-0.8116,-0.8098,-0.8208,-0.7596,-0.7121,-0.711,-0.6923,-0.6833,-0.6893,-0.698,-0.7575,-0.8944,-0.9099,-0.9268,-0.9648,-1.0248,-1.0408,-0.9987,-1.0736,-1.2043,-1.4053,-1.4536,-1.4903,-1.5184,-1.5411,-1.5625,-1.5784,-1.6059,-1.6206,-1.6335,-1.679,-1.7072,-1.7213,-1.7434,-1.7515,-1.7582,-1.7582,-1.7582,-1.7582,-1.7582,-1.7582,-1.7582,-1.7582,-1.7582,-1.7582,-0.3813,-0.4336,-0.4794,-0.4794,-0.5318,-0.5781,-0.5781,-0.6405,-0.6869,-0.6869,-0.6869,-0.6869,-0.6869,-0.6869,-0.6869,-0.6869,-0.8097,-0.8885,-0.8885,-0.8885,-0.8885,-0.8885,-0.8885,-0.8885,-0.8885,-0.8885,-0.8885,-0.8885,-0.8801,-0.8815,-0.8811,-0.873,-0.8693,-0.8693,-0.8693,-0.8693,-0.8686,-0.8615,-0.8584,-0.8581,-0.8509,-0.8482,-0.8482,-0.8482,-0.8435,-0.8367,-0.8367,-0.8313,-0.8231,-0.8167,-0.8143,-0.8133,-0.8012,-0.7988,-0.7988,-0.7988,-0.7988,-0.7988,-0.7988,-0.7988,-0.7988,-0.7988,-0.7988,-0.7988,-0.7988,-0.7988,-0.7988,-0.7988,-0.7988,-0.7965,-0.788,-0.7794,-0.7648,-0.7499,-0.7234,-0.692,-0.6732,-0.6702,-0.6702,-0.6702,-0.682,-0.7178,-0.7998,-0.8057,-0.8229,-0.8631,-0.9163,-0.9453,-0.9403,-1.0251,-1.1655,-1.3755,-1.4248,-1.4835,-1.5591,-1.5752,-1.5899,-1.6032,-1.6192,-1.6462,-1.6737,-1.7052,-1.7273,-1.7407,-1.7515,-1.7582,-1.7582,-1.7582,-1.7582,-1.7582,-1.7582,-1.7582,-1.7582,-1.7582,-1.7582,-1.7582,-0.2094,-0.3199,-0.4177,-0.4169,-0.4246,-0.4336,-0.4325,-0.4445,-0.4526,-0.4526,-0.4526,-0.4526,-0.4526,-0.4526,-0.4526,-0.4526,-0.6813,-0.8322,-0.8546,-0.8771,-0.8885,-0.8885,-0.8885,-0.8885,-0.8885,-0.8885,-0.8885,-0.8885,-0.8885,-0.8885,-0.8885,-0.8885,-0.8885,-0.8885,-0.8885,-0.8885,-0.8875,-0.8801,-0.8747,-0.8733,-0.8604,-0.855,-0.855,-0.855,-0.8537,-0.8516,-0.8516,-0.8503,-0.8465,-0.8395,-0.8354,-0.8279,-0.8147,-0.8042,-0.8025,-0.8025,-0.8008,-0.7988,-0.7988,-0.7988,-0.7988,-0.7988,-0.7988,-0.7988,-0.7988,-0.7988,-0.7988,-0.7988,-0.7988,-0.7988,-0.7988,-0.7867,-0.7756,-0.7594,-0.7244,-0.6926,-0.6729,-0.6759,-0.6793,-0.677,-0.6987,-0.7166,-0.7166,-0.7166,-0.7265,-0.7397,-0.7867,-0.8356,-0.8961,-0.9748,-1.0885,-1.2426,-1.2911,-1.3938,-1.5486,-1.5532,-1.582,-1.6321,-1.6415,-1.6717,-1.7199,-1.7246,-1.74,-1.7582,-1.7582,-1.7582,-1.7582,-1.7582,-1.7582,-1.7582,-1.7582,-1.7582,-1.7582,-1.7582,-1.7582,-1.7582,-0.037,-0.0617,-0.0737,-0.0788,-0.1784,-0.257,-0.2593,-0.3678,-0.4526,-0.4526,-0.4526,-0.4526,-0.4526,-0.4526,-0.4526,-0.4526,-0.4916,-0.5697,-0.698,-0.8211,-0.8885,-0.8885,-0.8885,-0.8885,-0.8885,-0.8885,-0.8885,-0.8885,-0.8885,-0.8885,-0.8885,-0.8885,-0.8885,-0.8885,-0.8885,-0.8885,-0.8881,-0.8858,-0.8848,-0.8848,-0.8821,-0.8814,-0.8814,-0.8814,-0.8788,-0.8676,-0.8676,-0.8591,-0.8479,-0.8459,-0.8448,-0.8445,-0.8421,-0.8333,-0.8235,-0.8235,-0.8143,-0.7988,-0.7988,-0.7988,-0.7988,-0.7988,-0.7988,-0.7988,-0.7988,-0.7988,-0.7988,-0.7988,-0.7988,-0.7988,-0.7988,-0.7867,-0.7723,-0.7451,-0.735,-0.716,-0.6756,-0.7027,-0.7221,-0.7045,-0.7343,-0.7529,-0.7529,-0.7529,-0.7539,-0.7563,-0.7659,-0.7696,-0.7678,-0.8038,-0.8804,-0.9984,-1.1415,-1.278,-1.4166,-1.4436,-1.512,-1.6328,-1.6831,-1.7112,-1.7206,-1.7454,-1.7542,-1.7582,-1.7582,-1.7582,-1.7582,-1.7582,-1.7582,-1.7582,-1.7582,-1.7582,-1.7582,-1.7582,-1.7582,-1.7582,0.0,0.0,0.0,0.0,-0.0535,-0.0994,-0.1036,-0.1641,-0.207,-0.207,-0.207,-0.207,-0.207,-0.207,-0.207,-0.207,-0.2795,-0.3575,-0.4244,-0.5695,-0.6533,-0.6533,-0.6533,-0.6924,-0.7706,-0.6924,-0.6924,-0.7706,-0.7706,-0.7706,-0.7706,-0.8546,-0.8885,-0.8885,-0.8885,-0.8885,-0.8885,-0.8885,-0.8885,-0.8885,-0.8885,-0.8885,-0.8885,-0.8885,-0.8841,-0.8832,-0.8832,-0.8788,-0.8716,-0.8632,-0.8604,-0.8591,-0.8509,-0.8438,-0.8384,-0.8384,-0.8221,-0.7988,-0.7988,-0.7988,-0.7988,-0.7988,-0.7988,-0.7988,-0.7988,-0.7988,-0.7988,-0.7988,-0.7988,-0.7988,-0.7988,-0.7931,-0.7838,-0.7543,-0.7424,-0.7241,-0.6875,-0.7068,-0.7221,-0.7105,-0.7414,-0.76,-0.76,-0.76,-0.7631,-0.7706,-0.7712,-0.7719,-0.7729,-0.7862,-0.8143,-0.869,-1.0775,-1.2245,-1.2997,-1.3111,-1.3596,-1.4429,-1.5497,-1.6114,-1.6258,-1.7193,-1.7582,-1.7582,-1.7582,-1.7582,-1.7582,-1.7582,-1.7582,-1.7582,-1.7582,-1.7582,-1.7582,-1.7582,-1.7582,-1.7582,0.0,0.0,0.0,0.0,0.0,0.0,0.0,0.0,0.0,0.0,0.0,0.0,0.0,0.0,0.0,0.0,-0.1008,-0.1677,-0.1677,-0.2795,-0.3745,-0.447,-0.4526,-0.5027,-0.6144,-0.5085,-0.5029,-0.62,-0.62,-0.62,-0.6197,-0.7371,-0.8042,-0.838,-0.838,-0.8602,-0.8885,-0.8885,-0.8885,-0.8885,-0.8885,-0.8885,-0.8885,-0.8885,-0.8885,-0.8885,-0.8885,-0.8885,-0.8865,-0.8804,-0.8764,-0.8743,-0.8625,-0.8564,-0.8533,-0.8533,-0.835,-0.8076,-0.8008,-0.7988,-0.7988,-0.7988,-0.7988,-0.7988,-0.7988,-0.7988,-0.7988,-0.7988,-0.7988,-0.7988,-0.7988,-0.7988,-0.7894,-0.7648,-0.7529,-0.7383,-0.7122,-0.7162,-0.7264,-0.7301,-0.756,-0.7702,-0.7702,-0.7702,-0.7746,-0.7858,-0.7865,-0.7916,-0.7982,-0.7988,-0.8005,-0.8092,-1.0012,-1.1267,-1.1713,-1.1865,-1.2182,-1.2825,-1.4041,-1.4696,-1.4931,-1.6068,-1.6605,-1.6605,-1.6935,-1.7094,-1.7094,-1.7477,-1.7582,-1.7582,-1.7582,-1.7582,-1.7582,-1.7582,-1.7582,-1.7582,0.0,0.0,0.0,0.0,0.0,0.0,0.0,0.0,0.0,0.0,0.0,0.0,0.0,0.0,0.0,0.0,-0.0112,-0.0168,-0.0168,-0.028,-0.1567,-0.4359,-0.4526,-0.4528,-0.4639,-0.4582,-0.4528,-0.4639,-0.4639,-0.4639,-0.4639,-0.4751,-0.553,-0.6869,-0.6869,-0.7595,-0.8885,-0.8885,-0.8885,-0.8885,-0.8885,-0.8885,-0.8885,-0.8885,-0.8885,-0.8885,-0.8885,-0.8885,-0.8881,-0.8871,-0.8865,-0.8865,-0.8854,-0.8808,-0.8693,-0.8693,-0.8577,-0.8391,-0.8062,-0.7988,-0.7988,-0.7988,-0.7988,-0.7988,-0.7988,-0.7988,-0.7988,-0.7988,-0.7988,-0.7988,-0.7988,-0.7988,-0.7894,-0.7648,-0.7699,-0.7726,-0.757,-0.7672,-0.7814,-0.7907,-0.7944,-0.7958,-0.7958,-0.7958,-0.7961,-0.7971,-0.7971,-0.7978,-0.7988,-0.7988,-0.8106,-0.8248,-0.8456,-0.9158,-1.0361,-1.0763,-1.1587,-1.2831,-1.3197,-1.3465,-1.348,-1.3588,-1.3642,-1.3696,-1.499,-1.5577,-1.5689,-1.7041,-1.7582,-1.7582,-1.7582,-1.7582,-1.7582,-1.7582,-1.7582,-1.7582,0.0,0.0,0.0,0.0,0.0,0.0,0.0,0.0,0.0,0.0,0.0,0.0,0.0,0.0,0.0,0.0,0.0,0.0,0.0,0.0,-0.0504,-0.1679,-0.1735,-0.2125,-0.3073,-0.2181,-0.2181,-0.3073,-0.3073,-0.3073,-0.3073,-0.408,-0.5308,-0.6702,-0.6702,-0.754,-0.8885,-0.8885,-0.8885,-0.8885,-0.8885,-0.8885,-0.8885,-0.8885,-0.8885,-0.8885,-0.8885,-0.8885,-0.8885,-0.8885,-0.8885,-0.8885,-0.8885,-0.8844,-0.8832,-0.8737,-0.8669,-0.8577,-0.837,-0.8252,-0.816,-0.8015,-0.7988,-0.7988,-0.7988,-0.7988,-0.7988,-0.7988,-0.7988,-0.7988,-0.7988,-0.7988,-0.7921,-0.7767,-0.7855,-0.7899,-0.775,-0.7858,-0.7924,-0.7982,-0.7988,-0.7988,-0.7988,-0.7988,-0.7988,-0.7988,-0.7988,-0.7988,-0.7988,-0.813,-0.8252,-0.8397,-0.8492,-0.8804,-0.9264,-0.9439,-0.9823,-1.0411,-1.1452,-1.1919,-1.1969,-1.2886,-1.3318,-1.3318,-1.3857,-1.4126,-1.4126,-1.4722,-1.4936,-1.4936,-1.4936,-1.547,-1.6227,-1.6227,-1.6823,-1.7582,0.0,0.0,0.0,0.0,0.0,0.0,0.0,0.0,0.0,0.0,0.0,0.0,0.0,0.0,0.0,0.0,0.0,0.0,0.0,0.0,0.0,0.0,0.0,-0.0448,-0.151,-0.0504,-0.0504,-0.151,-0.151,-0.151,-0.151,-0.2573,-0.4134,-0.5975,-0.5526,-0.6642,-0.8881,-0.8432,-0.8491,-0.8885,-0.8885,-0.8885,-0.8885,-0.8885,-0.8885,-0.8885,-0.8885,-0.8885,-0.8885,-0.8885,-0.8885,-0.8885,-0.8885,-0.8885,-0.8861,-0.8811,-0.8781,-0.875,-0.8594,-0.8482,-0.836,-0.8163,-0.8025,-0.7988,-0.7988,-0.7988,-0.7988,-0.7988,-0.7988,-0.7988,-0.7988,-0.7988,-0.7955,-0.7899,-0.7921,-0.7955,-0.7896,-0.7924,-0.7988,-0.7988,-0.7988,-0.7988,-0.7988,-0.7988,-0.7988,-0.7988,-0.8085,-0.8133,-0.8177,-0.8279,-0.8404,-0.855,-0.8655,-0.8733,-0.8781,-0.8781,-0.8835,-0.894,-0.9915,-1.0402,-1.0457,-1.1483,-1.1919,-1.1919,-1.2403,-1.262,-1.2674,-1.3102,-1.3318,-1.3318,-1.3318,-1.3911,-1.4716,-1.4716,-1.5364,-1.6234,0.0,0.0,0.0,0.0,0.0,0.0,0.0,0.0,0.0,0.0,0.0,0.0,0.0,0.0,0.0,0.0,0.0,0.0,0.0,0.0,0.0,0.0,0.0,0.0,0.0,0.0,0.0,0.0,0.0,0.0,0.0,0.0,-0.1623,-0.4414,-0.2905,-0.4688,-0.8771,-0.7315,-0.7537,-0.8881,-0.8881,-0.8881,-0.8881,-0.8881,-0.8881,-0.8885,-0.8885,-0.8885,-0.8885,-0.8885,-0.8885,-0.8885,-0.8885,-0.8885,-0.8885,-0.8885,-0.8885,-0.8851,-0.8754,-0.8713,-0.8638,-0.8347,-0.8153,-0.7992,-0.7992,-0.7988,-0.7988,-0.7988,-0.7988,-0.7988,-0.7988,-0.7988,-0.7988,-0.7988,-0.7988,-0.7988,-0.7988,-0.7988,-0.7988,-0.7988,-0.7992,-0.7992,-0.7992,-0.7992,-0.7992,-0.7992,-0.8184,-0.8385,-0.8476,-0.8482,-0.8554,-0.8706,-0.8713,-0.8784,-0.8881,-0.8885,-0.8885,-0.8885,-0.8885,-0.8885,-0.8885,-0.8885,-0.8885,-0.8992,-1.0457,-1.1105,-1.1214,-1.267,-1.3264,-1.3264,-1.3264,-1.3264,-1.3264,-1.3264,-1.3264,-1.3318,0.0,0.0,0.0,0.0,0.0,0.0,0.0,0.0,0.0,0.0,0.0,0.0,0.0,0.0,0.0,0.0,0.0,0.0,0.0,0.0,0.0,0.0,0.0,0.0,0.0,0.0,0.0,0.0,0.0,0.0,0.0,0.0,-0.1008,-0.285,-0.2403,-0.3519,-0.5808,-0.5363,-0.5419,-0.5808,-0.5808,-0.6422,-0.7371,-0.7371,-0.7986,-0.8885,-0.8885,-0.8885,-0.8885,-0.8885,-0.8885,-0.8885,-0.8885,-0.8885,-0.8885,-0.8885,-0.8885,-0.8871,-0.8828,-0.8794,-0.8662,-0.8469,-0.8309,-0.8201,-0.8201,-0.8116,-0.7988,-0.7988,-0.7988,-0.7988,-0.7988,-0.7988,-0.7988,-0.7988,-0.7988,-0.7988,-0.7988,-0.7988,-0.7988,-0.7988,-0.8136,-0.8201,-0.8201,-0.8292,-0.835,-0.835,-0.8394,-0.8482,-0.8635,-0.8642,-0.8713,-0.8811,-0.8814,-0.8838,-0.8885,-0.8885,-0.8885,-0.8885,-0.8885,-0.8885,-0.8885,-0.8885,-0.8885,-0.8937,-0.9372,-0.9533,-0.9588,-1.0025,-1.0186,-1.0186,-1.0186,-1.0836,-1.1755,-1.1755,-1.2403,-1.3318,0.0,0.0,0.0,0.0,0.0,0.0,0.0,0.0,0.0,0.0,0.0,0.0,0.0,0.0,0.0,0.0,0.0,0.0,0.0,0.0,0.0,0.0,0.0,0.0,0.0,0.0,0.0,0.0,0.0,0.0,0.0,0.0,-0.0784,-0.218,-0.1566,-0.2516,-0.447,-0.3855,-0.3967,-0.4526,-0.4526,-0.5027,-0.5808,-0.5808,-0.6366,-0.7149,-0.7149,-0.7149,-0.726,-0.782,-0.8432,-0.8885,-0.8885,-0.8885,-0.8885,-0.8885,-0.8885,-0.8885,-0.8885,-0.8817,-0.8777,-0.8686,-0.8506,-0.8353,-0.8353,-0.8238,-0.813,-0.813,-0.8032,-0.7988,-0.7988,-0.8089,-0.813,-0.813,-0.8177,-0.8214,-0.8214,-0.8214,-0.8214,-0.8214,-0.8296,-0.8353,-0.8353,-0.8431,-0.8506,-0.8567,-0.857,-0.8638,-0.8794,-0.8801,-0.879,-0.8878,-0.8885,-0.8885,-0.8885,-0.8885,-0.8885,-0.8885,-0.8885,-0.8885,-0.8885,-0.8885,-0.8885,-0.8885,-0.8885,-0.8885,-0.8885,-0.8885,-0.8885,-0.8885,-0.8885,-0.9427,-1.0241,-1.0241,-1.0781,-1.1538,0.0,0.0,0.0,0.0,0.0,0.0,0.0,0.0,0.0,0.0,0.0,0.0,0.0,0.0,0.0,0.0,0.0,0.0,0.0,0.0,0.0,0.0,0.0,0.0,0.0,0.0,0.0,0.0,0.0,0.0,0.0,0.0,-0.0728,-0.1956,-0.0616,-0.1512,-0.4024,-0.2626,-0.2794,-0.408,-0.408,-0.4191,-0.4303,-0.4303,-0.4359,-0.4526,-0.4526,-0.4526,-0.4693,-0.6031,-0.7371,-0.8491,-0.8491,-0.8602,-0.8716,-0.8716,-0.8771,-0.8885,-0.8885,-0.8885,-0.8885,-0.8885,-0.873,-0.852,-0.8506,-0.8391,-0.834,-0.834,-0.8177,-0.8029,-0.8029,-0.8194,-0.834,-0.834,-0.8397,-0.8482,-0.8482,-0.8482,-0.8482,-0.8482,-0.8496,-0.8503,-0.8503,-0.8516,-0.8581,-0.872,-0.873,-0.8791,-0.8875,-0.8885,-0.8885,-0.8885,-0.8885,-0.8885,-0.8885,-0.8885,-0.8885,-0.8885,-0.8885,-0.8885,-0.8885,-0.8885,-0.8885,-0.8885,-0.8885,-0.8885,-0.8885,-0.8885,-0.8885,-0.8885,-0.8885,-0.8885,-0.8885,-0.8885,-0.8885,-0.8885,0.0,0.0,0.0,0.0,0.0,0.0,0.0,0.0,0.0,0.0,0.0,0.0,0.0,0.0,0.0,0.0,0.0,0.0,0.0,0.0,0.0,0.0,0.0,0.0,0.0,0.0,0.0,0.0,0.0,0.0,0.0,0.0,-0.0168,-0.0448,-0.0168,-0.0336,-0.0952,-0.0616,-0.0672,-0.0952,-0.0952,-0.1678,-0.2682,-0.2682,-0.3465,-0.4526,-0.4526,-0.4526,-0.4528,-0.4862,-0.5196,-0.5475,-0.5475,-0.6255,-0.7204,-0.7204,-0.7986,-0.8885,-0.8885,-0.8885,-0.8885,-0.8885,-0.8834,-0.8808,-0.8686,-0.8547,-0.8435,-0.8435,-0.8411,-0.8387,-0.8387,-0.8414,-0.8435,-0.8435,-0.8462,-0.8482,-0.8482,-0.8482,-0.8482,-0.8482,-0.8587,-0.8662,-0.8662,-0.8771,-0.8797,-0.8831,-0.8834,-0.8848,-0.8881,-0.8885,-0.8885,-0.8885,-0.8885,-0.8885,-0.8885,-0.8885,-0.8885,-0.8885,-0.8885,-0.8885,-0.8885,-0.8885,-0.8885,-0.8885,-0.8885,-0.8885,-0.8885,-0.8885,-0.8885,-0.8885,-0.8885,-0.8885,-0.8885,-0.8885,-0.8885,-0.8885,0.0,0.0,0.0,0.0,0.0,0.0,0.0,0.0,0.0,0.0,0.0,0.0,0.0,0.0,0.0,0.0,0.0,0.0,0.0,0.0,0.0,0.0,0.0,0.0,0.0,0.0,0.0,0.0,0.0,0.0,0.0,0.0,0.0,0.0,0.0,0.0,0.0,0.0,0.0,0.0,0.0,-0.0448,-0.1175,-0.1175,-0.1678,-0.2349,-0.2349,-0.2795,-0.3409,-0.3409,-0.3911,-0.4526,-0.4526,-0.5027,-0.5641,-0.5641,-0.62,-0.6813,-0.6813,-0.6813,-0.6813,-0.6813,-0.6813,-0.7133,-0.8504,-0.8703,-0.8591,-0.8591,-0.8533,-0.8482,-0.8482,-0.854,-0.8591,-0.8591,-0.8652,-0.8699,-0.8699,-0.8699,-0.8699,-0.8699,-0.8771,-0.8818,-0.8818,-0.8838,-0.8885,-0.8885,-0.8885,-0.8885,-0.8885,-0.8885,-0.8885,-0.8885,-0.8885,-0.8885,-0.8885,-0.8885,-0.8885,-0.8885,-0.8885,-0.8885,-0.8885,-0.8885,-0.8885,-0.8885,-0.8885,-0.8885,-0.8885,-0.8885,-0.8885,-0.8885,-0.8885,-0.8885,-0.8885,-0.8885,-0.8885,-0.8885,0.0,0.0,0.0,0.0,0.0,0.0,0.0,0.0,0.0,0.0,0.0,0.0,0.0,0.0,0.0,0.0,0.0,0.0,0.0,0.0,0.0,0.0,0.0,0.0,0.0,0.0,0.0,0.0,0.0,0.0,0.0,0.0,0.0,0.0,0.0,0.0,0.0,0.0,0.0,0.0,0.0,0.0,0.0,0.0,0.0,0.0,0.0,-0.0784,-0.1845,-0.1845,-0.2683,-0.3745,-0.3745,-0.3913,-0.408,-0.408,-0.4303,-0.4526,-0.4526,-0.4526,-0.4526,-0.4526,-0.4526,-0.5139,-0.7595,-0.8066,-0.7982,-0.7982,-0.7889,-0.7809,-0.7809,-0.7902,-0.7982,-0.7982,-0.8078,-0.8156,-0.8156,-0.8156,-0.8266,-0.8491,-0.8771,-0.8885,-0.8885,-0.8885,-0.8885,-0.8885,-0.8885,-0.8885,-0.8885,-0.8885,-0.8885,-0.8885,-0.8885,-0.8885,-0.8885,-0.8885,-0.8885,-0.8885,-0.8885,-0.8885,-0.8885,-0.8885,-0.8885,-0.8885,-0.8885,-0.8885,-0.8885,-0.8885,-0.8885,-0.8885,-0.8885,-0.8885,-0.8885,-0.8885,-0.8885,-0.8885,0.0,0.0,0.0,0.0,0.0,0.0,0.0,0.0,0.0,0.0,0.0,0.0,0.0,0.0,0.0,0.0,0.0,0.0,0.0,0.0,0.0,0.0,0.0,0.0,0.0,0.0,0.0,0.0,0.0,0.0,0.0,0.0,0.0,0.0,0.0,0.0,0.0,0.0,0.0,0.0,0.0,0.0,0.0,0.0,0.0,0.0,0.0,-0.0112,-0.028,-0.028,-0.0448,-0.0616,-0.0616,-0.1511,-0.2515,-0.2515,-0.3465,-0.4526,-0.4526,-0.4526,-0.4526,-0.4526,-0.4526,-0.4582,-0.5027,-0.5075,-0.5065,-0.5065,-0.5058,-0.5048,-0.5048,-0.5058,-0.5065,-0.5065,-0.5077,-0.5085,-0.5085,-0.5085,-0.5586,-0.6869,-0.8097,-0.8885,-0.8885,-0.8885,-0.8885,-0.8885,-0.8885,-0.8885,-0.8885,-0.8885,-0.8885,-0.8885,-0.8885,-0.8885,-0.8885,-0.8885,-0.8885,-0.8885,-0.8885,-0.8885,-0.8885,-0.8885,-0.8885,-0.8885,-0.8885,-0.8885,-0.8885,-0.8885,-0.8885,-0.8885,-0.8885,-0.8885,-0.8885,-0.8885,-0.8885,-0.8885,0.0,0.0,0.0,0.0,0.0,0.0,0.0,0.0,0.0,0.0,0.0,0.0,0.0,0.0,0.0,0.0,0.0,0.0,0.0,0.0,0.0,0.0,0.0,0.0,0.0,0.0,0.0,0.0,0.0,0.0,0.0,0.0,0.0,0.0,0.0,0.0,0.0,0.0,0.0,0.0,0.0,0.0,0.0,0.0,0.0,0.0,0.0,0.0,0.0,0.0,0.0,0.0,0.0,-0.0448,-0.0952,-0.0952,-0.1455,-0.1958,-0.1958,-0.1958,-0.1958,-0.1958,-0.1958,-0.1958,-0.1958,-0.1958,-0.2462,-0.4136,-0.4526,-0.4526,-0.4526,-0.4526,-0.4526,-0.4526,-0.4526,-0.4526,-0.4526,-0.4526,-0.4751,-0.5419,-0.6031,-0.6422,-0.6422,-0.6422,-0.6758,-0.7595,-0.7651,-0.8042,-0.8881,-0.8885,-0.8885,-0.8885,-0.8885,-0.8885,-0.8885,-0.8885,-0.8885,-0.8885,-0.8885,-0.8885,-0.8885,-0.8885,-0.8885,-0.8885,-0.8885,-0.8885,-0.8885,-0.8885,-0.8885,-0.8885,-0.8885,-0.8885,-0.8885,-0.8885,-0.8885,-0.8885]}]]